[[{"header":{"parameterUnit":"m.s-1","parameterCategory":1,"la1":30.6,"la2":29.2853,"lo1":-89.7004,"lo2":-87.6739,"dy":0.0162,"dx":0.0183,"nx":112,"ny":82,"refTime":"2023-11-01T06:00:00:Z","depth":0,"parameterNumber":2,"parameterNumberName":"U-component_of_WINDS"},"data":[0.0,0.0,0.0,0.0,0.0,0.0,0.0,0.0,0.0,0.0,0.0,0.0,0.0,0.0,0.0,0.0,0.0,0.0,0.0,0.0,0.0,0.0,0.0,0.0,0.0,0.0,0.0,0.0,0.0,0.0,0.0,0.0,0.0,0.0,0.0,0.0,0.0,0.0,0.0,0.0,0.0,0.0,0.0,0.0,0.0,0.0,0.0,0.0,0.0,0.0,0.0,0.0,0.0,0.0,0.0,0.0,0.0,0.0,0.0,0.0,0.0,0.0,0.0,0.0,0.0,0.0,0.0,0.0,0.0,0.0,0.0,0.0,0.0,0.0,0.0,0.0,0.0,0.0,0.0,0.0,0.0,0.0,0.0,0.0,0.0,0.0,0.0,0.0,0.0,0.0,1.2984,1.3597,1.3742,1.3941,1.4317,1.3084,1.2081,1.1588,0.0,0.0,0.0,0.0,0.0,0.0,0.0,0.0,0.0,0.0,0.0,0.0,0.0,0.0,0.0,0.0,0.0,0.0,0.0,0.0,0.0,0.0,0.0,0.0,0.0,0.0,0.0,0.0,0.0,0.0,0.0,0.0,0.0,0.0,0.0,0.0,0.0,0.0,0.0,0.0,0.0,0.0,0.0,0.0,0.0,0.0,0.0,0.0,0.0,0.0,0.0,0.0,0.0,0.0,0.0,0.0,0.0,0.0,0.0,0.0,0.0,0.0,0.0,0.0,0.0,0.0,0.0,0.0,0.0,0.0,0.0,0.0,0.0,0.0,0.0,0.0,0.0,0.0,0.0,0.0,0.0,0.0,0.0,0.0,0.0,0.0,0.0,0.0,0.0,0.0,0.0,0.0,0.0,0.0,0.0,0.0,0.0,0.0,0.0,0.0,0.0,0.0,0.0,0.0,1.2372,1.2966,1.3488,1.3633,1.3185,1.2634,1.1903,1.0993,0.0,0.0,0.0,0.0,0.0,0.0,0.0,0.0,0.0,0.0,0.0,0.0,0.0,0.0,0.0,0.0,0.0,0.0,0.0,0.0,0.0,0.0,0.0,0.0,0.0,0.0,0.0,0.0,0.0,0.0,0.0,0.0,0.0,0.0,0.0,0.0,0.0,0.0,0.0,0.0,0.0,0.0,0.0,0.0,0.0,0.0,0.0,0.0,0.0,0.0,0.0,0.0,0.0,0.0,0.0,0.0,0.0,0.0,0.0,0.0,0.0,0.0,0.0,0.0,0.0,0.0,0.0,0.0,0.0,0.0,0.0,0.0,0.0,0.0,0.0,0.0,0.0,0.0,0.0,0.0,0.0,0.0,0.0,0.0,0.0,0.0,0.0,0.0,0.0,0.0,0.0,0.0,0.0,0.0,0.0,0.0,0.0,0.0,0.0,0.0,0.0,0.0,0.0,1.1725,1.2224,1.2845,1.2849,1.2831,1.29,1.2236,1.1508,1.085,0.986,0.0,0.0,0.0,0.0,0.0,0.0,0.0,0.0,0.0,0.0,0.0,0.0,0.0,0.0,0.0,0.0,0.0,0.0,0.0,0.0,0.0,0.0,0.0,0.0,0.0,0.0,0.0,0.0,0.0,0.0,0.0,0.0,0.0,0.0,0.0,0.0,0.0,0.0,0.0,0.0,0.0,0.0,0.0,0.0,0.0,0.0,0.0,0.0,0.0,0.0,0.0,0.0,0.0,0.0,0.0,0.0,0.0,0.0,0.0,0.0,0.0,0.0,0.0,0.0,0.0,0.0,0.0,0.0,0.0,0.0,0.0,0.0,0.0,0.0,0.0,0.0,0.0,0.0,0.0,0.0,0.0,0.0,0.0,0.0,0.0,0.0,0.0,0.0,0.0,0.0,0.0,0.0,0.0,0.0,0.0,0.0,0.0,0.0,0.0,0.0,0.0,0.0,1.1781,1.1966,1.2434,1.2114,1.1984,1.2305,1.1589,1.0937,1.0481,0.9633,0.0,0.0,0.0,0.0,0.0,0.0,0.0,0.0,0.0,0.0,0.0,0.0,0.0,0.0,0.0,0.0,0.0,0.0,0.0,0.0,0.0,0.0,0.0,0.0,0.0,0.0,0.0,0.0,0.0,0.0,0.0,0.0,0.0,0.0,0.0,0.0,0.0,0.0,0.0,0.0,0.0,0.0,0.0,0.0,0.0,0.0,0.0,0.0,0.0,0.0,0.0,0.0,0.0,0.0,0.0,0.0,0.0,0.0,0.0,0.0,0.0,0.0,0.0,0.0,0.0,0.0,0.0,0.0,0.0,0.0,0.0,0.0,0.0,0.0,0.0,0.0,0.0,0.0,0.0,0.0,0.0,0.0,0.0,0.0,0.0,0.0,0.0,0.0,0.0,0.0,0.0,0.0,0.0,0.0,0.0,0.0,0.0,0.0,0.0,0.0,0.0,0.0,1.1167,1.1186,1.1223,1.1353,1.1223,1.07,1.0426,1.0032,0.9435,0.8994,0.0,0.0,0.0,0.0,0.0,0.0,0.0,0.0,0.0,0.0,0.0,0.0,0.0,0.0,0.0,0.0,0.0,0.0,0.0,0.0,0.0,0.0,0.0,0.0,0.0,0.0,0.0,0.0,0.0,0.0,0.0,0.0,0.0,0.0,0.0,0.0,0.0,0.0,0.0,0.0,0.0,0.0,0.0,0.0,0.0,0.0,0.0,0.0,0.0,0.0,0.0,0.0,0.0,0.0,0.0,0.0,0.0,0.0,0.0,0.0,0.0,0.0,0.0,0.0,0.0,0.0,0.0,0.0,0.0,0.0,0.0,0.0,0.0,0.0,0.0,0.0,0.0,0.0,0.0,0.0,0.0,0.0,0.0,0.0,0.0,0.0,0.0,0.0,0.0,0.0,0.0,0.0,0.0,0.0,0.0,0.0,0.0,0.0,0.0,0.0,0.0,0.0,1.1093,1.0999,0.0,1.0794,1.0644,1.0161,1.0062,0.9642,0.8789,0.0,0.0,0.0,0.0,0.0,0.0,0.0,0.0,0.0,0.0,0.0,0.0,0.0,0.0,0.0,0.0,0.0,0.0,0.0,0.0,0.0,0.0,0.0,0.0,0.0,0.0,0.0,0.0,0.0,0.0,0.0,0.0,0.0,0.0,0.0,0.0,0.0,0.0,0.0,0.0,0.0,0.0,0.0,0.0,0.0,0.0,0.0,0.0,0.0,0.0,0.0,0.0,0.0,0.0,0.0,0.0,0.0,0.0,0.0,0.0,0.0,0.0,0.0,0.0,0.0,0.0,0.0,0.0,0.0,0.0,0.0,0.0,0.0,0.0,0.0,0.0,0.0,0.0,0.0,0.0,0.0,0.0,0.0,0.0,0.0,0.0,0.0,0.0,0.0,0.0,0.0,0.0,0.0,0.0,0.0,0.0,0.0,0.0,0.0,0.0,0.0,0.0,1.0376,1.0607,1.0532,0.0,0.9906,0.9642,0.9169,0.9022,0.8656,0.7965,0.0,0.0,0.0,0.0,0.0,0.0,0.0,0.0,0.0,0.0,0.0,0.0,0.0,0.0,0.0,0.0,0.0,0.0,0.0,0.0,0.0,0.0,0.0,0.0,0.0,0.0,0.0,0.0,0.0,0.0,0.0,0.0,0.0,0.0,0.0,0.0,0.0,0.0,0.0,0.0,0.0,0.0,0.0,0.0,0.0,0.0,0.0,0.0,0.0,0.0,0.0,0.0,0.0,0.0,0.0,0.0,0.0,0.0,0.0,0.0,0.0,0.0,0.0,0.0,0.0,0.0,0.0,0.0,0.0,0.0,0.0,0.0,0.0,0.0,0.0,0.0,0.0,0.0,0.0,0.0,0.0,0.0,0.0,0.0,0.0,0.0,0.0,0.0,0.0,0.0,0.0,0.0,0.0,0.0,0.0,0.0,0.0,0.0,0.0,0.0,0.0,0.0,0.8941,0.952,0.9652,0.906,0.8632,0.8152,0.754,0.7126,0.6903,0.0,0.0,0.0,0.0,0.0,0.0,0.0,0.0,0.0,0.0,0.0,0.0,0.0,0.0,0.0,0.0,0.0,0.0,0.0,0.0,0.0,0.0,0.0,0.0,0.0,0.0,0.0,0.0,0.0,0.0,0.0,0.0,0.0,0.0,0.0,0.0,0.0,0.0,0.0,0.0,0.0,0.0,0.0,0.0,0.0,0.0,0.0,0.0,0.0,0.0,0.0,0.0,0.0,0.0,0.0,0.0,0.0,0.0,0.0,0.0,0.0,0.0,0.0,0.0,0.0,0.0,0.0,0.0,0.0,0.0,0.0,0.0,0.0,0.0,0.0,0.0,0.0,0.0,0.0,0.0,0.0,0.0,0.0,0.0,0.0,0.0,0.0,0.0,0.0,0.0,0.0,0.0,0.0,0.0,0.0,0.0,0.0,0.0,0.0,0.0,0.0,0.0,0.0,0.837,0.8884,0.8922,0.8037,0.7827,0.7583,0.7107,0.6976,0.6691,0.6228,0.0,0.0,0.0,0.0,0.0,0.0,0.0,0.0,0.0,0.0,0.0,0.0,0.0,0.0,0.0,0.0,0.0,0.0,0.0,0.0,0.0,0.0,0.0,0.0,0.0,0.0,0.0,0.0,0.0,0.0,0.0,0.0,0.0,0.0,0.0,0.0,0.0,0.0,0.0,0.0,0.0,0.0,0.0,0.0,0.0,0.0,0.0,0.0,0.0,0.0,0.0,0.0,0.0,0.0,0.0,0.0,0.0,0.0,0.0,0.0,0.0,0.0,0.0,0.0,0.0,0.0,0.0,0.0,0.0,0.0,0.0,0.0,0.0,0.0,0.0,0.0,0.0,0.0,0.0,0.0,0.0,0.0,0.0,0.0,0.0,0.0,0.0,0.0,0.0,0.0,0.0,0.0,0.0,0.0,0.0,0.0,0.0,0.0,0.0,0.0,0.0,0.0,0.7238,0.7778,0.7836,0.695,0.6853,0.6665,0.6189,0.6135,0.598,0.5573,0.0,0.0,0.0,0.0,0.0,0.0,0.0,0.0,0.0,0.0,0.0,0.0,0.0,0.0,0.0,0.0,0.0,0.0,0.0,0.0,0.0,0.0,0.0,0.0,0.0,0.0,0.0,0.0,0.0,0.0,0.0,0.0,0.0,0.0,0.0,0.0,0.0,0.0,0.0,0.0,0.0,0.0,0.0,0.0,0.0,0.0,0.0,0.0,0.0,0.0,0.0,0.0,0.0,0.0,0.0,0.0,0.0,0.0,0.0,0.0,0.0,0.0,0.0,0.0,0.0,0.0,0.0,0.0,0.0,0.0,0.0,0.0,0.0,0.0,0.0,0.0,0.0,0.0,0.0,0.0,0.0,0.0,0.0,0.0,0.0,0.0,0.0,0.0,0.0,0.0,0.0,0.0,0.0,0.0,0.0,0.0,0.0,0.0,0.0,0.0,0.0,0.0,0.5825,0.6402,0.6556,0.588,0.5825,0.5595,0.5057,0.4998,0.4998,0.4998,0.0,0.0,0.0,0.0,0.0,0.0,0.0,0.0,0.0,0.0,0.0,0.0,0.0,0.0,0.0,0.0,0.0,0.0,0.0,0.0,0.0,0.0,0.0,0.0,0.0,0.0,0.0,0.0,0.0,0.0,0.0,0.0,0.0,0.0,0.0,0.0,0.0,0.0,0.0,0.0,0.0,0.0,0.0,0.0,0.0,0.0,0.0,0.0,0.0,0.0,0.0,0.0,0.0,0.0,0.0,0.0,0.0,0.0,0.0,0.0,-0.1745,0.0,0.0,0.0,0.0,0.0,0.0,0.0,0.0,0.0,0.0,0.0,0.0,0.0,0.0,0.0,0.0,0.0,0.0,0.0,0.0,0.0,0.0,0.0,0.0,0.0,0.0,0.0,0.0,0.0,0.0,0.0,0.0,0.0,0.0,0.0,0.0,0.0,0.0,0.0,0.0,0.0,0.5246,0.5728,0.5883,0.5268,0.519,0.5132,0.5018,0.4998,0.4998,0.4998,0.4998,0.0,0.0,0.0,0.0,0.0,0.0,0.0,0.0,0.0,0.0,0.0,0.0,0.0,0.0,0.0,0.0,0.0,0.0,0.0,0.0,0.0,0.0,0.0,0.0,0.0,0.0,0.0,0.0,0.0,0.0,0.0,0.0,0.0,0.0,0.0,0.0,0.0,0.0,0.0,0.0,0.0,0.0,0.0,0.0,0.0,0.0,0.0,0.0,0.0,0.0,0.0,0.0,0.0,0.0,0.0,0.0,0.0,0.0,0.0,0.0,-0.145,0.0,0.0,0.0,0.0,0.0,0.0,0.0,0.0,0.0,0.0,0.0,0.0,0.0,0.0,0.0,0.0,0.0,0.0,0.0,0.0,0.0,0.0,0.0,0.0,0.0,0.0,0.0,0.0,0.0,0.0,0.0,0.0,0.0,0.0,0.0,0.0,0.0,0.0,0.0,0.0,0.5035,0.5268,0.5343,0.5035,0.4998,0.4998,0.4998,0.4998,0.4998,0.4998,0.4998,0.0,0.0,0.0,0.0,0.0,0.0,0.0,0.0,0.0,0.0,0.0,0.0,0.0,0.0,0.0,0.0,0.0,0.0,0.0,0.0,0.0,0.0,0.0,0.0,0.0,0.0,0.0,0.0,0.0,0.0,0.0,0.0,0.0,0.0,0.0,0.0,0.0,0.0,0.0,0.0,0.0,0.0,0.0,0.0,0.0,0.0,0.0,0.0,0.0,0.0,0.0,0.0,0.0,-0.084,-0.0757,-0.0757,-0.0757,-0.0378,0.0273,-0.0505,-0.0436,0.0179,0.0,0.0,0.0,0.0,0.0,0.0,0.0,0.0,0.0,0.0,0.0,0.0,0.0,0.0,0.0,0.0,0.0,0.0,0.0,0.0,0.0,0.0,0.0,0.0,0.0,0.5012,0.5028,0.0,0.0,0.0,0.0,0.0,0.0,0.0,0.0,0.0,0.0,0.0,0.0,0.5235,0.5137,0.5078,0.5078,0.5078,0.5078,0.5078,0.5078,0.5078,0.5078,0.5078,0.4999,0.0,0.0,0.0,0.0,0.0,0.0,0.0,0.0,0.0,0.0,0.0,0.0,0.0,0.0,0.0,0.0,0.0,0.0,0.0,0.0,0.0,0.0,0.0,0.0,0.0,0.0,0.0,0.0,0.0,0.0,0.0,0.0,0.2491,0.2491,0.0,0.0,0.0,0.0,0.0,0.0,0.0,0.0,0.0,0.0,0.0,0.0,0.0,-0.1314,-0.1192,-0.046,-0.0063,-0.0063,0.0631,0.0968,0.0968,0.0968,0.1032,0.1137,0.1004,0.0,0.1127,0.1002,0.0,0.0,0.0,0.0,0.0,0.0,0.0,0.0,0.0,0.0,0.0,0.0,0.0,0.0,0.0,0.0,0.0,0.0,0.0,0.0,0.0,0.0,0.4998,0.4998,0.5091,0.5185,0.0,0.5086,0.4998,0.4998,0.0,0.0,0.0,0.0,0.0,0.0,0.0,0.0,0.6141,0.5712,0.5343,0.5343,0.5343,0.5343,0.5343,0.5343,0.5343,0.5343,0.5343,0.501,0.424,0.4116,0.0,0.0,0.0,0.0,0.0,0.0,0.0,0.0,0.0,0.0,0.0,0.0,0.0,0.0,0.0,0.0,0.0,0.0,0.0,0.0,0.0,0.0,0.0,0.0,0.0,0.0,0.0,0.0,0.0,0.2491,0.2491,0.2491,0.1448,0.0391,0.0,0.0,0.0,0.0,0.0,0.0,0.0,0.0,0.0,-0.0496,-0.046,-0.0232,0.0257,0.0642,0.084,0.085,0.1766,0.2203,0.2225,0.2744,0.2983,0.2983,0.2983,0.2983,0.2891,0.1764,0.1631,0.2154,0.0,0.0,0.0,0.0,0.3116,0.3074,0.3865,0.3996,0.0,0.0,0.0,0.0,0.0,0.0,0.0,0.0,0.0,0.0,0.0,0.0,0.0,0.5216,0.5272,0.531,0.531,0.5269,0.5216,0.0,0.5216,0.5216,0.5216,0.0,0.0,0.0,0.0,0.5514,0.5803,0.5577,0.5389,0.5389,0.5389,0.5389,0.5389,0.5389,0.5389,0.5389,0.5389,0.5223,0.4845,0.4362,0.3902,0.0,0.0,0.0,0.0,0.0,0.0,0.0,0.0,0.0,0.0,0.0,0.0,0.0,0.0,0.0,0.0,0.0,0.0,0.0,0.0,0.0,0.0,0.0,0.0,0.0,0.0,0.0,0.0,0.2686,0.2743,0.2531,0.2203,0.1578,0.0,0.0,0.0,0.0,0.0,0.0,-0.0163,-0.0125,0.0275,0.1121,0.1169,0.1484,0.2142,0.2143,0.2138,0.215,0.291,0.3267,0.329,0.3978,0.4312,0.4312,0.4312,0.4312,0.4188,0.2683,0.249,0.315,0.315,0.3582,0.4195,0.4233,0.4168,0.4147,0.4796,0.4933,0.491,0.5496,0.0,0.532,0.532,0.0,0.0,0.0,0.0,0.5389,0.5389,0.5389,0.5389,0.5389,0.5414,0.5436,0.5436,0.5608,0.5692,0.0,0.5389,0.5389,0.5389,0.0,0.0,0.0,0.0,0.5546,0.5733,0.5588,0.5485,0.5485,0.5485,0.5485,0.5485,0.5485,0.5485,0.5485,0.5485,0.5485,0.5485,0.4864,0.4488,0.4463,0.0,0.0,0.0,0.0,0.0,0.0,0.0,0.0,0.0,0.0,0.0,0.0,0.0,0.0,0.0,0.0,0.0,0.0,0.0,0.0,0.0,0.0,0.0,0.0,0.0,0.0,0.0,0.0,0.0,0.2607,0.3315,0.0,0.0,0.0,0.0,0.16,0.156,0.1895,0.2647,0.2747,0.3169,0.3972,0.4053,0.4099,0.4148,0.4148,0.415,0.4156,0.42,0.4223,0.4223,0.4287,0.4312,0.4312,0.4312,0.4312,0.4287,0.419,0.4136,0.4123,0.4123,0.4161,0.4297,0.5108,0.5129,0.4861,0.5657,0.5675,0.536,0.5402,0.5417,0.5394,0.5394,0.5396,0.0,0.0,0.5387,0.5389,0.5389,0.5389,0.5389,0.5389,0.5458,0.5497,0.5497,0.6144,0.6461,0.0,0.5389,0.5389,0.5389,0.0,0.5733,0.6438,0.6053,0.5933,0.665,0.6129,0.5694,0.5694,0.5694,0.5694,0.5694,0.5694,0.5694,0.5694,0.5694,0.5694,0.5694,0.5647,0.5549,0.5435,0.5389,0.0,0.0,0.0,0.0,0.0,0.0,0.0,0.0,0.0,0.0,0.0,0.0,0.0,0.0,0.0,0.0,0.0,0.0,0.0,0.0,0.0,0.0,0.0,0.0,0.0,0.0,0.0,0.0,0.3681,0.4408,0.0,0.3354,0.3544,0.3621,0.3326,0.3305,0.3438,0.3716,0.3794,0.3972,0.4262,0.4293,0.4312,0.4312,0.4312,0.4312,0.4312,0.4914,0.5206,0.5225,0.5827,0.6093,0.6093,0.6093,0.6093,0.6093,0.6093,0.5733,0.5168,0.5168,0.5539,0.609,0.6266,0.6115,0.5852,0.6009,0.5809,0.5451,0.5417,0.5389,0.5389,0.5389,0.5423,0.5464,0.5464,0.5521,0.5602,0.5602,0.5602,0.5602,0.5602,0.5616,0.5753,0.6227,0.659,0.6835,0.6928,0.6951,0.6951,0.6951,0.6974,0.7076,0.7338,0.7186,0.7,0.6823,0.6561,0.6235,0.5755,0.5688,0.5688,0.5688,0.5688,0.5688,0.5688,0.5688,0.5688,0.5688,0.5688,0.5667,0.5623,0.5623,0.5624,0.0,0.0,0.0,0.0,0.0,0.0,0.0,0.0,0.0,0.0,0.0,0.0,0.0,0.0,0.0,0.0,0.0,0.0,0.0,0.0,0.0,0.0,0.0,0.0,0.0,0.0,0.5028,0.4291,0.5249,0.5633,0.4791,0.4992,0.5182,0.5182,0.5184,0.5179,0.5179,0.5227,0.5245,0.5245,0.5245,0.5245,0.5245,0.5245,0.5245,0.5245,0.5872,0.6163,0.6185,0.6808,0.7095,0.7095,0.7095,0.7095,0.7095,0.7095,0.6741,0.6163,0.6163,0.6542,0.7076,0.6944,0.67,0.6365,0.606,0.5789,0.5556,0.5518,0.5494,0.5494,0.5494,0.5696,0.5931,0.5931,0.6167,0.6412,0.6412,0.6412,0.6412,0.6412,0.6412,0.6542,0.7044,0.7327,0.7636,0.8075,0.7965,0.7812,0.7812,0.7812,0.7812,0.7812,0.7812,0.7636,0.7195,0.7129,0.6956,0.6457,0.6412,0.6412,0.6412,0.6191,0.606,0.606,0.5841,0.5688,0.5688,0.5688,0.5688,0.5688,0.5688,0.5688,0.5688,0.0,0.0,0.0,0.0,0.0,0.0,0.0,0.0,0.0,0.0,0.0,0.0,0.0,0.0,0.0,0.0,0.0,0.0,0.0,0.0,0.0,0.0,0.0,0.4196,0.492,0.5241,0.439,0.5841,0.6607,0.5828,0.6571,0.7095,0.7095,0.7095,0.7095,0.7095,0.7095,0.7098,0.7102,0.7102,0.7102,0.7102,0.7102,0.7102,0.7095,0.7095,0.7095,0.7095,0.7095,0.7095,0.7095,0.7095,0.7095,0.7095,0.7095,0.7117,0.7139,0.7117,0.7095,0.7095,0.7095,0.6808,0.6365,0.5886,0.5755,0.5777,0.5777,0.5777,0.5777,0.5777,0.6257,0.682,0.682,0.7305,0.7812,0.7812,0.7812,0.7812,0.7815,0.7819,0.7819,0.7848,0.842,0.8929,0.8951,0.8376,0.7889,0.7878,0.7878,0.7878,0.7878,0.7878,0.0,0.7834,0.783,0.7834,0.7812,0.7812,0.7812,0.7812,0.7195,0.682,0.682,0.6171,0.5777,0.5777,0.5777,0.5755,0.5733,0.571,0.5688,0.5688,0.0,0.0,0.0,0.0,0.0,0.0,0.0,0.0,0.0,0.0,0.0,0.0,0.0,0.0,0.0,0.0,0.0,0.0,0.0,0.0,0.0,0.0,0.6208,0.536,0.5984,0.6471,0.6328,0.6749,0.695,0.6728,0.6939,0.7095,0.7095,0.7095,0.7095,0.7095,0.7095,0.7168,0.7305,0.7309,0.7309,0.7309,0.7309,0.7251,0.7095,0.7095,0.7095,0.7095,0.7095,0.7095,0.7095,0.7095,0.7095,0.7095,0.7095,0.7511,0.8039,0.736,0.7095,0.7076,0.6944,0.6899,0.6874,0.6583,0.6827,0.7221,0.7221,0.7221,0.7221,0.7221,0.7375,0.7526,0.7526,0.7658,0.7812,0.7812,0.7812,0.7841,0.8035,0.8087,0.8253,0.8897,0.92,0.9502,1.0031,0.9962,0.9736,0.9446,0.9397,0.9397,0.9397,0.9397,0.0,0.8671,0.8601,0.8382,0.7856,0.7812,0.7812,0.7812,0.7636,0.7526,0.7526,0.7331,0.7221,0.7221,0.7221,0.7,0.6517,0.5975,0.5688,0.0,0.0,0.0,0.0,0.0,0.0,0.0,0.0,0.0,0.0,0.0,0.0,0.0,0.0,0.0,0.0,0.0,0.0,0.0,0.0,0.0,0.0,0.8026,0.8199,0.7838,0.7329,0.7004,0.7085,0.7095,0.7095,0.7095,0.7095,0.7095,0.7095,0.7571,0.7853,0.7853,0.8231,0.8501,0.8608,0.851,0.8449,0.8449,0.8449,0.8397,0.8273,0.8273,0.8273,0.8273,0.8273,0.8273,0.0,0.8273,0.8273,0.8273,0.8273,0.8601,0.0,0.0,0.0,0.0,0.0,0.7513,0.7652,0.7451,0.7691,0.8084,0.8084,0.8084,0.8084,0.8084,0.8287,0.8512,0.8512,0.8737,0.8965,0.8965,0.8965,0.9017,0.9175,0.92,0.9344,0.9844,0.9963,1.0079,1.0528,1.0598,0.0,1.0298,1.0255,1.0227,1.0146,1.0132,0.994,0.9432,0.9353,0.92,0.8759,0.8715,0.8715,0.8715,0.8448,0.0,0.0,0.0,0.7812,0.7812,0.7526,0.0,0.0,0.0,0.5808,0.5859,0.0,0.0,0.0,0.5805,0.5811,0.0,0.0,0.0,0.0,0.0,0.0,0.0,0.0,0.0,0.0,0.0,0.0,0.0,0.0,0.0,0.0,0.9809,1.0438,1.067,0.8867,0.7491,0.7476,0.7433,0.743,0.7447,0.7451,0.7451,0.7451,0.8446,0.9044,0.9019,0.0,0.0,0.0,0.0,0.9939,0.9939,0.9939,0.9924,0.9901,0.9901,0.9901,0.9901,0.9901,0.9901,0.9901,0.9901,0.9901,0.9901,0.9901,0.9923,0.9857,0.8544,0.8544,0.917,0.8522,0.8435,0.8627,0.8382,0.0,0.0,0.8746,0.8746,0.8746,0.8746,0.9142,0.9634,0.9634,1.0102,1.0598,1.0598,1.0598,1.0602,1.0626,1.0636,1.064,1.0659,1.0664,1.0664,1.0664,1.0664,1.0664,1.0664,1.0631,1.0536,1.0356,1.0333,1.0262,1.0089,1.0066,1.0066,1.0066,0.0,0.0,1.0032,0.941,0.9034,0.9056,0.8474,0.8111,0.8111,0.7468,0.7155,0.7289,0.6563,0.6253,0.6367,0.6367,0.6372,0.6384,0.6073,0.5983,0.0,0.0,0.0,0.0,0.0,0.0,0.0,0.0,0.0,0.0,0.0,0.0,0.0,0.0,0.0,1.0352,1.0494,1.0646,1.0689,1.0301,0.9917,0.9714,0.9482,0.9446,0.966,0.9674,0.9674,0.9674,0.9889,0.9923,0.9709,0.9875,1.0042,1.0217,1.0161,1.0138,1.0138,1.0138,1.0053,0.9901,0.0,0.0,0.9901,0.9901,0.9901,0.9901,0.9901,0.9901,0.9901,0.9901,1.0123,1.0393,0.9753,0.9514,0.9453,0.8956,0.9141,0.9579,0.9155,0.9529,1.02,1.02,1.02,1.02,1.02,1.0292,0.0,1.0385,1.0477,1.0598,1.0598,1.0598,1.064,1.0792,1.0834,1.0877,1.1042,1.1075,1.1075,1.1075,1.1075,1.1075,1.1075,1.082,1.0584,1.0546,1.0541,1.0522,1.0479,1.0475,1.0475,1.0475,1.0333,1.0233,1.0233,0.9962,0.9846,1.0018,1.004,1.0058,1.0058,0.9361,0.8986,0.9019,0.835,0.8016,0.8049,0.8049,0.8066,0.8092,0.6694,0.6088,0.0,0.0,0.0,0.0,0.0,0.0,0.0,0.0,0.0,0.0,0.0,0.9807,0.0,0.0,1.1444,1.1584,1.2001,1.2341,1.2484,1.2397,1.1841,1.0633,1.0373,1.0349,1.0486,1.0378,1.0293,1.0293,1.0741,1.0931,1.0814,1.1253,1.1553,1.1655,1.1514,1.145,1.145,1.145,1.1391,1.1289,1.1289,1.1289,1.1289,1.1289,1.1289,1.1289,1.1289,1.1386,1.1505,1.1645,1.1832,1.1999,1.1494,1.0801,1.0098,0.9994,1.0078,1.0223,1.0103,1.043,1.091,1.091,1.091,1.091,1.091,1.091,1.091,1.091,1.091,1.091,1.091,1.091,1.0934,1.1019,1.1047,1.1071,1.1175,1.1194,1.1194,1.1194,1.1194,1.1194,1.1194,1.1023,1.0872,1.0773,1.0759,1.0716,1.0612,1.0598,1.0598,1.0598,1.0508,1.0446,1.0446,1.0369,1.0333,1.0437,1.0541,1.0598,1.0598,0.9894,0.9541,0.9611,0.8898,0.8589,0.8647,0.8647,0.8665,0.867,0.7841,0.7448,0.0,0.0,0.0,0.0,0.0,0.0,0.0,0.8496,0.9285,0.9465,1.0311,1.1058,1.1058,1.1852,1.2603,1.2808,1.3485,1.4057,1.4268,1.4117,1.3333,1.1608,1.1297,1.1267,1.1331,1.1129,1.0985,1.0923,1.1613,1.1993,1.1899,1.2667,1.3105,1.3105,1.293,1.2862,1.2862,1.2862,1.2862,1.2862,1.2862,1.2886,1.294,1.294,1.2964,1.3012,1.2958,1.3037,1.3202,1.3461,1.3501,1.3369,1.2974,1.2009,1.0864,1.101,1.0959,1.08,1.0882,1.1028,1.1194,1.1194,1.1194,1.1194,1.1194,1.1194,1.1194,1.1194,1.1227,1.1255,1.1255,1.1288,1.1316,1.1316,1.1316,1.1316,1.1316,1.1316,1.1316,1.1316,1.1316,1.1316,1.1316,1.1316,1.1236,1.099,1.0953,1.0891,1.074,1.0721,1.0721,1.0721,1.0683,1.064,1.0598,1.0636,1.0659,1.0659,1.0697,1.0721,1.0721,1.0149,0.989,0.9999,0.9421,0.915,0.9266,0.9266,0.9266,0.9266,0.9266,0.9097,0.6295,0.6755,0.6965,0.707,0.7905,0.8712,0.0,0.9657,1.0504,1.0528,1.1478,1.2308,1.2308,1.3259,1.4046,1.41,1.4184,1.4262,1.4292,1.4268,1.4166,1.3921,1.349,1.3278,1.3531,1.3502,1.339,1.3166,1.3239,1.3098,1.2599,1.2923,1.3105,1.3105,1.3298,1.34,1.34,1.34,1.34,1.34,1.34,1.3544,1.3773,1.3773,1.39,1.4105,1.3876,1.3658,1.3473,1.3732,1.3537,1.3069,1.3243,1.2689,1.1706,1.1386,1.1368,1.1427,1.1029,1.1028,1.1194,1.1194,1.1194,1.1194,1.1194,1.1194,1.1194,1.1194,1.1335,1.1482,1.1482,1.1589,1.1721,1.1721,1.1721,1.1721,1.1721,1.1721,1.1721,1.1721,1.1721,1.1721,1.1721,1.1721,1.1589,1.1222,1.1161,1.1151,1.1127,1.1127,1.1127,1.1127,1.0967,1.0783,1.0612,1.0749,1.0858,1.0858,1.1028,1.1127,1.1127,1.105,1.1015,1.1038,1.096,1.0925,1.0924,1.0924,1.0924,1.0924,1.0924,1.0158,0.7504,0.788,0.8084,0.8781,0.9334,0.979,1.0061,1.0977,1.1765,1.1842,1.276,1.3559,1.3559,1.3957,1.4298,0.0,1.4298,1.4298,1.4298,1.4298,1.4298,1.4298,1.4477,1.4478,1.417,1.3996,1.3924,1.3966,1.3827,1.3713,1.3634,1.4233,1.4549,1.4549,1.512,1.5428,1.5428,1.5428,1.5428,1.5428,1.5428,1.5471,1.5584,1.5584,1.5658,1.5771,1.5794,1.5493,1.4964,1.4861,1.4386,1.3715,1.3861,1.3676,1.3184,1.2201,1.1687,1.152,1.1442,1.1487,1.1557,1.1557,1.1557,1.1557,1.1557,1.1557,1.1679,1.236,1.2602,1.2826,1.3474,1.3723,1.3769,1.3769,1.3769,1.3769,1.3769,1.3769,1.3769,1.3769,1.3769,1.3769,1.3769,1.3769,1.3723,1.3543,1.24,1.1557,1.1557,1.1458,1.1335,1.1208,1.1118,1.1033,1.0967,1.1019,1.1071,1.1071,1.1146,1.1194,1.1194,1.1194,1.1194,1.1194,1.1194,1.1194,1.1194,1.1194,1.1194,1.1198,1.1326,1.1004,0.864,0.895,0.9199,1.0077,1.061,1.1004,1.1334,1.2223,1.3014,1.311,1.3757,1.4298,1.4298,1.4298,1.4298,1.4298,1.4466,1.4604,1.4604,1.4795,1.4938,1.4938,1.5415,1.5566,1.5111,1.4893,1.4823,1.4949,1.4872,1.4853,1.498,1.5667,1.6048,1.6048,1.6689,1.7018,1.7018,1.7018,1.7018,1.7018,1.7018,1.706,1.7121,1.7213,1.7206,1.7135,1.733,1.7036,1.6431,1.6254,1.5682,1.4891,1.5027,1.4948,1.4616,1.3607,1.2908,1.2542,1.27,1.273,1.273,1.273,1.273,1.273,1.273,1.273,1.291,1.3749,1.4009,1.4239,1.5071,1.5355,1.5384,1.5384,1.5384,1.5384,1.5384,1.5384,1.5384,1.5384,1.5384,1.5384,1.5384,1.5384,1.5384,1.5384,1.3994,1.2873,1.2746,1.2618,1.246,1.2311,1.2296,1.2296,1.2296,1.2029,1.1806,1.1771,1.1451,1.1255,1.1198,1.1194,1.1222,1.1283,1.1283,1.1312,1.1368,1.1368,1.1368,1.1368,1.1504,1.1575,0.9853,1.0056,1.0244,1.0293,1.1385,1.2447,1.244,1.3387,1.4238,1.4244,1.4274,1.4298,1.4298,1.4298,1.4298,1.4298,1.489,1.5361,1.5361,1.6038,1.6534,1.6534,1.6541,1.667,0.0,1.7019,1.6892,1.6652,1.6912,1.6995,1.6737,1.6998,1.7136,1.7136,1.7425,1.758,1.758,1.758,1.758,1.758,1.758,1.771,1.7981,1.8226,1.8217,1.7974,1.7981,1.7819,1.7566,1.7818,1.7408,1.6646,1.6925,1.6553,1.5864,1.5798,1.5493,1.5097,1.5078,1.5109,1.5109,1.5109,1.5109,1.5109,1.5109,1.5109,1.5109,1.5134,1.5277,1.5457,1.5483,1.567,1.589,1.589,1.589,1.589,1.589,1.589,1.589,1.589,1.589,1.589,1.589,1.589,1.589,1.589,1.581,1.5624,1.515,1.5103,1.5097,1.5085,1.5085,1.5085,1.5085,1.4058,1.3355,1.3137,1.2094,1.1391,1.1203,1.1194,1.1293,1.148,1.1485,1.1579,1.1773,1.1773,1.1773,1.1773,1.1777,1.1782,1.0669,1.1029,1.1425,1.222,1.2923,1.3479,1.3648,1.4016,1.4298,1.4298,1.4298,1.4298,1.4298,1.4699,1.5034,1.5034,1.57,1.6197,1.6197,1.6416,1.6612,1.6612,1.7232,0.0,0.0,0.0,0.0,1.7549,1.7675,1.7756,1.7868,1.8513,1.8868,1.8868,1.9454,1.9793,1.9793,1.9793,1.9793,1.9793,1.9793,1.9829,1.9944,2.0007,1.9999,1.991,1.991,1.9568,1.8961,1.8457,1.774,1.7003,1.7325,1.7285,1.712,1.7891,1.8048,1.7714,1.619,1.5668,1.5668,1.5668,1.5668,1.5668,1.5668,1.5668,1.5825,1.6567,1.6853,1.7056,1.7819,1.8077,1.8153,1.8153,1.8153,1.8153,1.8153,1.8153,1.8153,1.8153,1.8153,1.8153,1.8153,1.8153,1.8153,1.8153,1.6876,1.5781,1.543,1.5407,1.5341,1.5203,1.521,1.521,1.521,1.4856,1.4599,1.453,1.3456,1.2796,1.2743,1.201,1.1617,1.1688,1.1692,1.1725,1.1791,1.1791,1.1791,1.1791,1.1938,1.2004,1.1644,1.2069,1.2585,1.3623,1.3964,1.4158,1.459,1.4484,1.4364,1.4627,1.4699,1.4826,1.5233,1.5678,1.6047,1.6178,1.6831,1.7342,1.7342,1.7605,1.7772,1.7772,1.8381,1.8845,0.0,0.0,0.0,1.8824,1.8964,1.91,1.9268,1.9828,2.0119,2.0119,2.0634,2.0899,2.0899,2.0899,2.0899,2.0899,2.0899,2.0899,2.0899,2.0899,2.0899,2.0899,2.0899,2.0609,2.0094,1.9424,1.8767,1.8185,1.8311,1.8291,1.8298,1.9037,1.9305,1.9089,1.7615,1.7114,1.7114,1.7114,1.7114,1.7114,1.7114,1.7114,1.7272,1.8003,1.822,1.8377,1.9116,1.9305,1.9305,1.9305,1.9305,1.9305,1.9305,1.9305,1.9305,1.9305,1.9305,1.9305,1.9305,1.9305,1.9305,1.9305,1.8042,1.7049,1.6892,1.6866,1.682,1.6682,1.6663,1.6663,1.6663,1.6298,1.603,1.5948,1.4852,1.4176,1.4112,1.3392,1.2869,1.2515,1.2515,1.2351,1.2013,1.2013,1.225,1.267,1.2793,1.3066,1.2823,1.3219,1.3785,1.4498,1.4541,1.4604,1.5296,1.4914,1.4634,1.532,1.5469,1.5823,1.6894,1.715,1.7287,1.7609,1.8284,1.8759,1.8759,1.9421,1.9892,0.0,0.0,0.0,0.0,0.0,0.0,2.0416,0.0,2.0899,2.0899,2.0899,2.0899,2.0899,2.0899,2.0899,2.0899,2.0899,2.0899,2.0899,2.0899,2.0899,2.0899,2.0899,2.0899,2.0899,2.0899,2.0899,2.0873,2.0591,2.0326,2.0078,1.9783,1.9532,1.9305,1.9305,1.9305,1.9305,1.9305,1.9305,1.9305,1.9305,1.9305,1.9305,1.9305,1.9305,1.9305,1.9305,1.9305,1.9305,1.9305,1.9305,1.9305,1.9305,1.9305,1.9305,1.9305,1.9305,1.9305,1.9305,1.9305,1.9305,1.9305,1.9305,1.9305,1.9305,1.9305,1.9305,1.9305,1.9305,1.9305,1.9305,1.9305,1.9305,1.9305,1.8325,1.7619,1.7406,1.6265,1.5527,1.5341,1.5278,1.4812,1.3908,1.3919,1.3476,1.2572,1.2572,1.3164,1.4304,1.4304,1.4884,1.4423,1.4847,1.517,1.5659,1.5893,1.6062,1.6251,1.6157,1.6062,1.6251,1.6487,1.6756,1.705,1.7748,1.8312,1.8417,1.9079,0.0,1.9592,1.9763,0.0,1.9892,2.0123,2.0314,2.0384,2.0631,0.0,0.0,2.0843,2.0899,2.0899,2.0899,2.0899,2.0899,2.0899,2.0899,2.0899,2.0899,2.0899,2.0899,2.0899,2.0899,2.0899,2.0899,2.0899,2.0899,2.0899,2.0899,2.0865,2.0395,2.0163,2.0053,1.9576,1.935,1.9305,1.9305,1.9305,1.9305,1.9305,1.9305,1.9305,1.9305,1.9305,1.9305,1.9305,1.9305,1.9305,1.9305,1.9305,1.9305,1.9305,1.9305,1.9305,1.9305,1.9305,1.9305,1.9305,1.9305,1.9305,1.9305,1.9305,1.9305,1.9305,1.9305,1.9305,1.9305,1.9305,1.9305,1.9305,1.9305,1.9305,1.9305,1.9305,1.9305,1.9305,1.9037,1.8845,1.8785,1.7704,1.7036,1.6984,1.6161,1.5607,1.5361,1.5361,1.5258,1.5007,1.5007,1.5167,1.5461,1.5461,1.5621,1.514,1.5577,1.6001,1.6542,1.6645,1.6676,1.7021,1.684,1.6699,1.7021,1.7361,1.7741,1.8243,1.8941,1.9495,1.9649,2.0055,2.0354,2.0354,2.0354,2.0354,2.0354,2.0504,0.0,2.0623,2.078,2.0899,0.0,2.0899,2.0899,2.0899,2.0899,2.0899,2.0899,2.0899,2.0899,2.0899,2.0899,2.0899,2.0899,2.0899,2.0899,2.0899,2.0899,2.0899,2.0899,0.0,2.0899,2.0865,2.0454,2.0215,2.0053,1.9628,1.9402,1.9305,1.9305,1.9305,1.9305,1.9305,1.9305,1.9305,1.9305,1.9305,1.9305,1.9305,1.9305,1.9305,1.9305,1.9305,1.9305,1.9305,1.9305,1.9305,1.9305,1.9305,1.9305,1.9305,1.9305,1.9305,1.9305,1.9305,1.9305,1.9305,1.9305,1.9305,1.9305,1.9305,1.9305,1.9305,1.9305,1.9305,1.9305,1.9305,1.9305,1.9305,1.9305,1.9305,1.9305,1.8691,1.8351,1.8351,1.7726,1.7167,1.6664,1.6638,1.6399,1.5888,1.5888,1.6154,1.6638,1.6638,1.6902,1.5662,1.6071,1.6638,1.7326,1.719,1.7052,1.7692,1.7349,1.7075,1.7715,1.8156,1.8728,1.9732,2.0219,2.0567,2.0843,2.0899,2.0899,2.0899,2.0899,2.0899,2.0899,2.0899,2.0899,2.0899,2.0899,2.0899,2.0899,2.1019,2.1045,2.0899,2.0899,2.0899,2.0899,2.0899,2.0899,2.0899,2.0899,2.0899,2.0899,2.0899,2.0899,2.0899,2.0899,2.0899,2.0899,0.0,0.0,2.0873,2.0565,2.03,2.006,1.9783,1.9506,1.9305,1.9305,1.9305,1.9305,1.9305,1.9305,1.9305,1.9305,1.9305,1.9305,1.9305,1.9305,1.9305,1.9305,1.9305,1.9305,1.9305,1.9305,1.9305,1.9305,1.9305,1.9305,1.9305,1.9305,1.9305,1.9305,1.9342,1.9371,1.9371,1.94,1.943,1.943,1.9393,1.9371,1.9371,1.9327,1.9305,1.9305,1.9305,1.9305,1.9305,1.9305,1.9305,1.9305,1.9305,1.9305,1.9305,1.9305,1.8848,1.7845,1.7819,1.7331,1.634,1.634,1.6869,1.788,1.788,1.8434,1.7538,1.7865,1.8029,1.8432,1.848,1.845,1.8589,1.8519,1.845,1.8589,1.9138,1.9667,1.9852,2.0392,2.0828,2.0883,2.0899,2.0899,2.0899,2.0899,2.0899,2.0899,2.0899,2.0899,2.0899,2.0899,0.0,0.0,0.0,2.1852,2.095,2.0899,2.0899,2.0899,2.0899,2.0899,2.0899,2.0899,2.0899,2.0899,2.0899,2.0899,2.0899,2.0899,2.0899,2.0899,2.0899,0.0,2.0865,2.037,2.0138,2.0053,1.955,1.935,1.9305,1.9305,1.9305,1.9305,1.9305,1.9305,1.9305,1.9305,1.9305,1.9305,1.9305,1.9305,1.9305,1.9305,1.9305,1.9305,1.9305,1.9305,1.9305,1.9305,1.9305,1.9305,1.9305,1.9305,1.9305,1.9305,1.9518,1.9701,1.9701,1.9894,2.0042,2.0042,1.985,1.9701,1.9701,1.9466,1.9305,1.9305,1.9305,1.9305,1.9305,1.9305,1.9305,1.9305,1.9305,1.9305,1.9305,1.9305,1.922,1.9011,1.9011,1.89,1.871,1.871,1.8957,1.9408,1.9408,1.9653,1.8166,1.8438,1.859,1.8765,1.8804,1.8804,1.8804,1.8804,1.8804,1.8804,1.9383,1.9892,1.9892,2.0448,2.0899,2.0899,2.0899,2.0899,2.0899,2.0899,2.1096,2.1674,2.1725,2.1945,2.2509,2.256,2.256,2.256,0.0,2.2861,2.1801,2.2266,2.256,2.256,2.256,2.2291,2.1751,2.1725,2.1445,2.0899,2.0899,2.0899,2.0899,2.0899,2.0899,2.0899,2.0899,0.0,2.0668,2.0403,2.0145,1.9879,1.9602,1.9428,1.9305,1.9305,1.9305,1.9305,1.9305,1.9305,1.9305,1.9305,1.9305,1.9305,1.9305,1.9305,1.9305,1.9305,1.9305,1.9305,1.9305,1.943,1.9554,1.9554,1.9679,1.9777,1.9777,1.9777,1.9777,1.9777,1.9901,2.0011,2.0011,2.0108,2.021,2.021,2.0079,2.0011,2.0011,1.9872,1.9645,1.9334,1.9305,1.9305,1.9305,1.9305,1.9305,1.9305,1.9305,1.9305,1.9305,1.9466,1.9554,1.9554,1.9696,1.9777,1.9777,1.9777,1.9857,2.0011,2.0011,2.0091,1.8414,1.859,1.8804,1.8804,1.8804,1.8804,1.8804,1.8804,1.8804,1.8804,1.9383,1.9892,1.9892,2.0448,2.0899,2.0899,2.0899,2.0899,2.0899,2.1096,2.1547,2.24,2.2694,2.3161,2.4023,2.4088,0.0,2.4088,0.0,0.0,2.2895,2.3651,2.4088,2.4088,2.4088,2.3701,2.2845,2.2845,2.2417,2.159,2.159,2.1471,2.1249,2.1249,2.1121,2.0899,2.0899,0.0,0.0,2.0437,2.0119,1.968,1.9628,1.948,1.9305,1.9305,1.9305,1.9305,1.9305,1.9305,1.9305,1.9305,1.9305,1.9305,1.9305,1.9305,1.932,1.9386,1.9408,1.9422,1.9488,1.9701,1.9891,1.9891,2.0055,2.021,2.021,2.021,2.021,2.021,2.0269,2.0312,2.0312,2.0371,2.0415,2.0415,2.0356,2.0312,2.0312,2.0254,2.002,1.9535,1.9477,1.9477,1.9477,1.9477,1.9477,1.9477,1.9477,1.9477,1.9477,1.9752,1.9891,1.9891,2.0079,2.021,2.021,2.021,2.0247,2.0312,2.0312,2.0349,1.8757,1.8781,1.8804,1.8804,1.8804,1.8804,1.8804,1.8804,1.8804,1.8804,1.9383,1.9892,1.9892,2.0448,2.0899,2.0899,2.0899,2.0899,2.0899,2.1751,2.2375,2.2476,2.3361,2.3989,2.4088,2.4088,2.4088,2.4088,0.0,0.0,2.4014,2.4038,2.4088,2.4088,2.4088,2.4038,2.3939,2.3939,2.389,2.3816,2.3816,2.3302,2.235,2.235,2.1827,2.0899,2.0899,0.0,0.0,2.0248,1.9957,1.968,1.9428,1.9324,1.9305,1.9305,1.9305,1.9305,1.9305,1.9305,1.9305,1.9305,1.9305,1.9305,1.9305,1.9305,1.9364,1.9657,1.9745,1.9811,2.0042,2.0144,2.0166,2.0166,2.0188,2.021,2.021,2.021,2.021,2.021,2.0451,2.0649,2.0649,2.0897,2.1123,2.1123,2.0839,2.0649,2.0649,2.0393,2.0188,2.013,2.0122,2.0122,2.0122,2.0122,2.0122,2.0122,2.0122,2.0122,2.0122,2.0152,2.0166,2.0166,2.0196,2.021,2.021,2.021,2.0364,2.0649,2.0649,2.0809,1.8804,1.8804,1.8804,1.8804,1.8804,1.8804,1.8804,1.8804,1.8804,1.8804,1.9383,1.9892,1.9892,2.0448,2.0899,2.0899,2.0899,2.1121,2.1776,2.2224,2.297,2.4254,2.4796,2.5309,0.0,0.0,2.6022,2.6022,0.0,0.0,2.6047,2.6022,2.6022,2.6022,2.6022,2.5722,2.5065,2.5065,2.4737,2.4088,2.4088,2.3874,2.3452,2.3452,2.2802,2.1624,2.1624,0.0,0.0,1.9913,1.9706,1.9454,1.935,1.9305,1.9305,1.9305,1.9305,1.9305,1.9305,1.9305,1.9334,1.9532,1.9598,1.9598,1.9598,1.9703,1.9879,2.0011,2.0047,2.0077,2.0174,2.0356,2.0546,2.0744,2.0795,2.0795,2.0795,2.0795,2.0795,2.0795,2.0897,2.0985,2.0985,2.1123,2.1211,2.1211,2.1101,2.0985,2.0985,2.0875,2.0795,2.0795,2.0444,2.021,2.021,2.021,2.021,2.021,2.021,2.021,2.021,2.04,2.0502,2.0502,2.0692,2.0795,2.0795,2.0795,2.086,2.0985,2.0985,2.1086,1.8804,1.8804,1.8804,1.8804,1.8804,1.8804,1.8804,1.8804,1.8804,1.8804,1.9383,1.9892,1.9892,2.0448,2.0899,2.0899,2.1173,2.1649,2.24,2.3045,2.4016,2.5523,2.5984,2.6476,2.7238,2.7309,2.7309,2.7309,0.0,0.0,2.7309,2.7309,2.7309,2.7309,2.7309,2.6942,2.6187,2.6177,2.5781,2.5056,2.5056,2.4884,2.4565,2.4565,2.384,2.2559,0.0,0.0,0.0,2.0662,2.0483,2.0207,1.9905,1.9776,1.9732,1.9428,1.9305,1.9305,1.9305,1.9364,1.9488,1.9715,1.992,2.0074,2.0074,2.0135,2.0232,2.0327,2.0422,2.0495,2.0495,2.0663,2.0897,2.1131,2.1211,2.1211,2.1211,2.1211,2.1211,2.1211,2.1211,2.1211,2.1211,2.1211,2.1211,2.1211,2.1211,2.1211,2.1211,2.1211,2.1211,2.1211,2.0773,2.0495,2.0495,2.0495,2.0495,2.0495,2.0495,2.0495,2.0495,2.0714,2.0839,2.0839,2.1094,2.1211,2.1211,2.1211,2.1211,2.1211,2.1211,2.1211,1.8804,1.8804,1.8804,1.8804,1.8804,1.8804,1.8804,1.8804,1.8804,1.8804,1.9383,1.9892,1.9892,2.0448,2.0899,2.0899,2.1801,2.2476,2.2501,2.4338,2.5669,2.5693,2.6644,2.7286,2.7309,2.7309,2.7309,0.0,0.0,0.0,2.7309,2.7309,2.7309,2.7309,2.7309,2.7286,2.7286,2.7286,2.7286,2.7262,2.7262,2.6716,2.5669,2.5669,2.4943,0.0,0.0,0.0,0.0,2.2869,2.2718,2.2366,2.1311,2.0885,2.0757,1.968,1.9305,1.9305,1.9305,1.951,1.9815,1.9789,2.0194,2.0685,2.0685,2.0459,2.0276,2.0597,2.0919,2.1203,2.1203,2.1203,2.1203,2.1211,2.1211,2.1211,2.1211,2.1211,2.1211,2.1211,2.1211,2.1211,2.1211,2.1211,2.1211,2.1211,2.1211,2.1211,2.1211,2.1211,2.1211,2.1211,2.1175,2.1203,2.1203,2.1203,2.1203,2.1203,2.1203,2.1203,2.1203,2.1203,2.1175,2.1175,2.1211,2.1211,2.1211,2.1211,2.1211,2.1211,2.1211,2.1211,1.8804,1.8804,1.8804,1.8804,1.8804,1.8804,1.8804,1.8804,1.8804,1.8804,1.9383,1.9892,1.9892,2.0448,2.1147,2.1869,2.2274,2.302,2.4486,2.527,2.596,2.6716,2.7085,2.7309,0.0,0.0,2.7309,0.0,0.0,0.0,2.7309,2.7309,2.7309,2.7309,2.7309,2.7309,2.7309,2.7309,2.7309,2.7309,2.7309,2.7109,2.6798,2.6592,0.0,0.0,0.0,0.0,0.0,2.1836,2.1489,2.1311,2.0233,1.9809,1.9783,1.9428,1.9305,1.9334,1.9554,1.9701,1.9862,2.0274,2.0524,2.0736,2.0955,2.0984,2.0925,2.0999,2.113,2.1211,2.1211,2.1211,2.1211,2.1211,2.1211,2.1211,2.1211,2.1211,2.1211,2.1211,2.1211,2.1211,2.1211,2.1211,2.1211,2.1211,2.1211,2.1211,2.1211,2.1211,2.1211,2.1211,2.1211,2.1211,2.1211,2.1211,2.1211,2.1211,2.1211,2.1211,2.1211,2.1211,2.1211,2.1211,2.1211,2.1211,2.1211,2.1211,2.1211,2.1211,2.1211,2.1211,1.8804,1.8804,1.8804,1.8804,1.8804,1.8804,1.8804,1.8804,1.8844,1.9002,1.9503,2.0046,2.059,2.1154,2.1844,2.2936,2.3436,2.4156,2.5523,2.6057,2.6548,2.7228,2.7309,0.0,0.0,2.7309,0.0,0.0,0.0,0.0,2.7309,2.7309,2.7309,2.7309,2.7309,2.7309,2.7309,2.7309,2.7309,2.7309,2.7309,2.7238,2.7153,2.6972,0.0,0.0,0.0,0.0,0.0,2.2542,2.2114,2.2013,2.0936,2.0508,2.0457,2.0053,1.9905,1.9899,1.983,1.9869,2.0025,2.0524,2.1102,2.1517,2.1259,2.1211,2.1211,2.1211,2.1211,2.1211,2.1211,2.1211,2.1211,2.1211,2.1211,2.1211,2.1211,2.1211,2.1211,2.1211,2.1211,2.1211,2.1211,2.1211,2.1211,2.1211,2.1211,2.1211,2.1211,2.1089,2.0996,2.0996,2.091,2.0859,2.0859,2.106,2.1211,2.1211,2.1211,2.1211,2.1211,2.1211,2.1211,2.1211,2.1211,2.1211,2.1211,2.1211,2.1211,2.1211,2.1211,2.1211,0.0,1.8804,1.8804,1.8804,1.8804,1.8804,1.8804,1.882,0.0,1.9328,1.975,2.046,2.177,2.2344,2.297,2.4048,2.5041,2.5718,2.579,2.6668,2.7309,2.7309,2.7309,0.0,2.7309,2.7309,0.0,0.0,0.0,0.0,2.7309,2.7309,2.7309,2.7309,2.7309,2.7309,2.7309,2.7309,2.7309,2.7309,2.7309,2.7177,2.6924,2.69,2.6602,0.0,0.0,0.0,0.0,2.4526,2.4088,2.3989,2.291,2.2484,2.2391,2.1387,2.1029,2.0972,2.0302,2.0192,2.04,2.0647,2.1701,2.2644,2.1539,2.1268,2.1318,2.1211,2.1211,2.1211,2.1211,2.1211,2.1211,2.1211,2.1211,2.1211,2.1211,2.1211,2.1211,2.1211,2.1211,2.1211,2.1211,2.1211,2.1182,2.1182,2.1182,2.1182,2.1182,2.0902,2.0716,2.0687,2.0465,2.0328,2.0299,2.0831,2.1153,2.1153,2.1182,2.1211,2.1211,2.1211,2.1211,2.1211,2.1211,2.1211,2.1211,2.1211,2.1211,2.1211,2.1211,2.1211,1.8804,0.0,1.8804,1.8804,1.8804,1.8804,0.0,1.9042,1.9296,1.9375,2.0514,2.1614,2.1944,2.2947,2.4072,2.5148,2.5548,2.5984,2.6822,2.7132,2.7309,2.7309,2.7309,2.7309,2.7309,2.7309,0.0,0.0,0.0,2.7309,2.7309,2.7309,2.7309,2.7309,2.7309,2.7309,2.7309,2.7309,2.7309,2.7309,2.7309,2.7262,2.719,2.6794,2.653,0.0,0.0,0.0,2.5611,2.4526,2.4088,2.3989,2.291,2.2484,2.2467,2.2215,2.2316,2.2603,2.2693,2.2379,2.1844,2.1267,2.1344,2.1567,2.1296,2.1845,2.2369,2.1461,2.1211,2.1211,2.1211,2.1211,2.1211,2.1211,2.1211,2.1211,2.1211,2.1211,2.1211,2.1211,2.1211,2.1211,2.1211,2.1211,2.1117,2.0874,2.1024,2.1117,2.0845,2.0967,2.0996,2.0716,2.063,2.0522,2.0328,2.0615,2.0809,2.0809,2.106,2.1211,2.1211,2.1211,2.1211,2.1211,2.1211,2.1211,2.1211,2.1211,2.1211,2.1211,2.1211,2.1211,1.8804,1.8804,1.8804,1.8804,1.8804,1.8852,1.9042,1.9233,1.963,2.044,2.1339,2.2348,2.348,2.4327,2.5187,2.625,2.6428,2.6691,2.7459,2.7586,2.7669,2.7876,2.7721,2.7586,0.0,0.0,0.0,0.0,0.0,2.7309,2.7309,2.7309,2.7309,2.7309,2.7309,2.7309,2.7309,2.7309,2.7309,2.7309,2.7309,2.7238,2.7105,2.6688,2.6424,0.0,0.0,0.0,2.5611,2.4526,2.4088,2.4038,2.3459,2.3235,2.3261,2.3481,2.3346,2.3074,2.3098,2.2559,2.1933,2.2011,2.2044,2.2044,2.2044,2.2482,2.2757,2.1539,2.1211,2.1211,2.1211,2.1211,2.1211,2.1211,2.1211,2.1211,2.1211,2.1211,2.1211,2.1211,2.1211,2.1146,2.0996,2.0967,2.0874,2.0551,2.0673,2.0709,2.0551,2.0529,2.0479,2.0328,2.0184,2.004,1.9909,2.0126,2.0349,2.0493,2.068,2.0852,2.0967,2.0967,2.1024,2.1211,2.1211,2.1211,2.1211,2.1211,2.1211,2.1211,2.1211,2.1211,1.8804,1.8804,1.8804,1.8804,1.8804,1.89,1.9312,1.9574,2.0141,2.1669,2.2299,2.3215,2.53,2.5839,2.6235,2.7156,2.7309,2.7441,2.7838,2.79,2.8045,2.8438,2.8138,0.0,2.7796,0.0,0.0,0.0,0.0,2.7309,2.7309,2.7309,2.7309,2.7309,2.7309,2.7309,2.7309,2.7309,2.7309,2.7309,2.7309,2.7167,2.6948,2.664,2.6376,2.6149,0.0,0.0,2.5635,2.4707,2.4344,2.4344,2.4344,2.4344,2.4375,2.4649,2.4162,2.3246,2.2746,2.2101,2.1653,2.268,2.3002,2.303,2.3199,2.3247,2.3059,2.2008,2.1489,2.1211,2.1211,2.1211,2.1211,2.1211,2.1211,2.1211,2.1211,2.1211,2.1211,2.1211,2.1153,2.1024,2.0752,2.0666,2.0551,2.027,2.027,2.027,2.0241,2.0011,1.9873,1.9815,1.9591,1.9453,1.9395,1.962,1.9873,2.0133,2.0241,2.0414,2.0637,2.063,2.078,2.1067,2.1089,2.1089,2.1067,2.1089,2.1117,2.1117,2.1089,2.1118,1.8804,1.8804,1.8804,1.8804,1.8804,1.89,1.9312,2.0315,2.1335,2.1892,2.3678,2.5242,2.5635,2.6452,2.7109,2.7262,2.7309,2.7441,0.0,0.0,2.7921,2.8003,0.0,2.7769,0.0,0.0,0.0,0.0,0.0,2.7309,2.7309,2.7309,2.7309,2.7309,2.7309,2.7309,2.7309,2.7309,2.7309,2.7309,2.7309,2.7286,2.7214,2.6736,2.6472,2.64,0.0,2.5693,2.5693,2.5504,2.5455,2.5455,2.5455,2.5455,2.5381,2.4841,2.4734,2.4682,2.3359,2.285,2.2757,2.2954,2.3002,2.3171,2.4153,2.445,2.4394,2.42,2.2721,2.1211,2.1211,2.1211,2.1211,2.1211,2.1211,2.1211,2.1211,2.1211,2.1211,2.1211,2.0967,2.0752,2.0716,2.0522,2.0241,1.9931,2.0126,2.0184,1.9895,2.0075,2.0097,1.9844,1.9758,1.9649,1.9424,1.9453,1.9482,1.954,2.0018,2.0328,2.0357,2.0357,2.0385,2.0443,2.0666,2.0673,2.0443,2.0673,2.078,2.078,2.0529,2.0714,1.8804,1.8804,1.8852,1.9074,1.9121,1.9373,2.0314,2.0741,2.1481,2.3578,2.4444,2.5187,2.6356,2.6965,2.7309,2.7309,0.0,2.7524,2.8193,2.8055,2.8086,0.0,0.0,0.0,0.0,0.0,0.0,0.0,0.0,0.0,2.7309,2.7309,2.7309,2.7309,2.7309,2.7309,2.7309,2.7309,2.7309,2.7309,2.7309,2.7214,2.7081,2.6675,2.6424,2.6269,0.0,2.5693,2.5693,2.5693,2.5693,2.5737,2.5971,2.5669,2.497,2.3791,2.3629,2.392,2.3246,2.3002,2.3199,2.4475,2.4439,2.4125,2.5323,2.5232,2.4699,2.4699,2.393,2.2938,2.2341,2.2178,2.2015,2.1346,2.1211,2.1211,2.1211,2.1211,2.1211,2.1211,2.1089,2.0874,2.0551,2.0385,2.0133,1.9649,1.9707,1.9764,1.9591,1.9735,1.9764,1.9591,1.9591,1.9533,1.9424,1.9395,1.9395,1.9395,1.9793,2.0046,2.0046,2.0184,2.0299,2.0299,2.0414,2.0414,2.0299,2.0414,2.0465,2.0472,2.0496,2.0658,1.8804,1.8804,1.8892,1.9304,1.9399,1.9709,2.0966,2.1186,2.1932,2.476,2.5056,2.5348,2.7013,2.7309,2.7309,2.7309,2.7309,2.7565,2.8338,2.8127,2.8158,2.8897,0.0,0.0,0.0,0.0,0.0,0.0,0.0,0.0,2.7309,2.7309,2.7309,2.7309,2.7309,2.7309,2.7309,2.7309,2.7309,2.7309,2.7309,2.7153,2.69,2.6626,2.6342,2.61,2.583,2.5693,2.5693,2.5693,2.5767,2.5893,2.626,2.561,2.438,2.3463,2.3088,2.3002,2.3002,2.3171,2.3695,2.5488,2.5653,2.5342,2.6545,2.6291,2.5526,2.5526,2.5526,2.5196,2.3771,2.3388,2.3115,2.1902,2.1624,2.1539,2.1268,2.1211,2.1211,2.1211,2.1146,2.091,2.0392,2.0241,1.9989,1.9482,1.9395,1.9395,1.9395,1.9395,1.9395,1.9395,1.9395,1.9395,1.9395,1.9395,1.9395,1.9395,1.9591,1.9707,1.9707,1.996,2.0104,2.0104,2.0155,2.0155,2.0104,2.0231,2.0295,2.0302,2.0491,2.0664,1.8804,1.8804,1.8892,1.9304,1.9399,1.959,2.0301,2.1992,2.3529,2.4104,2.5746,2.7109,2.7262,2.7309,2.7309,2.7309,2.7309,2.7451,2.7879,0.0,2.7921,2.7993,0.0,0.0,0.0,0.0,0.0,0.0,0.0,0.0,2.7309,2.7309,2.7309,2.7309,2.7309,2.7309,2.7309,2.7309,2.7309,2.7309,2.7309,2.7153,2.69,2.6626,2.6342,2.61,2.583,2.5693,2.5693,2.5693,2.5952,2.6348,2.6402,2.5463,2.4263,2.5281,2.4518,2.3002,2.3002,2.3687,2.4616,2.4782,2.5534,2.6609,2.7799,2.8094,2.804,2.804,2.804,2.7511,2.5168,2.4588,2.4292,2.3143,2.2869,2.2567,2.1432,2.1211,2.1211,2.1211,2.096,2.0637,2.0357,2.004,1.9729,1.9453,1.9395,1.9395,1.9395,1.9395,1.9395,1.9395,1.9395,1.9395,1.9395,1.9395,1.9395,1.9395,1.9424,1.9424,1.9424,1.9453,1.9453,1.9453,1.9707,1.9707,1.9482,2.0015,2.0299,2.0299,2.0271,2.0524,1.8804,1.8971,1.9248,1.9614,1.9869,2.0271,2.1188,2.2182,2.3323,2.4792,2.5732,2.65,2.719,2.7309,2.7309,2.7309,2.7309,2.7441,2.7838,2.7686,2.7614,0.0,0.0,0.0,0.0,0.0,0.0,0.0,0.0,0.0,2.7309,2.7309,2.7309,2.7309,2.7309,2.7309,2.7309,2.7309,2.7309,2.7309,2.7129,2.6914,2.6651,2.6366,2.61,2.5844,2.5732,2.5693,2.5713,2.6001,2.624,2.6386,2.6186,2.5891,2.5549,2.5268,2.4698,2.4153,2.4918,2.547,2.5927,2.6699,2.7241,2.7709,2.8157,2.8291,2.8291,2.8291,2.8291,2.7933,2.6264,2.5817,2.5351,2.3452,2.3002,2.268,2.1461,2.1211,2.1211,2.1211,2.1089,2.0852,2.0385,2.0184,1.996,1.9482,1.9395,1.9395,1.9395,1.9395,1.9395,1.9395,1.9395,1.9395,1.9395,1.9395,1.9395,1.9395,1.9395,1.9395,1.9395,1.9395,1.9395,1.9395,1.9511,1.9511,1.9395,1.9807,2.0007,1.9991,2.0348,2.063,1.8947,1.9185,1.9503,1.9948,2.0234,2.0716,2.1884,2.2604,2.3411,2.4894,2.5742,2.6428,2.7156,2.7309,0.0,0.0,2.7309,2.7389,2.7665,2.7472,2.74,0.0,0.0,0.0,0.0,0.0,0.0,0.0,0.0,0.0,0.0,2.7309,2.7309,2.7309,2.7309,2.7309,2.7309,2.7309,2.7309,2.7309,2.7034,2.6747,2.6496,2.6221,2.5965,2.5693,2.5693,2.5786,2.5942,2.6269,2.6568,2.6814,2.6695,2.6585,2.6445,2.6009,2.5589,2.5397,2.6218,2.6744,2.7133,2.7601,2.7987,2.8291,2.8291,2.8291,2.8291,2.8291,2.8291,2.8104,2.7268,2.6799,2.6,2.3994,2.3247,2.268,2.1461,2.1211,2.1211,2.1211,2.1117,2.0881,2.0392,2.022,1.996,1.9482,1.9395,1.9395,1.9395,1.9395,1.9395,1.9395,1.9395,1.9395,1.9395,1.9395,1.9395,1.9395,1.9395,1.9395,1.9395,1.9395,1.9395,1.9395,1.9395,1.9441,1.9535,1.98,1.9987,2.0087,2.0581,2.0846,1.9296,1.9399,1.9566,2.0226,2.0417,2.0788,2.219,2.3327,2.4113,2.4137,2.5819,2.7309,2.7309,2.7309,0.0,2.7309,2.7309,2.7309,2.7309,2.7309,2.7309,2.7309,0.0,0.0,0.0,0.0,0.0,0.0,0.0,0.0,0.0,2.7309,2.7309,2.7309,2.7309,2.7309,2.7309,2.7309,2.7309,2.7309,2.7034,2.6747,2.6496,2.6221,2.5965,2.5693,2.5693,2.5962,2.6387,2.6396,2.693,2.7741,2.8125,2.7574,2.6663,2.7853,2.7547,2.6527,2.6527,2.7295,2.8094,2.6916,2.7332,2.8291,2.8291,2.8291,2.8291,2.8291,2.8291,2.8291,2.8291,2.7413,2.6191,2.4975,2.3855,2.2672,2.1461,2.1211,2.1211,2.1211,2.0931,2.0601,2.0357,2.0011,1.9707,1.9453,1.9395,1.9395,1.9395,1.9395,1.9395,1.9395,1.9395,1.9395,1.9395,1.9395,1.9395,1.9395,1.9395,1.9395,1.9395,1.9395,1.9395,1.9395,1.9401,1.9542,1.98,2.0064,2.0388,2.0712,2.0975,2.1109,1.9367,1.9749,2.0138,2.0345,2.1145,2.1988,2.24,2.3327,2.4531,2.6047,2.686,2.7309,2.7309,2.7309,0.0,2.7309,2.7309,2.7309,2.7309,2.7309,2.7309,2.7309,0.0,0.0,0.0,0.0,0.0,0.0,0.0,0.0,0.0,2.7309,2.7309,2.7309,2.7309,2.7309,2.7309,2.7309,2.7309,2.7309,2.7034,2.6747,2.6496,2.6221,2.5965,2.5693,2.5693,2.5962,2.646,2.7066,2.7633,2.8125,2.8242,2.8067,2.7799,2.8157,2.8067,2.7772,2.7772,2.7987,2.8237,2.7879,2.8014,2.8291,2.8291,2.8291,2.8291,2.8291,2.8291,2.8291,2.8291,2.6762,2.5141,2.4782,2.445,2.3659,2.1624,2.1211,2.1211,2.1211,2.0931,2.0601,2.0357,2.0011,1.9707,1.9453,1.9395,1.9395,1.9395,1.9395,1.9395,1.9395,1.9395,1.9395,1.9395,1.9395,1.9395,1.9395,1.9395,1.9395,1.9395,1.9395,1.9395,1.9395,1.9602,1.9713,1.98,2.0301,2.0588,2.0712,2.0975,2.1109,1.9558,1.9996,2.0424,2.0567,2.156,2.2719,2.3594,2.4279,2.5212,2.6965,2.7309,2.7309,2.7309,2.7309,0.0,2.7309,2.7309,2.7309,2.7309,2.7309,2.7309,2.7309,0.0,0.0,0.0,0.0,0.0,0.0,0.0,0.0,0.0,2.7655,2.7691,2.7309,2.7309,2.7309,2.7309,2.7309,2.7309,2.7309,2.7153,2.6866,2.6496,2.6221,2.5965,2.5703,2.5893,2.624,2.6689,2.7409,2.7936,2.8291,2.8291,2.8291,2.8291,2.8291,2.8291,2.8291,2.8291,2.8291,2.8291,2.8291,2.8291,2.8291,2.8291,2.8291,2.8291,2.8291,2.8291,2.8291,2.8291,2.7232,2.5891,2.492,2.3986,2.291,2.151,2.1211,2.1153,2.1024,2.0759,2.0436,2.0155,1.9844,1.9591,1.9424,1.9395,1.9395,1.9395,1.9395,1.9395,1.9395,1.9395,1.9395,1.9395,1.9395,1.9395,1.9395,1.9395,1.9395,1.9395,1.9395,1.9395,1.9395,1.9653,1.986,1.9973,2.0448,2.0766,2.0855,2.1029,2.1109,1.9845,2.0195,2.0545,2.0939,2.192,2.332,2.5367,2.5839,2.6129,2.7109,2.7309,2.7309,2.7309,2.7309,2.7309,2.7309,2.7309,2.7309,2.7309,2.7309,2.7309,2.7309,0.0,0.0,0.0,0.0,0.0,0.0,0.0,0.0,0.0,2.8245,2.8269,2.7333,2.7309,2.7309,2.7309,2.7309,2.7309,2.7309,2.7286,2.7,2.6496,2.6245,2.5989,2.5737,2.6201,2.6602,2.6992,2.7497,2.7917,2.8242,2.8281,2.8291,2.8291,2.8291,2.8291,2.8291,2.8291,2.8291,2.8291,2.8291,2.8291,2.8291,2.8291,2.8291,2.8291,2.8291,2.8291,2.8291,2.8291,2.8211,2.7565,2.5251,2.3079,2.1482,2.1375,2.1261,2.106,2.0752,2.0465,2.0162,1.9844,1.9591,1.9395,1.9395,1.9395,1.9395,1.9395,1.9395,1.9395,1.9395,1.9395,1.9395,1.9395,1.9395,1.9395,1.9395,1.9395,1.9395,1.9395,1.9395,1.9408,1.9435,1.9693,1.9987,2.0244,2.0575,2.0855,2.1109,2.1109,2.1109,2.0211,2.0535,2.1,2.1929,2.3585,2.5343,2.6668,2.6965,2.7013,2.7262,2.7309,2.7309,2.7309,2.7309,2.7309,2.7309,2.7309,2.7309,2.7309,2.7309,2.7309,2.7309,0.0,0.0,0.0,0.0,0.0,0.0,0.0,0.0,2.8445,2.8585,2.8269,2.7333,2.7309,2.7309,2.7309,2.7309,2.7309,0.0,2.7081,2.6818,2.6496,2.6448,2.6159,2.5737,2.6201,2.6435,2.6582,2.7379,2.7741,2.7858,2.8191,2.8291,2.8291,2.8291,2.8291,2.8291,2.8291,2.8291,2.8291,2.8291,2.8291,2.8291,2.8291,2.8291,2.8291,2.8291,2.8291,2.8291,2.8291,2.7601,2.6518,2.5058,2.4311,2.3715,2.2813,2.1659,2.078,2.0716,2.0263,1.9873,1.9815,1.9591,1.9395,1.9395,1.9395,1.9395,1.9395,1.9395,1.9395,1.9395,1.9395,1.9395,1.9395,1.9395,1.9395,1.9395,1.9395,1.9395,1.9395,1.9395,1.9502,1.97,1.9993,2.0257,2.0581,2.0875,2.1049,2.1109,2.1109,2.1109,2.0322,2.1025,2.2047,2.3635,2.4879,2.5984,2.7061,2.7309,2.7309,2.7309,2.7309,2.7309,2.7309,2.7309,2.7309,2.7309,2.7309,2.7309,2.7309,2.7309,2.7465,2.7927,0.0,0.0,0.0,0.0,0.0,0.0,0.0,3.0441,2.9475,2.9829,2.9647,2.8713,2.869,2.8468,2.7974,2.7974,2.7739,2.7309,2.7153,2.689,2.6496,2.6241,2.5975,2.5703,2.5952,2.6191,2.6435,2.709,2.7506,2.7731,2.8125,2.8291,2.8291,2.8291,2.8291,2.8291,2.8291,2.8291,2.8291,2.8291,2.8291,2.8291,2.8291,2.8291,2.8291,2.8291,2.8291,2.8291,2.8291,2.7816,2.707,2.5845,2.5113,2.4228,2.251,2.183,2.1338,2.0666,2.0126,1.9758,1.962,1.9475,1.9395,1.9395,1.9395,1.9395,1.9395,1.9395,1.9395,1.9395,1.9395,1.9395,1.9395,1.9395,1.9395,1.9395,1.9395,1.9461,1.9602,1.9602,1.9646,1.98,2.0227,2.0521,2.0706,2.0969,2.1109,2.1109,2.1109,2.1109,2.0369,2.162,2.3245,2.5197,2.5839,2.6201,2.7109,2.7309,2.7309,2.7309,2.7309,2.7309,2.7309,2.7309,2.7309,2.7309,2.7309,2.7309,2.7309,2.7441,2.7833,2.8608,0.0,0.0,0.0,0.0,0.0,0.0,0.0,3.1448,3.0486,3.1169,3.1169,3.0238,3.0192,2.9715,2.8701,2.8701,2.8222,2.7309,2.7214,2.6904,2.64,2.5927,2.5693,2.5693,2.5693,2.5923,2.6309,2.6738,2.7158,2.7624,2.8018,2.8232,2.8291,2.8291,2.8291,2.8291,2.8291,2.8291,2.8291,2.8291,2.8291,2.8291,2.8291,2.8291,2.8291,2.8291,2.8291,2.8291,2.8291,2.8291,2.7933,2.6518,2.5735,2.4616,2.2065,2.1837,2.1765,2.0551,1.9989,1.9649,1.9453,1.9395,1.9395,1.9395,1.9395,1.9395,1.9395,1.9395,1.9395,1.9395,1.9395,1.9395,1.9395,1.9395,1.9395,1.9395,1.9441,1.9582,1.9786,1.99,1.9953,1.9953,2.0458,2.0733,2.0786,2.0995,2.1109,2.1109,2.1109,2.1109,2.067,2.2316,2.4171,2.5392,2.6404,2.7109,2.7262,2.7309,2.7309,2.7309,2.7309,2.7309,2.7309,2.7309,2.7309,2.7309,2.7309,2.7309,2.7309,2.7998,2.8561,2.8678,2.9475,0.0,0.0,0.0,0.0,0.0,3.2831,3.246,3.147,3.1536,3.1169,3.0238,3.0192,2.9715,2.8701,2.8701,2.8222,2.7286,2.6832,2.6448,2.6149,2.5854,2.5693,2.5693,2.5693,2.5747,2.5835,2.6289,2.6719,2.7148,2.7604,2.7995,2.8291,2.8291,2.8291,2.8291,2.8291,2.8291,2.8291,2.8291,2.8291,2.8291,2.8291,2.8291,2.8291,2.8291,2.8291,2.8291,2.8291,2.8291,2.7736,2.548,2.6418,2.6898,2.348,2.1631,2.0551,2.0328,1.9844,1.9453,1.9395,1.9395,1.9395,1.9395,1.9395,1.9395,1.9395,1.9395,1.9395,1.9395,1.9395,1.9395,1.9395,1.9395,1.9395,1.9395,1.9629,1.976,1.98,2.0287,2.0592,2.0592,2.0666,2.0802,2.1049,2.1089,2.1109,2.1109,2.1109,2.1109,2.3136,2.427,2.526,2.6332,2.6942,2.7309,2.7309,2.7309,2.7309,2.7309,2.7309,2.7309,2.7309,2.7309,2.7309,2.7309,2.7309,2.7489,2.8011,2.8456,2.9107,3.0204,3.0722,0.0,0.0,0.0,0.0,0.0,3.3102,3.2918,3.246,3.2438,3.2264,3.1845,3.1823,3.1347,3.0328,3.0328,2.9566,2.8058,2.7013,2.6448,2.6304,2.5902,2.5693,2.5693,2.5693,2.5693,2.5747,2.6211,2.6494,2.6728,2.7428,2.7809,2.7995,2.8203,2.8291,2.8291,2.8291,2.8291,2.8291,2.8291,2.8291,2.8291,2.8291,2.8291,2.8291,2.8291,2.8291,2.8291,2.8291,2.7799,2.7015,2.5954,2.5516,2.4891,2.334,2.2769,2.2027,2.0349,1.9678,1.9395,1.9395,1.9395,1.9395,1.9395,1.9395,1.9395,1.9395,1.9395,1.9395,1.9395,1.9395,1.9395,1.9395,1.9395,1.9395,1.9395,1.9639,1.9873,2.0034,2.0448,2.0786,2.0915,2.0915,2.0982,2.1109,2.1109,2.1109,2.1109,2.1109,2.1109,2.5111,2.5693,2.597,2.7037,2.7309,2.7309,2.7309,2.7309,2.7309,2.7309,2.7309,2.7309,2.7309,2.7309,2.737,2.7631,2.7655,2.7998,2.8945,2.9291,2.9977,3.1426,3.1835,3.2286,0.0,0.0,0.0,0.0,3.3102,3.3102,3.3102,3.3102,3.3102,3.3102,3.3102,3.2624,3.1603,3.1103,3.0023,2.8328,2.7074,2.6496,2.6472,2.5951,2.5693,2.5693,2.5693,2.5693,2.5737,2.6084,2.6289,2.6465,2.7233,2.7594,2.7741,2.8135,2.8291,2.8291,2.8291,2.8291,2.8291,2.8291,2.8291,2.8291,2.8291,2.8291,2.8291,2.8291,2.8291,2.8237,2.7933,2.7413,2.6717,2.5835,2.4725,2.3612,2.2636,2.2874,2.2584,2.0263,1.9591,1.9395,1.9395,1.9395,1.9395,1.9395,1.9395,1.9395,1.9395,1.9395,1.9395,1.9395,1.9395,1.9395,1.9395,1.9395,1.9428,1.9502,1.9746,2.004,2.0334,2.0628,2.0889,2.1109,2.1109,2.1109,2.1109,2.1109,2.1109,2.1109,2.1109,2.1109,2.5382,2.5693,2.597,2.7037,2.7309,2.7309,2.7309,2.7309,2.7309,2.7309,2.7309,2.7309,2.7309,2.7309,2.7584,2.8468,2.8631,2.8979,2.9988,3.0902,3.1492,3.1581,3.2438,3.3047,0.0,0.0,0.0,0.0,3.3102,3.3102,3.3102,3.3102,3.3102,3.3102,3.3102,3.2624,3.1603,2.9761,2.8362,2.7381,2.6784,2.6496,2.6472,2.5951,2.5693,2.5693,2.5693,2.5693,2.5693,2.5737,2.5991,2.6435,2.6875,2.7305,2.7741,2.8135,2.8291,2.8291,2.8291,2.8291,2.8291,2.8291,2.8291,2.8291,2.8291,2.8291,2.8291,2.8291,2.8291,2.804,2.688,2.7413,2.7349,2.3975,2.478,2.5296,2.1616,2.0666,2.0385,1.9895,1.9591,1.9395,1.9395,1.9395,1.9395,1.9395,1.9395,1.9395,1.9395,1.9395,1.9395,1.9395,1.9395,1.9395,1.9395,1.9395,1.9515,1.976,2.0017,2.0341,2.0672,2.0929,2.1096,2.1109,2.1109,2.1109,2.1109,2.1109,2.1109,2.1109,2.1109,2.1109,2.6452,2.6716,2.6822,2.7204,2.7309,2.7309,2.7309,2.7309,2.7309,2.7309,2.7309,2.7309,2.7309,2.7786,2.8315,2.8654,2.9245,2.9988,3.0969,3.1403,3.1845,3.2494,3.2874,3.3102,3.3102,0.0,0.0,0.0,0.0,3.3102,3.3102,3.3102,3.3102,3.3102,3.3102,3.2624,3.1603,3.0306,2.9176,2.8175,2.7027,2.6496,2.6472,2.5951,2.5693,2.5693,2.5693,2.5693,2.5693,2.5693,2.5806,2.5991,2.6445,2.6875,2.7295,2.7761,2.8083,2.8291,2.8291,2.8291,2.8291,2.8291,2.8291,2.8291,2.8291,2.8291,2.8291,2.8291,2.8291,2.8014,2.6799,2.6236,2.5287,2.251,2.3095,2.3667,2.1495,2.0644,2.027,2.0126,1.9735,1.9395,1.9395,1.9395,1.9395,1.9395,1.9395,1.9395,1.9395,1.9395,1.9395,1.9395,1.9562,1.9646,1.9646,1.9813,1.9937,2.0037,2.0354,2.0568,2.0706,2.0955,2.1109,2.1109,2.1109,2.1109,2.1109,2.1109,2.1109,2.1109,2.1109,2.1109,2.7109,2.7309,2.7309,2.7309,2.7309,2.7309,2.7309,2.7309,2.7309,2.7309,2.7309,2.7404,2.7715,2.8561,2.9199,2.9199,3.0034,3.1013,3.1967,3.2098,3.2351,3.3025,3.3102,3.3102,3.3102,3.3102,0.0,0.0,0.0,0.0,3.3102,3.3102,3.3102,3.3102,3.2776,3.212,3.1147,3.017,2.9199,2.8222,2.7156,2.6602,2.6472,2.6048,2.5781,2.5693,2.5693,2.5693,2.5693,2.5693,2.5693,2.5757,2.6221,2.665,2.707,2.7536,2.7956,2.8291,2.8291,2.8291,2.8291,2.8291,2.8291,2.8291,2.8291,2.8291,2.8291,2.8291,2.8291,2.7933,2.6318,2.4708,2.3219,2.2065,2.2093,2.2178,2.1375,2.0744,2.0299,2.0299,1.9822,1.9395,1.9395,1.9395,1.9395,1.9395,1.9395,1.9395,1.9395,1.9481,1.9542,1.9542,1.9773,1.9947,1.9947,2.009,2.0244,2.0344,2.0568,2.0753,2.0815,2.1009,2.1109,2.1109,2.1109,2.1109,2.1109,2.1109,2.1109,2.1109,2.1109,2.1109,0.0,0.0,0.0,2.7309,2.7309,2.7309,2.7309,2.7309,2.7309,2.7309,2.7309,2.7584,2.8538,2.9509,3.0215,3.0238,3.1036,3.1989,3.2961,3.3102,3.3102,3.3102,3.3102,3.3102,3.3102,3.3102,0.0,0.0,3.3102,3.3102,3.3102,3.3102,3.3102,3.3102,3.2142,3.1169,3.0215,2.9222,2.8269,2.7309,2.7034,2.6747,2.6496,2.6221,2.5965,2.5693,2.5693,2.5693,2.5693,2.5693,2.5693,2.5757,2.6201,2.6631,2.707,2.7516,2.7946,2.8291,2.8291,2.8291,2.8291,2.8291,2.8291,2.8291,2.8291,2.8291,2.8291,2.8264,2.8237,2.7682,2.5278,2.2938,2.1489,2.268,2.2036,2.1211,2.1211,2.0744,2.0299,2.0299,1.9822,1.9395,1.9395,1.9395,1.9395,1.9395,1.9401,1.9408,1.9408,1.9662,1.9813,1.9813,2.0044,2.0217,2.0217,2.0224,2.0381,2.0706,2.0719,2.0815,2.1096,2.1109,2.1109,2.1109,2.1109,2.1109,2.1109,2.1109,2.1109,2.1109,2.1109,2.1109,2.7309,0.0,0.0,0.0,0.0,0.0,2.7309,2.7309,2.7309,2.7309,2.7309,2.7584,2.8538,2.9509,3.0418,3.1103,3.2033,3.2776,3.3059,3.3102,3.3102,3.3102,3.3102,3.3102,3.3102,3.3102,0.0,0.0,3.3102,3.3102,3.3102,3.3102,3.3102,3.3102,3.2831,3.1889,3.0215,2.992,2.8945,2.7309,2.7034,2.6747,2.6496,2.6221,2.5965,2.5693,2.5693,2.5693,2.5693,2.5693,2.5693,2.5703,2.5845,2.6342,2.7031,2.7148,2.7656,2.8291,2.8291,2.8291,2.8291,2.8291,2.8291,2.8291,2.8291,2.8291,2.813,2.7241,2.6998,2.6436,2.4078,2.2341,2.1296,2.1624,2.1432,2.1211,2.1211,2.0744,2.0299,2.0299,1.9822,1.9395,1.9395,1.9395,1.9395,1.9395,1.9575,1.9679,1.9679,1.9933,2.0084,2.0084,2.0381,2.0555,2.0555,2.0748,2.0902,2.0982,2.0989,2.1029,2.1109,2.1109,2.1109,2.1109,2.1109,2.1109,2.1109,2.1109,2.1109,2.1109,2.1109,2.1109,0.0,0.0,0.0,2.7309,0.0,0.0,2.7309,2.7309,2.7309,2.7309,2.7309,2.7715,2.9084,2.9806,3.0643,3.2011,3.2711,3.3102,3.3102,3.3102,3.3102,3.3102,3.3102,3.3102,3.3102,3.3102,3.3102,3.3102,3.3102,3.3102,3.3102,3.3102,3.3102,3.3102,3.2689,3.1735,3.0215,2.9784,2.8806,2.7309,2.7153,2.6866,2.6496,2.6352,2.6062,2.5693,2.5693,2.5693,2.5693,2.5693,2.5693,2.5728,2.5913,2.6391,2.7015,2.7217,2.7715,2.8291,2.8291,2.8291,2.8291,2.8291,2.8291,2.8291,2.8291,2.8291,2.805,2.6826,2.5799,2.4725,2.3368,2.2093,2.1211,2.1211,2.1211,2.1211,2.1211,2.0744,2.0299,2.0299,1.9822,1.9395,1.9395,1.9395,1.9395,1.9395,1.9642,1.98,1.98,2.016,2.0421,2.0421,2.0681,2.0855,2.0855,2.1009,2.1109,2.1109,2.1109,2.1109,2.1109,2.1109,2.1109,2.1109,2.1109,2.1109,2.1109,2.1109,2.1109,2.1109,2.1109,2.1109,0.0,0.0,0.0,0.0,2.7309,0.0,2.7309,2.737,2.7465,2.7465,2.7536,2.8175,3.0011,3.0351,3.0957,3.2797,3.3102,3.3102,3.3102,3.3102,3.3102,3.3102,3.3102,3.3102,3.3102,3.3102,3.3102,3.3102,3.3102,3.3102,3.3102,3.3102,3.3102,3.3102,3.212,3.1147,3.0215,2.9199,2.8222,2.7309,2.7309,2.7023,2.6496,2.6496,2.6217,2.5693,2.5693,2.5693,2.5693,2.5693,2.5693,2.5757,2.6221,2.665,2.707,2.7536,2.7956,2.8291,2.8291,2.8291,2.8291,2.8291,2.8291,2.8291,2.8291,2.8211,2.7826,2.65,2.4503,2.2813,2.2813,2.2015,2.1211,2.1211,2.1211,2.1211,2.1211,2.0744,2.0299,2.0299,1.9822,1.9395,1.9395,1.9395,1.9408,1.9441,1.9659,1.986,1.9893,2.0381,2.0753,2.0753,2.0955,2.1109,2.1109,2.1109,2.1109,2.1109,2.1109,2.1109,2.1109,2.1109,2.1109,2.1109,2.1109,2.1109,2.1109,2.1109,2.1109,2.1109,2.1109,2.1109,0.0,0.0,0.0,0.0,0.0,0.0,2.7309,2.788,2.8432,2.8432,2.9084,2.9988,3.1125,3.1337,3.1713,3.2918,3.3102,3.3102,3.3102,3.3102,3.3102,3.3102,3.3102,3.3102,3.3102,3.3102,3.3102,3.3102,3.3102,3.3102,3.3102,3.3102,3.3102,3.3102,3.212,3.1147,3.0215,2.9199,2.8222,2.7309,2.7309,2.7023,2.6496,2.6496,2.6217,2.5693,2.5693,2.5693,2.5693,2.5693,2.5693,2.5757,2.6221,2.665,2.707,2.7536,2.7956,2.8291,2.8291,2.8291,2.8291,2.8291,2.8291,2.8291,2.8291,2.7628,2.6409,2.4281,2.2652,2.1539,2.1539,2.1375,2.1211,2.1211,2.1211,2.1211,2.1211,2.0744,2.0299,2.0299,1.9822,1.9395,1.9395,1.9395,1.9475,1.9679,1.996,2.0234,2.0474,2.0808,2.1029,2.1029,2.1076,2.1109,2.1109,2.1109,2.1109,2.1109,2.1109,2.1109,2.1109,2.1109,2.1109,2.1109,2.1109,2.1109,2.1109,2.1109,2.1109,2.1109,2.1109,2.1109,0.0,0.0,0.0,2.7309,0.0,0.0,0.0,2.8034,2.8701,2.8701,2.9486,3.0486,3.1426,3.1603,3.1923,3.2939,3.3102,3.3102,3.3102,3.3102,3.3102,3.3102,3.3102,3.3102,3.3102,3.3102,3.3102,3.3102,3.3102,3.3102,3.3102,3.3102,3.2874,3.2373,3.1857,3.0902,2.9475,2.8945,2.8222,2.7309,2.7309,2.7023,2.6496,2.6496,2.6217,2.5693,2.5693,2.5693,2.5693,2.5693,2.5693,2.5776,2.6455,2.6826,2.709,2.7744,2.8142,2.8291,2.8291,2.8291,2.8291,2.8291,2.7906,2.7413,2.7413,2.6163,2.4503,2.334,2.2121,2.1211,2.1211,2.1211,2.1211,2.1211,2.1211,2.1146,2.0996,2.0615,2.0241,2.0075,1.9707,1.9395,1.9395,1.9515,1.9662,1.978,2.0174,2.0508,2.0692,2.0929,2.1109,2.1109,2.1109,2.1109,2.1109,2.1109,2.1109,2.1109,2.1109,2.1109,2.1109,2.1109,2.1109,2.1109,2.1109,2.1109,2.1109,2.1109,2.1109,2.1109,2.1109,2.1109,0.0,0.0,0.0,0.0,0.0,2.7309,0.0,0.0,0.0,2.8991,2.992,3.0991,3.1735,3.1901,3.2118,3.2811,0.0,0.0,0.0,3.3027,0.0,3.3102,3.3102,3.3102,3.3102,3.3102,3.3102,3.3102,3.3102,3.3102,3.3102,3.3102,3.2646,3.1625,3.1426,3.0464,2.8724,2.8515,2.8058,2.7309,2.7309,2.7023,2.6496,2.6496,2.6217,2.5693,2.5693,2.5693,2.5693,2.5693,2.5757,2.5913,2.6684,2.6986,2.7119,2.7978,2.8291,2.8291,2.8291,2.8291,2.8291,2.8291,2.7493,2.6472,2.6218,2.4669,2.2946,2.2728,2.1959,2.1211,2.1211,2.1211,2.1211,2.1211,2.1211,2.1117,2.078,2.0493,2.0184,1.9873,1.9591,1.9395,1.9395,1.9606,1.982,1.9873,2.0334,2.0733,2.0786,2.0962,2.1109,2.1109,2.1109,2.1109,2.1109,2.1109,2.1109,2.1109,2.1109,2.1109,2.1109,2.1109,2.1109,2.1109,2.1109,2.1109,2.1109,2.1109,2.1109,2.1109,2.1109,2.1109,0.0,0.0,0.0,0.0,2.7309,0.0,0.0,0.0,3.0034,3.0034,0.0,3.2797,3.2918,0.0,0.0,0.0,0.0,0.0,3.239,3.2754,3.3102,3.3102,3.3102,3.3102,3.3102,3.3102,3.3102,3.3102,3.3102,3.3102,3.3102,3.3102,3.2646,3.1625,3.079,2.9829,2.8701,2.788,2.7418,2.7309,2.7309,2.7023,2.6496,2.6496,2.6217,2.5693,2.5693,2.5693,2.5693,2.5693,2.5942,2.6367,2.6836,2.6986,2.7119,2.7978,2.8291,2.8291,2.8291,2.8291,2.8291,2.8291,2.7493,2.63,2.5223,2.4014,2.2785,2.171,2.1325,2.1211,2.1211,2.1211,2.1211,2.1211,2.1211,2.1117,2.078,2.0493,2.0184,1.9873,1.9591,1.9395,1.9395,1.9606,1.9887,2.0117,2.0468,2.0799,2.1029,2.1089,2.1109,2.1109,2.1109,2.1109,2.1109,2.1109,2.1109,2.1109,2.1109,2.1109,2.1109,2.1109,2.1109,2.1109,2.1109,2.1109,2.1109,2.1109,2.1109,2.1109,2.1109,2.1109,0.0,0.0,0.0,0.0,0.0,0.0,2.7998,0.0,3.0351,0.0,0.0,0.0,0.0,0.0,0.0,0.0,3.2939,3.3014,0.0,0.0,3.3102,3.3102,0.0,0.0,3.3102,3.3102,3.3102,3.3102,3.3102,3.3102,3.3102,3.2559,3.1779,3.0835,2.9829,2.8875,2.7904,2.7489,2.7309,2.7309,2.7309,2.7023,2.6496,2.6496,2.6217,2.5693,2.5693,2.5693,2.5693,2.5693,2.5971,2.6426,2.6846,2.7168,2.7471,2.8066,2.8291,2.8291,2.8291,2.8291,2.8184,2.7493,2.6427,2.5232,2.4078,2.289,2.1845,2.1346,2.1211,2.1211,2.1211,2.1211,2.1211,2.1211,2.1211,2.106,2.0587,2.0385,2.0155,1.9649,1.9587,1.9619,1.9619,1.986,2.0154,2.0448,2.0742,2.0969,2.1096,2.1109,2.1109,2.1109,2.1109,2.1109,2.1109,2.1109,2.1109,2.1109,2.1109,2.1109,2.1109,2.1109,2.1109,2.1109,2.1109,2.1109,2.1109,2.1109,2.1109,2.1109,2.1109,2.1109,2.7309,0.0,0.0,0.0,0.0,0.0,0.0,0.0,0.0,0.0,0.0,0.0,0.0,0.0,0.0,0.0,0.0,3.304,0.0,3.3002,0.0,0.0,0.0,0.0,0.0,3.3102,3.2982,3.2711,3.2689,3.2581,3.2329,3.1625,3.079,2.9829,2.9084,2.8245,2.7309,2.7309,2.7309,2.7309,2.7309,2.7023,2.6496,2.6496,2.6217,2.5693,2.5693,2.5693,2.5693,2.5693,2.604,2.6592,2.6894,2.7353,2.7907,2.8174,2.8291,2.8291,2.8291,2.8291,2.8094,2.688,2.568,2.4478,2.3359,2.215,2.1211,2.1211,2.1211,2.1211,2.1211,2.1211,2.1211,2.1211,2.1211,2.1031,2.0421,2.0299,2.0154,1.9611,1.9659,1.9853,2.0013,2.0214,2.0428,2.0672,2.0922,2.1109,2.1109,2.1109,2.1109,2.1109,2.1109,2.1109,2.1109,2.1109,2.1109,2.1109,2.1109,2.1109,2.1109,2.1109,2.1109,2.1109,2.1109,2.1109,2.1109,2.1109,2.1109,2.1109,2.1109,2.1109,0.0,0.0,0.0,2.7309,0.0,0.0,0.0,0.0,3.0464,0.0,0.0,0.0,0.0,0.0,0.0,0.0,0.0,0.0,0.0,3.2717,3.3102,3.3102,0.0,0.0,0.0,3.3102,3.2689,3.1713,3.1647,3.1236,3.0351,3.026,2.9784,2.8794,2.8724,2.8245,2.7309,2.7309,2.7309,2.7309,2.7309,2.7023,2.6496,2.6496,2.6217,2.5693,2.5693,2.5693,2.5693,2.5693,2.6215,2.6967,2.6986,2.7529,2.8271,2.8291,2.8291,2.8291,2.8291,2.8291,2.8094,2.688,2.568,2.4478,2.3359,2.215,2.1211,2.1211,2.1211,2.1211,2.1211,2.1211,2.1211,2.1211,2.1211,2.1031,2.0421,2.0299,2.0187,1.9844,1.9793,1.998,2.0579,2.0686,2.0699,2.0706,2.0922,2.1109,2.1109,2.1109,2.1109,2.1109,2.1109,2.1109,2.1109,2.1109,2.1109,2.1109,2.1109,2.1109,2.1109,2.1109,2.1109,2.1109,2.1109,2.1109,2.1109,2.1109,2.1109,2.1109,2.1109,2.1109,0.0,0.0,2.7309,2.7309,0.0,0.0,0.0,0.0,0.0,0.0,0.0,0.0,0.0,0.0,0.0,0.0,0.0,0.0,0.0,3.2977,3.3102,3.3102,3.3102,0.0,0.0,0.0,3.1967,3.1625,3.1013,3.0531,3.0215,2.9578,2.906,2.8701,2.8105,2.7631,2.7309,2.7309,2.7309,2.7309,2.7309,2.7023,2.6496,2.6496,2.6217,2.5693,2.5693,2.5693,2.5693,2.5693,2.6215,2.6986,2.6986,2.7539,2.8291,2.8291,2.8291,2.8291,2.8291,2.8291,2.8094,2.688,2.568,2.4478,2.3359,2.215,2.1211,2.1211,2.1211,2.1211,2.1211,2.1211,2.1211,2.1211,2.1024,2.0759,2.0385,2.0293,2.0202,1.9869,2.0114,2.0472,2.0672,2.0835,2.0962,2.0962,2.1049,2.1109,2.1109,2.1109,2.1109,2.1109,2.1109,2.1109,2.1109,2.1109,2.1109,2.1109,2.1109,2.1109,2.1109,2.1109,2.1109,2.1109,2.1109,2.1109,2.1109,2.1109,2.1109,2.1109,2.1109,2.1109,2.7309,2.7309,0.0,2.7309,2.7739,0.0,2.9897,0.0,0.0,0.0,0.0,0.0,0.0,0.0,0.0,0.0,0.0,0.0,0.0,3.3102,3.3102,3.3102,3.3102,3.2961,0.0,3.2307,3.1691,3.0655,3.0351,2.9897,0.0,0.0,2.8198,2.8198,2.7631,2.7309,2.7309,2.7309,2.7309,2.7309,2.7309,2.7071,2.6651,2.6544,2.6255,2.5854,2.5732,2.5693,2.5693,2.5693,2.6215,2.6986,2.6986,2.7539,2.8291,2.8291,2.8291,2.8291,2.8291,2.8014,2.7466,2.6236,2.5067,2.3874,2.27,2.1816,2.1211,2.1211,2.1211,2.1211,2.1211,2.1211,2.1211,2.1211,2.0931,2.0637,2.0468,2.0365,2.0276,2.0134,2.0414,2.0739,2.0846,2.0989,2.1109,2.1109,2.1109,2.1109,2.1109,2.1109,2.1109,2.1109,2.1109,2.1109,2.1109,2.1109,2.1109,2.1109,2.1109,2.1109,2.1109,2.1109,2.1109,2.1109,2.1109,2.1109,2.1109,2.1109,2.1109,2.1109,2.1109,2.1109]},{"header":{"parameterUnit":"m.s-1","parameterCategory":1,"la1":30.6,"la2":29.2853,"lo1":-89.7004,"lo2":-87.6739,"dy":0.0162,"dx":0.0183,"nx":112,"ny":82,"refTime":"2023-11-01T06:00:00:Z","depth":0,"parameterNumber":3,"parameterNumberName":"V-component_of_WINDS"},"data":[0.0,0.0,0.0,0.0,0.0,0.0,0.0,0.0,0.0,0.0,0.0,0.0,0.0,0.0,0.0,0.0,0.0,0.0,0.0,0.0,0.0,0.0,0.0,0.0,0.0,0.0,0.0,0.0,0.0,0.0,0.0,0.0,0.0,0.0,0.0,0.0,0.0,0.0,0.0,0.0,0.0,0.0,0.0,0.0,0.0,0.0,0.0,0.0,0.0,0.0,0.0,0.0,0.0,0.0,0.0,0.0,0.0,0.0,0.0,0.0,0.0,0.0,0.0,0.0,0.0,0.0,0.0,0.0,0.0,0.0,0.0,0.0,0.0,0.0,0.0,0.0,0.0,0.0,0.0,0.0,0.0,0.0,0.0,0.0,0.0,0.0,0.0,0.0,0.0,0.0,3.3552,3.3287,3.3227,3.3144,3.3026,3.3429,3.3763,3.3956,0.0,0.0,0.0,0.0,0.0,0.0,0.0,0.0,0.0,0.0,0.0,0.0,0.0,0.0,0.0,0.0,0.0,0.0,0.0,0.0,0.0,0.0,0.0,0.0,0.0,0.0,0.0,0.0,0.0,0.0,0.0,0.0,0.0,0.0,0.0,0.0,0.0,0.0,0.0,0.0,0.0,0.0,0.0,0.0,0.0,0.0,0.0,0.0,0.0,0.0,0.0,0.0,0.0,0.0,0.0,0.0,0.0,0.0,0.0,0.0,0.0,0.0,0.0,0.0,0.0,0.0,0.0,0.0,0.0,0.0,0.0,0.0,0.0,0.0,0.0,0.0,0.0,0.0,0.0,0.0,0.0,0.0,0.0,0.0,0.0,0.0,0.0,0.0,0.0,0.0,0.0,0.0,0.0,0.0,0.0,0.0,0.0,0.0,0.0,0.0,0.0,0.0,0.0,0.0,3.3762,3.3559,3.3331,3.3272,3.3473,3.3623,3.3847,3.4215,0.0,0.0,0.0,0.0,0.0,0.0,0.0,0.0,0.0,0.0,0.0,0.0,0.0,0.0,0.0,0.0,0.0,0.0,0.0,0.0,0.0,0.0,0.0,0.0,0.0,0.0,0.0,0.0,0.0,0.0,0.0,0.0,0.0,0.0,0.0,0.0,0.0,0.0,0.0,0.0,0.0,0.0,0.0,0.0,0.0,0.0,0.0,0.0,0.0,0.0,0.0,0.0,0.0,0.0,0.0,0.0,0.0,0.0,0.0,0.0,0.0,0.0,0.0,0.0,0.0,0.0,0.0,0.0,0.0,0.0,0.0,0.0,0.0,0.0,0.0,0.0,0.0,0.0,0.0,0.0,0.0,0.0,0.0,0.0,0.0,0.0,0.0,0.0,0.0,0.0,0.0,0.0,0.0,0.0,0.0,0.0,0.0,0.0,0.0,0.0,0.0,0.0,0.0,3.3992,3.3815,3.3626,3.3583,3.359,3.3605,3.379,3.4024,3.4281,3.4599,0.0,0.0,0.0,0.0,0.0,0.0,0.0,0.0,0.0,0.0,0.0,0.0,0.0,0.0,0.0,0.0,0.0,0.0,0.0,0.0,0.0,0.0,0.0,0.0,0.0,0.0,0.0,0.0,0.0,0.0,0.0,0.0,0.0,0.0,0.0,0.0,0.0,0.0,0.0,0.0,0.0,0.0,0.0,0.0,0.0,0.0,0.0,0.0,0.0,0.0,0.0,0.0,0.0,0.0,0.0,0.0,0.0,0.0,0.0,0.0,0.0,0.0,0.0,0.0,0.0,0.0,0.0,0.0,0.0,0.0,0.0,0.0,0.0,0.0,0.0,0.0,0.0,0.0,0.0,0.0,0.0,0.0,0.0,0.0,0.0,0.0,0.0,0.0,0.0,0.0,0.0,0.0,0.0,0.0,0.0,0.0,0.0,0.0,0.0,0.0,0.0,0.0,3.3972,3.3908,3.376,3.3855,3.3901,3.3807,3.4018,3.4233,3.4416,3.4663,0.0,0.0,0.0,0.0,0.0,0.0,0.0,0.0,0.0,0.0,0.0,0.0,0.0,0.0,0.0,0.0,0.0,0.0,0.0,0.0,0.0,0.0,0.0,0.0,0.0,0.0,0.0,0.0,0.0,0.0,0.0,0.0,0.0,0.0,0.0,0.0,0.0,0.0,0.0,0.0,0.0,0.0,0.0,0.0,0.0,0.0,0.0,0.0,0.0,0.0,0.0,0.0,0.0,0.0,0.0,0.0,0.0,0.0,0.0,0.0,0.0,0.0,0.0,0.0,0.0,0.0,0.0,0.0,0.0,0.0,0.0,0.0,0.0,0.0,0.0,0.0,0.0,0.0,0.0,0.0,0.0,0.0,0.0,0.0,0.0,0.0,0.0,0.0,0.0,0.0,0.0,0.0,0.0,0.0,0.0,0.0,0.0,0.0,0.0,0.0,0.0,0.0,3.4179,3.4173,3.4161,3.4117,3.4161,3.4328,3.4371,3.4488,3.4758,3.4854,0.0,0.0,0.0,0.0,0.0,0.0,0.0,0.0,0.0,0.0,0.0,0.0,0.0,0.0,0.0,0.0,0.0,0.0,0.0,0.0,0.0,0.0,0.0,0.0,0.0,0.0,0.0,0.0,0.0,0.0,0.0,0.0,0.0,0.0,0.0,0.0,0.0,0.0,0.0,0.0,0.0,0.0,0.0,0.0,0.0,0.0,0.0,0.0,0.0,0.0,0.0,0.0,0.0,0.0,0.0,0.0,0.0,0.0,0.0,0.0,0.0,0.0,0.0,0.0,0.0,0.0,0.0,0.0,0.0,0.0,0.0,0.0,0.0,0.0,0.0,0.0,0.0,0.0,0.0,0.0,0.0,0.0,0.0,0.0,0.0,0.0,0.0,0.0,0.0,0.0,0.0,0.0,0.0,0.0,0.0,0.0,0.0,0.0,0.0,0.0,0.0,0.0,3.4203,3.4233,0.0,3.4299,3.4345,3.4512,3.452,3.462,3.4846,0.0,0.0,0.0,0.0,0.0,0.0,0.0,0.0,0.0,0.0,0.0,0.0,0.0,0.0,0.0,0.0,0.0,0.0,0.0,0.0,0.0,0.0,0.0,0.0,0.0,0.0,0.0,0.0,0.0,0.0,0.0,0.0,0.0,0.0,0.0,0.0,0.0,0.0,0.0,0.0,0.0,0.0,0.0,0.0,0.0,0.0,0.0,0.0,0.0,0.0,0.0,0.0,0.0,0.0,0.0,0.0,0.0,0.0,0.0,0.0,0.0,0.0,0.0,0.0,0.0,0.0,0.0,0.0,0.0,0.0,0.0,0.0,0.0,0.0,0.0,0.0,0.0,0.0,0.0,0.0,0.0,0.0,0.0,0.0,0.0,0.0,0.0,0.0,0.0,0.0,0.0,0.0,0.0,0.0,0.0,0.0,0.0,0.0,0.0,0.0,0.0,0.0,3.4407,3.4357,3.438,0.0,3.4545,3.462,3.4748,3.4807,3.4879,3.5024,0.0,0.0,0.0,0.0,0.0,0.0,0.0,0.0,0.0,0.0,0.0,0.0,0.0,0.0,0.0,0.0,0.0,0.0,0.0,0.0,0.0,0.0,0.0,0.0,0.0,0.0,0.0,0.0,0.0,0.0,0.0,0.0,0.0,0.0,0.0,0.0,0.0,0.0,0.0,0.0,0.0,0.0,0.0,0.0,0.0,0.0,0.0,0.0,0.0,0.0,0.0,0.0,0.0,0.0,0.0,0.0,0.0,0.0,0.0,0.0,0.0,0.0,0.0,0.0,0.0,0.0,0.0,0.0,0.0,0.0,0.0,0.0,0.0,0.0,0.0,0.0,0.0,0.0,0.0,0.0,0.0,0.0,0.0,0.0,0.0,0.0,0.0,0.0,0.0,0.0,0.0,0.0,0.0,0.0,0.0,0.0,0.0,0.0,0.0,0.0,0.0,0.0,3.4807,3.4694,3.4658,3.4797,3.4865,3.4961,3.5098,3.5224,3.5308,0.0,0.0,0.0,0.0,0.0,0.0,0.0,0.0,0.0,0.0,0.0,0.0,0.0,0.0,0.0,0.0,0.0,0.0,0.0,0.0,0.0,0.0,0.0,0.0,0.0,0.0,0.0,0.0,0.0,0.0,0.0,0.0,0.0,0.0,0.0,0.0,0.0,0.0,0.0,0.0,0.0,0.0,0.0,0.0,0.0,0.0,0.0,0.0,0.0,0.0,0.0,0.0,0.0,0.0,0.0,0.0,0.0,0.0,0.0,0.0,0.0,0.0,0.0,0.0,0.0,0.0,0.0,0.0,0.0,0.0,0.0,0.0,0.0,0.0,0.0,0.0,0.0,0.0,0.0,0.0,0.0,0.0,0.0,0.0,0.0,0.0,0.0,0.0,0.0,0.0,0.0,0.0,0.0,0.0,0.0,0.0,0.0,0.0,0.0,0.0,0.0,0.0,0.0,3.4949,3.4822,3.4812,3.4987,3.5035,3.5108,3.5228,3.5274,3.5349,3.5433,0.0,0.0,0.0,0.0,0.0,0.0,0.0,0.0,0.0,0.0,0.0,0.0,0.0,0.0,0.0,0.0,0.0,0.0,0.0,0.0,0.0,0.0,0.0,0.0,0.0,0.0,0.0,0.0,0.0,0.0,0.0,0.0,0.0,0.0,0.0,0.0,0.0,0.0,0.0,0.0,0.0,0.0,0.0,0.0,0.0,0.0,0.0,0.0,0.0,0.0,0.0,0.0,0.0,0.0,0.0,0.0,0.0,0.0,0.0,0.0,0.0,0.0,0.0,0.0,0.0,0.0,0.0,0.0,0.0,0.0,0.0,0.0,0.0,0.0,0.0,0.0,0.0,0.0,0.0,0.0,0.0,0.0,0.0,0.0,0.0,0.0,0.0,0.0,0.0,0.0,0.0,0.0,0.0,0.0,0.0,0.0,0.0,0.0,0.0,0.0,0.0,0.0,3.5181,3.5086,3.5073,3.5239,3.5258,3.5314,3.544,3.5469,3.5496,3.5562,0.0,0.0,0.0,0.0,0.0,0.0,0.0,0.0,0.0,0.0,0.0,0.0,0.0,0.0,0.0,0.0,0.0,0.0,0.0,0.0,0.0,0.0,0.0,0.0,0.0,0.0,0.0,0.0,0.0,0.0,0.0,0.0,0.0,0.0,0.0,0.0,0.0,0.0,0.0,0.0,0.0,0.0,0.0,0.0,0.0,0.0,0.0,0.0,0.0,0.0,0.0,0.0,0.0,0.0,0.0,0.0,0.0,0.0,0.0,0.0,0.0,0.0,0.0,0.0,0.0,0.0,0.0,0.0,0.0,0.0,0.0,0.0,0.0,0.0,0.0,0.0,0.0,0.0,0.0,0.0,0.0,0.0,0.0,0.0,0.0,0.0,0.0,0.0,0.0,0.0,0.0,0.0,0.0,0.0,0.0,0.0,0.0,0.0,0.0,0.0,0.0,0.0,3.5522,3.5402,3.5374,3.5493,3.5522,3.5578,3.5698,3.5706,3.5706,3.5706,0.0,0.0,0.0,0.0,0.0,0.0,0.0,0.0,0.0,0.0,0.0,0.0,0.0,0.0,0.0,0.0,0.0,0.0,0.0,0.0,0.0,0.0,0.0,0.0,0.0,0.0,0.0,0.0,0.0,0.0,0.0,0.0,0.0,0.0,0.0,0.0,0.0,0.0,0.0,0.0,0.0,0.0,0.0,0.0,0.0,0.0,0.0,0.0,0.0,0.0,0.0,0.0,0.0,0.0,0.0,0.0,0.0,0.0,0.0,0.0,3.5915,0.0,0.0,0.0,0.0,0.0,0.0,0.0,0.0,0.0,0.0,0.0,0.0,0.0,0.0,0.0,0.0,0.0,0.0,0.0,0.0,0.0,0.0,0.0,0.0,0.0,0.0,0.0,0.0,0.0,0.0,0.0,0.0,0.0,0.0,0.0,0.0,0.0,0.0,0.0,0.0,0.0,3.5631,3.5537,3.5512,3.5648,3.5659,3.5668,3.5704,3.5706,3.5706,3.5706,3.5706,0.0,0.0,0.0,0.0,0.0,0.0,0.0,0.0,0.0,0.0,0.0,0.0,0.0,0.0,0.0,0.0,0.0,0.0,0.0,0.0,0.0,0.0,0.0,0.0,0.0,0.0,0.0,0.0,0.0,0.0,0.0,0.0,0.0,0.0,0.0,0.0,0.0,0.0,0.0,0.0,0.0,0.0,0.0,0.0,0.0,0.0,0.0,0.0,0.0,0.0,0.0,0.0,0.0,0.0,0.0,0.0,0.0,0.0,0.0,0.0,3.5908,0.0,0.0,0.0,0.0,0.0,0.0,0.0,0.0,0.0,0.0,0.0,0.0,0.0,0.0,0.0,0.0,0.0,0.0,0.0,0.0,0.0,0.0,0.0,0.0,0.0,0.0,0.0,0.0,0.0,0.0,0.0,0.0,0.0,0.0,0.0,0.0,0.0,0.0,0.0,0.0,3.5682,3.5648,3.5617,3.5682,3.5706,3.5706,3.5706,3.5706,3.5706,3.5706,3.5706,0.0,0.0,0.0,0.0,0.0,0.0,0.0,0.0,0.0,0.0,0.0,0.0,0.0,0.0,0.0,0.0,0.0,0.0,0.0,0.0,0.0,0.0,0.0,0.0,0.0,0.0,0.0,0.0,0.0,0.0,0.0,0.0,0.0,0.0,0.0,0.0,0.0,0.0,0.0,0.0,0.0,0.0,0.0,0.0,0.0,0.0,0.0,0.0,0.0,0.0,0.0,0.0,0.0,3.8506,3.8528,3.8528,3.8528,3.8514,3.8436,3.7008,3.6364,3.6367,0.0,0.0,0.0,0.0,0.0,0.0,0.0,0.0,0.0,0.0,0.0,0.0,0.0,0.0,0.0,0.0,0.0,0.0,0.0,0.0,0.0,0.0,0.0,0.0,0.0,3.5803,3.5919,0.0,0.0,0.0,0.0,0.0,0.0,0.0,0.0,0.0,0.0,0.0,0.0,3.6107,3.6121,3.6129,3.6129,3.6129,3.6129,3.6129,3.6129,3.6129,3.6129,3.6129,3.614,0.0,0.0,0.0,0.0,0.0,0.0,0.0,0.0,0.0,0.0,0.0,0.0,0.0,0.0,0.0,0.0,0.0,0.0,0.0,0.0,0.0,0.0,0.0,0.0,0.0,0.0,0.0,0.0,0.0,0.0,0.0,0.0,3.591,3.591,0.0,0.0,0.0,0.0,0.0,0.0,0.0,0.0,0.0,0.0,0.0,0.0,0.0,3.822,3.8321,3.8337,3.8398,3.8496,3.8569,3.8582,3.8582,3.8582,3.8599,3.8577,3.8346,0.0,3.8245,3.8249,0.0,0.0,0.0,0.0,0.0,0.0,0.0,0.0,0.0,0.0,0.0,0.0,0.0,0.0,0.0,0.0,0.0,0.0,0.0,0.0,0.0,0.0,3.5706,3.5706,3.6226,3.6745,0.0,3.6187,3.5706,3.5706,0.0,0.0,0.0,0.0,0.0,0.0,0.0,0.0,3.7706,3.7793,3.7867,3.7867,3.7867,3.7867,3.7867,3.7867,3.7867,3.7867,3.7867,3.7893,3.7947,3.7961,0.0,0.0,0.0,0.0,0.0,0.0,0.0,0.0,0.0,0.0,0.0,0.0,0.0,0.0,0.0,0.0,0.0,0.0,0.0,0.0,0.0,0.0,0.0,0.0,0.0,0.0,0.0,0.0,0.0,3.591,3.591,3.591,3.5869,3.5857,0.0,0.0,0.0,0.0,0.0,0.0,0.0,0.0,0.0,3.7926,3.8298,3.8749,3.9237,3.9233,3.9483,3.9952,3.9941,3.9959,3.9958,3.9867,3.9849,3.9849,3.9849,3.9849,3.9778,3.8944,3.8325,3.7927,0.0,0.0,0.0,0.0,3.7253,3.7237,3.7163,3.6854,0.0,0.0,0.0,0.0,0.0,0.0,0.0,0.0,0.0,0.0,0.0,0.0,0.0,3.7116,3.7364,3.7635,3.7635,3.7345,3.7116,0.0,3.7116,3.7116,3.7116,0.0,0.0,0.0,0.0,3.8178,3.8115,3.8169,3.8196,3.8196,3.8196,3.8196,3.8196,3.8196,3.8196,3.8196,3.8196,3.8219,3.8249,3.8287,3.8121,0.0,0.0,0.0,0.0,0.0,0.0,0.0,0.0,0.0,0.0,0.0,0.0,0.0,0.0,0.0,0.0,0.0,0.0,0.0,0.0,0.0,0.0,0.0,0.0,0.0,0.0,0.0,0.0,3.5876,3.5852,3.5907,3.6026,3.6137,0.0,0.0,0.0,0.0,0.0,0.0,3.746,3.8281,3.8768,3.8753,3.8967,3.9406,4.004,4.006,4.0373,4.1018,4.0971,4.0944,4.0942,4.0842,4.0808,4.0808,4.0808,4.0808,4.0703,3.9616,3.8963,3.868,3.868,3.8525,3.8306,3.8263,3.825,3.8252,3.8196,3.7785,3.7295,3.7194,0.0,3.6272,3.6272,0.0,0.0,0.0,0.0,3.8196,3.8196,3.8196,3.8196,3.8196,3.837,3.8525,3.8525,3.8677,3.8665,0.0,3.8196,3.8196,3.8196,0.0,0.0,0.0,0.0,3.8844,3.8797,3.8838,3.8873,3.8873,3.8873,3.8873,3.8873,3.8873,3.8873,3.8873,3.8873,3.8873,3.8873,3.8916,3.8823,3.861,0.0,0.0,0.0,0.0,0.0,0.0,0.0,0.0,0.0,0.0,0.0,0.0,0.0,0.0,0.0,0.0,0.0,0.0,0.0,0.0,0.0,0.0,0.0,0.0,0.0,0.0,0.0,0.0,0.0,3.5882,3.651,0.0,0.0,0.0,0.0,3.8072,3.8113,3.8156,3.815,3.8985,3.9443,3.9449,4.0246,4.0712,4.0746,4.0746,4.0766,4.0824,4.082,4.0817,4.0817,4.0791,4.0808,4.0808,4.0808,4.0808,4.0791,4.0722,4.0198,3.9433,3.9433,3.8978,3.8275,3.8156,3.8153,3.8208,3.8137,3.8115,3.8141,3.8135,3.8093,3.8077,3.8077,3.8096,0.0,0.0,3.8176,3.8196,3.8196,3.8196,3.8196,3.8196,3.8837,3.9423,3.9423,3.992,3.9949,0.0,3.8196,3.8196,3.8196,0.0,3.939,3.9261,4.0053,4.0604,4.0414,4.0555,4.0678,4.0678,4.0678,4.0678,4.0678,4.0678,4.0678,4.0678,4.0678,4.0678,4.0678,4.0664,4.0284,3.9452,3.9438,0.0,0.0,0.0,0.0,0.0,0.0,0.0,0.0,0.0,0.0,0.0,0.0,0.0,0.0,0.0,0.0,0.0,0.0,0.0,0.0,0.0,0.0,0.0,0.0,0.0,0.0,0.0,0.0,3.7378,3.7594,0.0,3.7859,3.8117,3.8266,3.8254,3.8746,3.9048,3.9042,3.9859,4.0332,4.0342,4.0633,4.0808,4.0808,4.0808,4.0808,4.0808,4.0759,4.0743,4.0721,4.0659,4.062,4.062,4.062,4.062,4.062,4.062,4.0475,4.0275,4.0275,4.0048,3.9711,3.9704,3.9727,3.9747,3.9763,3.9457,3.8937,3.8389,3.8196,3.8196,3.8196,3.8586,3.9033,3.9033,3.944,3.9862,3.9862,3.9862,3.9862,3.9862,4.0117,4.0294,4.0165,4.0324,4.0303,3.9673,3.955,3.955,3.955,3.9804,4.0004,3.9957,4.0242,4.0473,4.0503,4.0566,4.0657,4.0787,4.0797,4.0797,4.0797,4.0797,4.0797,4.0797,4.0797,4.0797,4.0797,4.0797,4.0642,4.0332,4.0332,4.0175,0.0,0.0,0.0,0.0,0.0,0.0,0.0,0.0,0.0,0.0,0.0,0.0,0.0,0.0,0.0,0.0,0.0,0.0,0.0,0.0,0.0,0.0,0.0,0.0,0.0,0.0,3.7555,3.8217,3.8412,3.8555,3.8669,3.89,3.9032,3.9032,3.9544,3.9841,3.9841,4.0386,4.0698,4.0698,4.0698,4.0698,4.0698,4.0698,4.0698,4.0698,4.0652,4.0629,4.0626,4.0546,4.0496,4.0496,4.0496,4.0496,4.0496,4.0496,4.0557,4.0629,4.0629,4.0589,4.0519,4.0542,4.0583,4.0617,4.0704,4.0388,3.9849,3.9262,3.9088,3.9088,3.9088,3.9434,3.9834,3.9834,4.0213,4.063,4.063,4.063,4.063,4.063,4.063,4.0589,4.0466,4.0395,4.0338,4.0253,4.0274,4.0305,4.0305,4.0305,4.0305,4.0305,4.0305,4.0338,4.0419,4.0431,4.0481,4.0623,4.063,4.063,4.063,4.0664,4.0704,4.0704,4.0755,4.0797,4.0797,4.0797,4.0797,4.0797,4.0797,4.0797,4.0797,0.0,0.0,0.0,0.0,0.0,0.0,0.0,0.0,0.0,0.0,0.0,0.0,0.0,0.0,0.0,0.0,0.0,0.0,0.0,0.0,0.0,0.0,0.0,3.7186,3.7688,3.8197,3.8343,3.8939,3.9351,3.9435,4.007,4.0496,4.0496,4.0496,4.0496,4.0496,4.0496,4.0516,4.0535,4.0535,4.0535,4.0535,4.0535,4.0535,4.0496,4.0496,4.0496,4.0496,4.0496,4.0496,4.0496,4.0496,4.0496,4.0496,4.0496,4.0492,4.0489,4.0492,4.0496,4.0496,4.0496,4.0546,4.0617,4.0749,4.0787,4.0784,4.0784,4.0784,4.0784,4.0784,4.0654,4.0484,4.0484,4.0399,4.0305,4.0305,4.0305,4.0305,4.0324,4.0343,4.0343,4.0377,4.0262,4.0172,4.0167,4.0271,4.0349,4.0292,4.0292,4.0292,4.0292,4.0292,0.0,4.03,4.0281,4.03,4.0305,4.0305,4.0305,4.0305,4.0419,4.0484,4.0484,4.0687,4.0784,4.0784,4.0784,4.0787,4.079,4.0794,4.0797,4.0797,0.0,0.0,0.0,0.0,0.0,0.0,0.0,0.0,0.0,0.0,0.0,0.0,0.0,0.0,0.0,0.0,0.0,0.0,0.0,0.0,0.0,0.0,3.8922,3.8752,3.8878,3.9196,3.9813,4.006,4.0185,4.0203,4.0385,4.0496,4.0496,4.0496,4.0496,4.0496,4.0496,4.0781,4.1431,4.145,4.145,4.145,4.145,4.1123,4.0496,4.0496,4.0496,4.0496,4.0496,4.0496,4.0496,4.0496,4.0496,4.0496,4.0496,4.0401,4.03,4.0449,4.0496,4.0519,4.0542,4.055,4.0534,4.0563,4.0523,4.0434,4.0434,4.0434,4.0434,4.0434,4.0407,4.0359,4.0359,4.0334,4.0305,4.0305,4.0305,4.0458,4.1097,4.1246,4.1372,4.1858,4.1932,4.1885,4.1781,4.1798,4.145,4.0214,4.0005,4.0005,4.0005,4.0005,0.0,4.0148,4.0143,4.019,4.0296,4.0305,4.0305,4.0305,4.0338,4.0359,4.0359,4.0415,4.0434,4.0434,4.0434,4.0473,4.0574,4.0736,4.0797,0.0,0.0,0.0,0.0,0.0,0.0,0.0,0.0,0.0,0.0,0.0,0.0,0.0,0.0,0.0,0.0,0.0,0.0,0.0,0.0,0.0,0.0,3.9784,4.0188,4.0558,4.0157,3.9977,4.0439,4.0496,4.0496,4.0496,4.0496,4.0496,4.0496,4.0728,4.0874,4.0874,4.0799,4.0983,4.1499,4.1141,4.0954,4.0954,4.0954,4.0705,4.0212,4.0212,4.0212,4.0212,4.0212,4.0212,0.0,4.0212,4.0212,4.0212,4.0212,4.0143,0.0,0.0,0.0,0.0,0.0,4.0659,4.0912,4.0949,4.1123,4.1346,4.1346,4.1346,4.1346,4.1346,4.1306,4.126,4.126,4.1213,4.1184,4.1184,4.1184,4.1312,4.1818,4.1932,4.204,4.2428,4.252,4.2493,4.2424,4.2407,0.0,4.1113,4.0942,4.0828,4.0506,4.0449,4.0336,4.0057,4.0015,4.005,4.0129,4.0139,4.0139,4.0139,4.0176,0.0,0.0,0.0,4.0305,4.0305,4.0359,0.0,0.0,0.0,4.149,4.1857,0.0,0.0,0.0,4.1471,4.1509,0.0,0.0,0.0,0.0,0.0,0.0,0.0,0.0,0.0,0.0,0.0,0.0,0.0,0.0,0.0,0.0,4.1353,4.148,4.2207,4.1385,4.0663,4.0587,4.0475,4.0456,4.0552,4.0571,4.0571,4.0571,4.1054,4.1327,4.1212,0.0,0.0,0.0,0.0,3.9954,3.9954,3.9954,3.9897,3.9803,3.9803,3.9803,3.9803,3.9803,3.9803,3.9803,3.9803,3.9803,3.9803,3.9803,3.9797,3.9813,4.0196,4.0196,4.0017,4.02,4.0777,4.1475,4.1546,0.0,0.0,4.2747,4.2747,4.2747,4.2747,4.2664,4.2576,4.2576,4.2487,4.2407,4.2407,4.2407,4.2426,4.252,4.2558,4.2577,4.2653,4.2672,4.2672,4.2672,4.2672,4.2672,4.2672,4.2539,4.216,4.144,4.1346,4.1061,4.0279,4.0184,4.0184,4.0184,0.0,0.0,4.0052,4.0062,4.0128,4.0224,4.041,4.0544,4.0544,4.0667,4.1101,4.187,4.203,4.2472,4.3245,4.3245,4.3283,4.3361,4.2537,4.257,0.0,0.0,0.0,0.0,0.0,0.0,0.0,0.0,0.0,0.0,0.0,0.0,0.0,0.0,0.0,4.2105,4.209,4.2113,4.2283,4.2098,4.1708,4.1054,4.0366,4.0214,4.0926,4.0983,4.0983,4.0983,4.1092,4.0843,4.0151,4.0071,4.0371,4.1072,4.0945,4.0851,4.0851,4.0851,4.0509,3.9803,0.0,0.0,3.9803,3.9803,3.9803,3.9803,3.9803,3.9803,3.9803,3.9803,3.9767,3.9738,3.9859,3.9917,3.9951,4.0086,4.0605,4.1286,4.1402,4.1899,4.2484,4.2484,4.2484,4.2484,4.2484,4.2462,0.0,4.2439,4.2416,4.2407,4.2407,4.2407,4.2577,4.3284,4.3455,4.3625,4.4289,4.4421,4.4421,4.4421,4.4421,4.4421,4.4421,4.3297,4.235,4.2198,4.2179,4.2103,4.1933,4.1914,4.1914,4.1914,4.1346,4.0948,4.0948,4.0331,4.0239,4.094,4.1619,4.1996,4.1996,4.2117,4.2278,4.2431,4.2587,4.2731,4.2904,4.2904,4.3258,4.3929,4.3334,4.3147,0.0,0.0,0.0,0.0,0.0,0.0,0.0,0.0,0.0,0.0,0.0,4.1855,0.0,0.0,4.2247,4.2674,4.264,4.2685,4.3091,4.2791,4.234,4.1773,4.1315,4.1221,4.167,4.1334,4.1094,4.1094,4.0979,4.0706,4.0272,4.0152,4.029,4.0728,4.0322,4.0096,4.0096,4.0096,3.989,3.9452,3.9452,3.9452,3.9452,3.9452,3.9452,3.9452,3.9452,3.9708,4.0121,4.0528,4.0677,4.0669,4.0754,4.0397,3.9854,4.0363,4.1087,4.1876,4.2387,4.3031,4.3657,4.3657,4.3657,4.3657,4.3657,4.3657,4.3657,4.3657,4.3657,4.3657,4.3657,4.3657,4.3752,4.4194,4.4308,4.4402,4.4819,4.4895,4.4895,4.4895,4.4895,4.4895,4.4895,4.4213,4.3506,4.3108,4.3051,4.288,4.2464,4.2407,4.2407,4.2407,4.2047,4.18,4.18,4.1397,4.1346,4.1762,4.2179,4.2407,4.2407,4.2536,4.2817,4.3242,4.3374,4.3675,4.4102,4.4102,4.4317,4.4734,4.447,4.4359,0.0,0.0,0.0,0.0,0.0,0.0,0.0,4.1642,4.1773,4.2474,4.2538,4.2471,4.2471,4.2378,4.2548,4.324,4.3178,4.3262,4.3912,4.3448,4.2938,4.2668,4.2347,4.2234,4.2379,4.1806,4.1359,4.1214,4.1004,4.0732,4.0413,4.0405,4.0408,4.0408,3.987,3.9584,3.9584,3.9584,3.9584,3.9584,3.9584,3.9658,3.9825,3.9825,3.99,4.0048,3.9881,4.0123,4.0706,4.1505,4.1861,4.1924,4.2191,4.1622,4.0724,4.1089,4.181,4.2718,4.3443,4.4232,4.4895,4.4895,4.4895,4.4895,4.4895,4.4895,4.4895,4.4895,4.5028,4.5141,4.5141,4.5274,4.5388,4.5388,4.5388,4.5388,4.5388,4.5388,4.5388,4.5388,4.5388,4.5388,4.5388,4.5388,4.5066,4.408,4.3929,4.3682,4.2975,4.2899,4.2899,4.2899,4.2748,4.2577,4.2407,4.2558,4.2653,4.2653,4.2805,4.2899,4.2899,4.2998,4.3379,4.4075,4.4202,4.4598,4.5292,4.5292,4.5292,4.5292,4.5292,4.5346,3.8651,3.9703,4.04,4.0481,4.0903,4.1318,0.0,4.1829,4.2229,4.2323,4.2743,4.3101,4.3101,4.3452,4.3799,4.3884,4.3898,4.3893,4.3986,4.3912,4.3842,4.3818,4.2541,4.1953,4.2672,4.266,4.2307,4.1599,4.1514,4.0842,3.9361,3.9995,4.0408,4.0408,4.1003,4.1319,4.1319,4.1319,4.1319,4.1319,4.1319,4.1683,4.2389,4.2389,4.2779,4.341,4.2705,4.2036,4.1542,4.2341,4.2772,4.2999,4.3742,4.4069,4.3976,4.2586,4.2611,4.3404,4.3627,4.4232,4.4895,4.4895,4.4895,4.4895,4.4895,4.4895,4.4895,4.4895,4.5464,4.6051,4.6051,4.6588,4.7119,4.7119,4.7119,4.7119,4.7119,4.7119,4.7119,4.7119,4.7119,4.7119,4.7119,4.7119,4.6588,4.5009,4.4762,4.4724,4.463,4.463,4.463,4.463,4.3985,4.3246,4.2464,4.3114,4.3549,4.3549,4.4232,4.463,4.463,4.4629,4.4698,4.4793,4.4792,4.4861,4.4961,4.4961,4.4961,4.4961,4.4961,4.5121,3.9409,4.0072,4.041,4.0764,4.1042,4.1477,4.2417,4.2734,4.2969,4.3434,4.3601,4.3666,4.3666,4.3848,4.4005,0.0,4.4005,4.4005,4.4005,4.4005,4.4005,4.4005,4.3267,4.2958,4.3451,4.3076,4.2853,4.2983,4.2556,4.2203,4.1962,4.2154,4.2253,4.2253,4.2404,4.246,4.246,4.246,4.246,4.246,4.246,4.2652,4.2964,4.2964,4.3166,4.3478,4.3615,4.3599,4.3535,4.4416,4.4941,4.5212,4.5514,4.5713,4.5695,4.4753,4.4688,4.5155,4.5679,4.607,4.6354,4.6354,4.6354,4.6354,4.6354,4.6354,4.6304,4.6127,4.6324,4.6546,4.6322,4.6514,4.6765,4.6765,4.6765,4.6765,4.6765,4.6765,4.6765,4.6765,4.6765,4.6765,4.6765,4.6765,4.6514,4.5813,4.6075,4.6354,4.6354,4.5956,4.5464,4.4952,4.4592,4.4251,4.3885,4.4194,4.4402,4.4402,4.4706,4.4895,4.4895,4.4895,4.4895,4.4895,4.4895,4.4895,4.4895,4.4895,4.4895,4.4914,4.5426,4.5726,3.9795,4.0267,4.0552,4.0986,4.1396,4.198,4.3145,4.343,4.3587,4.417,4.4136,4.4005,4.4005,4.4005,4.4005,4.4005,4.395,4.3884,4.3884,4.382,4.3771,4.3771,4.3605,4.3655,4.4042,4.356,4.3356,4.3726,4.3422,4.3367,4.3736,4.3785,4.3793,4.3793,4.3762,4.3761,4.3761,4.3761,4.3761,4.3761,4.3761,4.387,4.4098,4.4334,4.4316,4.4134,4.4708,4.4967,4.5067,4.5981,4.653,4.6871,4.7033,4.714,4.7162,4.6873,4.6544,4.63,4.6885,4.7099,4.7099,4.7099,4.7099,4.7099,4.7099,4.7099,4.705,4.6791,4.6918,4.7032,4.6731,4.6824,4.6999,4.6999,4.6999,4.6999,4.6999,4.6999,4.6999,4.6999,4.6999,4.6999,4.6999,4.6999,4.6999,4.6999,4.7432,4.7627,4.7155,4.6583,4.5998,4.5351,4.5294,4.5294,4.5294,4.5386,4.5344,4.511,4.5193,4.5141,4.4914,4.4895,4.5009,4.5255,4.5255,4.5369,4.5596,4.5596,4.5596,4.5596,4.6247,4.6531,3.9794,4.0428,4.1086,4.1094,4.2121,4.3142,4.3206,4.3617,4.3983,4.4002,4.4013,4.4005,4.4005,4.4005,4.4005,4.4005,4.3787,4.3604,4.3604,4.3401,4.3214,4.3214,4.3233,4.3497,0.0,4.4263,4.3935,4.3169,4.3843,4.3916,4.3178,4.3852,4.428,4.428,4.5027,4.5428,4.5428,4.5428,4.5428,4.5428,4.5428,4.5838,4.6613,4.7481,4.738,4.6595,4.6613,4.6194,4.5538,4.6341,4.6872,4.7251,4.8043,4.8503,4.8733,4.8713,4.7683,4.6292,4.6319,4.6329,4.6329,4.6329,4.6329,4.6329,4.6329,4.6329,4.6329,4.6321,4.6931,4.7571,4.7563,4.8139,4.8724,4.8724,4.8724,4.8724,4.8724,4.8724,4.8724,4.8724,4.8724,4.8724,4.8724,4.8724,4.8724,4.8724,4.875,4.8174,4.6541,4.631,4.6292,4.6255,4.6255,4.6255,4.6255,4.6618,4.6479,4.5627,4.5935,4.5792,4.4933,4.4895,4.5293,4.6152,4.6171,4.655,4.7327,4.7327,4.7327,4.7327,4.7346,4.7365,3.9644,4.0194,4.0936,4.1337,4.2186,4.3077,4.3618,4.387,4.4005,4.4005,4.4005,4.4005,4.4005,4.3852,4.3738,4.3738,4.3504,4.3321,4.3321,4.3259,4.3205,4.3205,4.3467,0.0,0.0,0.0,0.0,4.5419,4.5747,4.603,4.6322,4.6404,4.6409,4.6409,4.6463,4.6489,4.6489,4.6489,4.6489,4.6489,4.6489,4.6644,4.6913,4.7205,4.7187,4.6906,4.6906,4.6881,4.6856,4.7308,4.7686,4.8016,4.8254,4.8392,4.843,4.8172,4.7716,4.7299,4.7781,4.7954,4.7954,4.7954,4.7954,4.7954,4.7954,4.7954,4.7903,4.7692,4.7841,4.7997,4.774,4.7872,4.8073,4.8073,4.8073,4.8073,4.8073,4.8073,4.8073,4.8073,4.8073,4.8073,4.8073,4.8073,4.8073,4.8073,4.8495,4.839,4.7313,4.7156,4.6952,4.636,4.6296,4.6296,4.6296,4.6411,4.639,4.6084,4.6449,4.6534,4.6245,4.6441,4.6702,4.6986,4.7005,4.7138,4.7403,4.7403,4.7403,4.7403,4.7991,4.8256,3.9389,4.018,4.1084,4.139,4.2347,4.3332,4.3765,4.3923,4.3963,4.3876,4.3852,4.3912,4.4083,4.3968,4.3939,4.4223,4.4063,4.3885,4.3885,4.378,4.3713,4.3713,4.3969,4.4261,0.0,0.0,0.0,4.63,4.6644,4.7052,4.7616,4.7428,4.7327,4.7327,4.7104,4.7009,4.7009,4.7009,4.7009,4.7009,4.7009,4.7009,4.7009,4.7009,4.7009,4.7009,4.7009,4.7116,4.7338,4.7553,4.7795,4.7999,4.8014,4.8042,4.806,4.7793,4.7707,4.7772,4.8232,4.8412,4.8412,4.8412,4.8412,4.8412,4.8412,4.8412,4.8355,4.8151,4.809,4.803,4.7762,4.7707,4.7707,4.7707,4.7707,4.7707,4.7707,4.7707,4.7707,4.7707,4.7707,4.7707,4.7707,4.7707,4.7707,4.7707,4.8094,4.8228,4.7703,4.7629,4.7417,4.6865,4.681,4.681,4.681,4.6918,4.6886,4.6563,4.6924,4.701,4.6704,4.6895,4.7203,4.7641,4.7641,4.7866,4.8294,4.8294,4.8234,4.8126,4.8699,4.8869,3.9103,4.031,4.1501,4.1299,4.2607,4.3884,4.3647,4.3779,4.3894,4.3639,4.3607,4.3771,4.4227,4.4317,4.4599,4.5354,4.5254,4.5081,4.5081,4.4799,4.4614,0.0,0.0,0.0,0.0,0.0,0.0,4.5856,0.0,4.7009,4.7009,4.7009,4.7009,4.7009,4.7009,4.7009,4.7009,4.7009,4.7009,4.7009,4.7009,4.7009,4.7009,4.7009,4.7009,4.7009,4.7009,4.7009,4.702,4.7145,4.7238,4.7302,4.7468,4.7593,4.7707,4.7707,4.7707,4.7707,4.7707,4.7707,4.7707,4.7707,4.7707,4.7707,4.7707,4.7707,4.7707,4.7707,4.7707,4.7707,4.7707,4.7707,4.7707,4.7707,4.7707,4.7707,4.7707,4.7707,4.7707,4.7707,4.7707,4.7707,4.7707,4.7707,4.7707,4.7707,4.7707,4.7707,4.7707,4.7707,4.7707,4.7707,4.7707,4.7707,4.7707,4.805,4.7918,4.7102,4.7404,4.7261,4.6438,4.6417,4.6978,4.8108,4.8145,4.8697,4.9845,4.9845,4.9672,4.9376,4.9376,4.9163,3.9292,4.0176,4.1119,4.1604,4.258,4.3392,4.3322,4.3357,4.3392,4.3322,4.3734,4.4154,4.4272,4.4628,4.4969,4.5158,4.4946,0.0,4.4725,4.465,0.0,4.4614,4.5131,4.5559,4.5784,4.6337,0.0,0.0,4.6884,4.7009,4.7009,4.7009,4.7009,4.7009,4.7009,4.7009,4.7009,4.7009,4.7009,4.7009,4.7009,4.7009,4.7009,4.7009,4.7009,4.7009,4.7009,4.7009,4.7002,4.7187,4.7287,4.7313,4.7554,4.7668,4.7707,4.7707,4.7707,4.7707,4.7707,4.7707,4.7707,4.7707,4.7707,4.7707,4.7707,4.7707,4.7707,4.7707,4.7707,4.7707,4.7707,4.7707,4.7707,4.7707,4.7707,4.7707,4.7707,4.7707,4.7707,4.7707,4.7707,4.7707,4.7707,4.7707,4.7707,4.7707,4.7707,4.7707,4.7707,4.7707,4.7707,4.7707,4.7707,4.7707,4.7707,4.7793,4.7764,4.7536,4.7908,4.8025,4.7795,4.8038,4.8303,4.8627,4.8627,4.8762,4.9085,4.9085,4.9036,4.8944,4.8944,4.8893,3.944,4.0381,4.1348,4.166,4.2459,4.316,4.3004,4.3096,4.3151,4.3004,4.3584,4.4189,4.4385,4.4962,4.5512,4.5871,4.578,4.5648,4.5648,4.5648,4.5648,4.5648,4.6052,0.0,4.632,4.6741,4.7009,0.0,4.7009,4.7009,4.7009,4.7009,4.7009,4.7009,4.7009,4.7009,4.7009,4.7009,4.7009,4.7009,4.7009,4.7009,4.7009,4.7009,4.7009,4.7009,0.0,4.7009,4.7002,4.7183,4.7265,4.7313,4.7533,4.7646,4.7707,4.7707,4.7707,4.7707,4.7707,4.7707,4.7707,4.7707,4.7707,4.7707,4.7707,4.7707,4.7707,4.7707,4.7707,4.7707,4.7707,4.7707,4.7707,4.7707,4.7707,4.7707,4.7707,4.7707,4.7707,4.7707,4.7707,4.7707,4.7707,4.7707,4.7707,4.7707,4.7707,4.7707,4.7707,4.7707,4.7707,4.7707,4.7707,4.7707,4.7707,4.7707,4.7707,4.7707,4.7909,4.804,4.804,4.8212,4.8393,4.8568,4.8577,4.8658,4.8807,4.8807,4.872,4.8577,4.8577,4.8486,3.9698,4.0733,4.1769,4.1636,4.2347,4.3013,4.2711,4.2873,4.3003,4.2702,4.3364,4.4119,4.4514,4.5345,4.6195,4.6884,4.7009,4.7009,4.7009,4.7009,4.7009,4.7009,4.7009,4.7009,4.7009,4.7009,4.7009,4.7009,4.6934,4.6922,4.7009,4.7009,4.7009,4.7009,4.7009,4.7009,4.7009,4.7009,4.7009,4.7009,4.7009,4.7009,4.7009,4.7009,4.7009,4.7009,0.0,0.0,4.702,4.7156,4.7249,4.7331,4.7468,4.7604,4.7707,4.7707,4.7707,4.7707,4.7707,4.7707,4.7707,4.7707,4.7707,4.7707,4.7707,4.7707,4.7707,4.7707,4.7707,4.7707,4.7707,4.7707,4.7707,4.7707,4.7707,4.7707,4.7707,4.7707,4.7707,4.7707,4.7797,4.787,4.787,4.7942,4.8015,4.8015,4.7924,4.787,4.787,4.7761,4.7707,4.7707,4.7707,4.7707,4.7707,4.7707,4.7707,4.7707,4.7707,4.7707,4.7707,4.7707,4.7847,4.8209,4.8219,4.8355,4.8658,4.8658,4.856,4.8384,4.8384,4.8259,4.0698,4.1025,4.1401,4.2014,4.2312,4.2432,4.2371,4.2402,4.2432,4.2371,4.3495,4.45,4.4589,4.5802,4.6848,4.6973,4.7009,4.7009,4.7009,4.7009,4.7009,4.7009,4.7009,4.7009,4.7009,4.7009,0.0,0.0,0.0,4.653,4.6986,4.7009,4.7009,4.7009,4.7009,4.7009,4.7009,4.7009,4.7009,4.7009,4.7009,4.7009,4.7009,4.7009,4.7009,4.7009,4.7009,0.0,4.7002,4.7198,4.7298,4.7313,4.7565,4.7668,4.7707,4.7707,4.7707,4.7707,4.7707,4.7707,4.7707,4.7707,4.7707,4.7707,4.7707,4.7707,4.7707,4.7707,4.7707,4.7707,4.7707,4.7707,4.7707,4.7707,4.7707,4.7707,4.7707,4.7707,4.7707,4.7707,4.8232,4.8684,4.8684,4.9238,4.9684,4.9684,4.913,4.8684,4.8684,4.8105,4.7707,4.7707,4.7707,4.7707,4.7707,4.7707,4.7707,4.7707,4.7707,4.7707,4.7707,4.7707,4.772,4.7804,4.7804,4.7827,4.788,4.788,4.8203,4.8802,4.8802,4.9104,4.1042,4.1413,4.1815,4.2208,4.2297,4.2297,4.2297,4.2297,4.2297,4.2297,4.3536,4.4614,4.4614,4.5927,4.7009,4.7009,4.7009,4.7009,4.7009,4.7009,4.6899,4.6613,4.659,4.6465,4.6151,4.6126,4.6126,4.6126,0.0,4.5978,4.6554,4.6291,4.6126,4.6126,4.6126,4.6278,4.6578,4.659,4.6719,4.7009,4.7009,4.7009,4.7009,4.7009,4.7009,4.7009,4.7009,0.0,4.7111,4.7205,4.7316,4.7407,4.7543,4.7636,4.7707,4.7707,4.7707,4.7707,4.7707,4.7707,4.7707,4.7707,4.7707,4.7707,4.7707,4.7707,4.7707,4.7707,4.7707,4.7707,4.7707,4.8015,4.8322,4.8322,4.863,4.8949,4.8949,4.8949,4.8949,4.8949,4.9257,4.9528,4.9528,4.9847,5.0101,5.0101,4.9775,4.9528,4.9528,4.9184,4.8623,4.7779,4.7707,4.7707,4.7707,4.7707,4.7707,4.7707,4.7707,4.7707,4.7707,4.8105,4.8322,4.8322,4.8749,4.8949,4.8949,4.8949,4.9148,4.9528,4.9528,4.9727,4.1359,4.1815,4.2297,4.2297,4.2297,4.2297,4.2297,4.2297,4.2297,4.2297,4.3536,4.4614,4.4614,4.5927,4.7009,4.7009,4.7009,4.7009,4.7009,4.6899,4.6672,4.6247,4.6082,4.5827,4.5359,4.5303,0.0,4.5303,0.0,0.0,4.5983,4.5554,4.5303,4.5303,4.5303,4.5528,4.6008,4.6008,4.6217,4.6631,4.6631,4.6708,4.683,4.683,4.6888,4.7009,4.7009,0.0,0.0,4.7212,4.7327,4.7511,4.7533,4.7615,4.7707,4.7707,4.7707,4.7707,4.7707,4.7707,4.7707,4.7707,4.7707,4.7707,4.7707,4.7707,4.7743,4.7906,4.796,4.7996,4.8159,4.8684,4.9155,4.9155,4.9637,5.0101,5.0101,5.0101,5.0101,5.0101,5.0245,5.0354,5.0354,5.0499,5.0608,5.0608,5.0463,5.0354,5.0354,5.0209,4.963,4.8351,4.8206,4.8206,4.8206,4.8206,4.8206,4.8206,4.8206,4.8206,4.8206,4.8811,4.9155,4.9155,4.9775,5.0101,5.0101,5.0101,5.0191,5.0354,5.0354,5.0445,4.219,4.2244,4.2297,4.2297,4.2297,4.2297,4.2297,4.2297,4.2297,4.2297,4.3536,4.4614,4.4614,4.5927,4.7009,4.7009,4.7009,4.7009,4.7009,4.6578,4.6259,4.6211,4.5726,4.5355,4.5303,4.5303,4.5303,4.5303,0.0,0.0,4.5342,4.5329,4.5303,4.5303,4.5303,4.5329,4.5381,4.5381,4.5407,4.5446,4.5446,4.5734,4.6272,4.6272,4.6542,4.7009,4.7009,0.0,0.0,4.7272,4.7374,4.7511,4.7636,4.7678,4.7707,4.7707,4.7707,4.7707,4.7707,4.7707,4.7707,4.7707,4.7707,4.7707,4.7707,4.7707,4.7852,4.8576,4.8793,4.8956,4.9684,4.9938,4.9992,4.9992,5.0046,5.0101,5.0101,5.0101,5.0101,5.0101,5.0698,5.1187,5.1187,5.1803,5.2281,5.2281,5.1658,5.1187,5.1187,5.0553,5.0046,4.9901,4.9883,4.9883,4.9883,4.9883,4.9883,4.9883,4.9883,4.9883,4.9883,4.9956,4.9992,4.9992,5.0064,5.0101,5.0101,5.0101,5.0481,5.1187,5.1187,5.1586,4.2297,4.2297,4.2297,4.2297,4.2297,4.2297,4.2297,4.2297,4.2297,4.2297,4.3536,4.4614,4.4614,4.5927,4.7009,4.7009,4.7009,4.6888,4.6566,4.6332,4.5945,4.5258,4.4964,4.4677,0.0,0.0,4.4288,4.4288,0.0,0.0,4.4274,4.4288,4.4288,4.4288,4.4288,4.444,4.4814,4.4814,4.4974,4.5303,4.5303,4.5438,4.5657,4.5657,4.5985,4.6572,4.6572,0.0,0.0,4.7414,4.75,4.7625,4.7668,4.7707,4.7707,4.7707,4.7707,4.7707,4.7707,4.7707,4.7779,4.8268,4.8431,4.8431,4.8431,4.8768,4.9202,4.9528,4.9619,4.9691,5.001,5.0463,5.0934,5.1423,5.155,5.155,5.155,5.155,5.155,5.155,5.1803,5.2021,5.2021,5.2281,5.2498,5.2498,5.2226,5.2021,5.2021,5.1749,5.155,5.155,5.068,5.0101,5.0101,5.0101,5.0101,5.0101,5.0101,5.0101,5.0101,5.0572,5.0825,5.0825,5.1296,5.155,5.155,5.155,5.1713,5.2021,5.2021,5.219,4.2297,4.2297,4.2297,4.2297,4.2297,4.2297,4.2297,4.2297,4.2297,4.2297,4.3536,4.4614,4.4614,4.5927,4.7009,4.7009,4.6865,4.6625,4.6247,4.5907,4.5407,4.46,4.4333,4.4064,4.3643,4.3598,4.3598,4.3598,0.0,0.0,4.3598,4.3598,4.3598,4.3598,4.3598,4.3804,4.4236,4.4219,4.4429,4.4797,4.4797,4.4892,4.5068,4.5068,4.5433,4.6061,0.0,0.0,0.0,4.7028,4.7107,4.7247,4.7396,4.745,4.749,4.7636,4.7707,4.7707,4.7707,4.7852,4.8159,4.8721,4.9228,4.9608,4.9608,4.9836,5.0155,5.039,5.0626,5.0807,5.0807,5.1224,5.1803,5.2383,5.2498,5.2498,5.2498,5.2498,5.2498,5.2498,5.2498,5.2498,5.2498,5.2498,5.2498,5.2498,5.2498,5.2498,5.2498,5.2498,5.2498,5.2498,5.1495,5.0807,5.0807,5.0807,5.0807,5.0807,5.0807,5.0807,5.0807,5.135,5.1658,5.1658,5.2208,5.2498,5.2498,5.2498,5.2498,5.2498,5.2498,5.2498,4.2297,4.2297,4.2297,4.2297,4.2297,4.2297,4.2297,4.2297,4.2297,4.2297,4.3536,4.4614,4.4614,4.5927,4.7009,4.7009,4.6554,4.6211,4.6198,4.5236,4.4516,4.4502,4.3962,4.3613,4.3598,4.3598,4.3598,0.0,0.0,0.0,4.3598,4.3598,4.3598,4.3598,4.3598,4.3613,4.3613,4.3613,4.3613,4.3628,4.3628,4.3919,4.4516,4.4516,4.4882,0.0,0.0,0.0,0.0,4.593,4.6005,4.6177,4.6695,4.6908,4.6965,4.7511,4.7707,4.7707,4.7707,4.8214,4.8891,4.8902,4.9981,5.1278,5.1278,5.0716,5.0264,5.1061,5.1858,5.248,5.248,5.248,5.248,5.2498,5.2498,5.2498,5.2498,5.2498,5.2498,5.2498,5.2498,5.2498,5.2498,5.2498,5.2498,5.2498,5.2498,5.2498,5.2498,5.2498,5.2498,5.2498,5.2491,5.248,5.248,5.248,5.248,5.248,5.248,5.248,5.248,5.248,5.2491,5.2491,5.2498,5.2498,5.2498,5.2498,5.2498,5.2498,5.2498,5.2498,4.2297,4.2297,4.2297,4.2297,4.2297,4.2297,4.2297,4.2297,4.2297,4.2297,4.3536,4.4614,4.4614,4.5927,4.6876,4.6501,4.6308,4.592,4.5156,4.4721,4.4347,4.3919,4.3715,4.3598,0.0,0.0,4.3598,0.0,0.0,0.0,4.3598,4.3598,4.3598,4.3598,4.3598,4.3598,4.3598,4.3598,4.3598,4.3598,4.3598,4.37,4.3891,4.4039,0.0,0.0,0.0,0.0,0.0,4.643,4.6613,4.6695,4.7236,4.7457,4.7468,4.7636,4.7707,4.7779,4.8322,4.8684,4.9083,5.018,5.0879,5.1405,5.1948,5.1937,5.1792,5.2057,5.2299,5.2498,5.2498,5.2498,5.2498,5.2498,5.2498,5.2498,5.2498,5.2498,5.2498,5.2498,5.2498,5.2498,5.2498,5.2498,5.2498,5.2498,5.2498,5.2498,5.2498,5.2498,5.2498,5.2498,5.2498,5.2498,5.2498,5.2498,5.2498,5.2498,5.2498,5.2498,5.2498,5.2498,5.2498,5.2498,5.2498,5.2498,5.2498,5.2498,5.2498,5.2498,5.2498,5.2498,4.2297,4.2297,4.2297,4.2297,4.2297,4.2297,4.2297,4.2297,4.2387,4.268,4.374,4.463,4.4727,4.5821,4.6513,4.594,4.5687,4.5311,4.46,4.429,4.402,4.3626,4.3598,0.0,0.0,4.3598,0.0,0.0,0.0,0.0,4.3598,4.3598,4.3598,4.3598,4.3598,4.3598,4.3598,4.3598,4.3598,4.3598,4.3598,4.3643,4.3719,4.3853,0.0,0.0,0.0,0.0,0.0,4.6091,4.6298,4.6346,4.6886,4.7096,4.7118,4.7313,4.7396,4.7526,4.8547,4.9101,4.9564,5.0879,5.134,5.1549,5.2289,5.2498,5.2498,5.2498,5.2498,5.2498,5.2498,5.2498,5.2498,5.2498,5.2498,5.2498,5.2498,5.2498,5.2498,5.2498,5.2498,5.2498,5.2498,5.2498,5.2498,5.2498,5.2498,5.2498,5.2498,5.2526,5.2542,5.2542,5.2577,5.2618,5.2618,5.2538,5.2498,5.2498,5.2498,5.2498,5.2498,5.2498,5.2498,5.2498,5.2498,5.2498,5.2498,5.2498,5.2498,5.2498,5.2498,5.2498,0.0,4.2297,4.2297,4.2297,4.2297,4.2297,4.2297,4.2333,0.0,4.3347,4.41,4.47,4.4946,4.5623,4.5945,4.5346,4.4828,4.4488,4.4446,4.3948,4.3598,4.3598,4.3598,0.0,4.3598,4.3598,0.0,0.0,0.0,0.0,4.3598,4.3598,4.3598,4.3598,4.3598,4.3598,4.3598,4.3598,4.3598,4.3598,4.3598,4.3704,4.3883,4.3898,4.4056,0.0,0.0,0.0,0.0,4.5112,4.5303,4.5355,4.5888,4.6098,4.6165,4.666,4.6887,4.7105,4.8415,4.9433,5.0255,5.1104,5.1514,5.1768,5.2322,5.2475,5.2434,5.2498,5.2498,5.2498,5.2498,5.2498,5.2498,5.2498,5.2498,5.2498,5.2498,5.2498,5.2498,5.2498,5.2498,5.2498,5.2498,5.2498,5.251,5.251,5.251,5.251,5.251,5.2559,5.259,5.2602,5.271,5.2783,5.2794,5.2629,5.2521,5.2521,5.251,5.2498,5.2498,5.2498,5.2498,5.2498,5.2498,5.2498,5.2498,5.2498,5.2498,5.2498,5.2498,5.2498,4.2297,0.0,4.2297,4.2297,4.2297,4.2297,0.0,4.2769,4.3276,4.3454,4.4245,4.4935,4.4992,4.5279,4.5333,4.479,4.4586,4.4333,4.3877,4.3686,4.3598,4.3598,4.3598,4.3598,4.3598,4.3598,0.0,0.0,0.0,4.3598,4.3598,4.3598,4.3598,4.3598,4.3598,4.3598,4.3598,4.3598,4.3598,4.3598,4.3598,4.3628,4.3673,4.3939,4.4099,0.0,0.0,0.0,4.464,4.5112,4.5303,4.5355,4.5888,4.6098,4.6128,4.625,4.6656,4.7255,4.8185,4.932,5.054,5.1821,5.2254,5.231,5.2463,5.2174,5.1909,5.2375,5.2498,5.2498,5.2498,5.2498,5.2498,5.2498,5.2498,5.2498,5.2498,5.2498,5.2498,5.2498,5.2498,5.2498,5.2498,5.2498,5.2515,5.257,5.2531,5.2515,5.2581,5.2554,5.2542,5.259,5.2624,5.2687,5.2783,5.2672,5.2574,5.2574,5.2538,5.2498,5.2498,5.2498,5.2498,5.2498,5.2498,5.2498,5.2498,5.2498,5.2498,5.2498,5.2498,5.2498,4.2297,4.2297,4.2297,4.2297,4.2297,4.2404,4.2769,4.3197,4.364,4.4085,4.4612,4.4946,4.4806,4.4864,4.4746,4.4176,4.4093,4.4094,4.4104,4.4093,4.4226,4.4557,4.4309,4.4093,0.0,0.0,0.0,0.0,0.0,4.3598,4.3598,4.3598,4.3598,4.3598,4.3598,4.3598,4.3598,4.3598,4.3598,4.3598,4.3598,4.3643,4.3748,4.3981,4.414,0.0,0.0,0.0,4.464,4.5112,4.5303,4.5329,4.561,4.5724,4.5776,4.6147,4.6696,4.744,4.8837,5.0225,5.1437,5.1934,5.209,5.209,5.209,5.186,5.1719,5.2322,5.2498,5.2498,5.2498,5.2498,5.2498,5.2498,5.2498,5.2498,5.2498,5.2498,5.2498,5.2498,5.2498,5.2503,5.2542,5.2554,5.257,5.2676,5.2649,5.2656,5.2676,5.2705,5.2746,5.2783,5.2839,5.2893,5.2984,5.2861,5.2754,5.2698,5.2667,5.2599,5.2554,5.2554,5.2531,5.2498,5.2498,5.2498,5.2498,5.2498,5.2498,5.2498,5.2498,5.2498,4.2297,4.2297,4.2297,4.2297,4.2297,4.2511,4.3311,4.3515,4.3815,4.48,4.497,4.4834,4.4547,4.4418,4.4207,4.3671,4.3598,4.3861,4.4604,4.4703,4.4935,4.5565,4.5084,0.0,4.4538,0.0,0.0,0.0,0.0,4.3598,4.3598,4.3598,4.3598,4.3598,4.3598,4.3598,4.3598,4.3598,4.3598,4.3598,4.3598,4.3687,4.3868,4.401,4.4169,4.4281,0.0,0.0,4.4626,4.5035,4.5188,4.5188,4.5188,4.5188,4.5304,4.6176,4.6851,4.7661,4.984,5.1365,5.2275,5.1774,5.1588,5.1576,5.15,5.1457,5.1563,5.2084,5.2364,5.2498,5.2498,5.2498,5.2498,5.2498,5.2498,5.2498,5.2498,5.2498,5.2498,5.2498,5.2521,5.2531,5.2597,5.2631,5.2676,5.2806,5.2806,5.2806,5.2817,5.2904,5.2977,5.2999,5.3103,5.3175,5.3196,5.3092,5.2977,5.2879,5.2817,5.275,5.2642,5.2624,5.2586,5.2556,5.2526,5.2526,5.2556,5.2526,5.2515,5.2515,5.2526,5.2599,4.2297,4.2297,4.2297,4.2297,4.2297,4.2511,4.3311,4.3627,4.3986,4.4822,4.4768,4.4558,4.4513,4.4078,4.37,4.3628,4.3598,4.3861,0.0,0.0,4.4736,4.4869,0.0,4.444,0.0,0.0,0.0,0.0,0.0,4.3598,4.3598,4.3598,4.3598,4.3598,4.3598,4.3598,4.3598,4.3598,4.3598,4.3598,4.3598,4.3613,4.3658,4.3952,4.4112,4.4155,0.0,4.4615,4.4615,4.4679,4.4706,4.4706,4.4706,4.4706,4.4861,4.6051,4.695,4.7923,5.0525,5.1549,5.1719,5.1631,5.1588,5.1513,5.0995,5.0832,5.0858,5.0951,5.1713,5.2498,5.2498,5.2498,5.2498,5.2498,5.2498,5.2498,5.2498,5.2498,5.2498,5.2498,5.2554,5.2597,5.259,5.2687,5.2817,5.2955,5.2861,5.2839,5.2948,5.2901,5.2872,5.2988,5.302,5.3082,5.3185,5.3175,5.3164,5.3143,5.2923,5.2783,5.2772,5.2772,5.2761,5.2739,5.2631,5.2649,5.2739,5.2649,5.2586,5.2586,5.2705,5.3094,4.2297,4.2297,4.2404,4.284,4.2947,4.307,4.3563,4.429,4.4847,4.4755,4.4845,4.4746,4.4136,4.3789,4.3598,4.3598,0.0,4.3994,4.5119,4.4952,4.5002,0.0,0.0,0.0,0.0,0.0,0.0,0.0,0.0,0.0,4.3598,4.3598,4.3598,4.3598,4.3598,4.3598,4.3598,4.3598,4.3598,4.3598,4.3598,4.3658,4.3763,4.4012,4.414,4.421,0.0,4.4615,4.4615,4.4615,4.4615,4.4635,4.5041,4.5371,4.587,4.7914,4.9124,4.9938,5.1157,5.1588,5.15,5.0884,5.088,5.1008,5.0446,5.047,5.0711,5.0711,5.11,5.1596,5.1921,5.2012,5.2102,5.2422,5.2498,5.2498,5.2498,5.2498,5.2498,5.2498,5.2526,5.257,5.2676,5.2761,5.2879,5.3082,5.306,5.3039,5.3103,5.3049,5.3039,5.3103,5.3103,5.3124,5.3185,5.3196,5.3196,5.3196,5.3028,5.2912,5.2912,5.2839,5.2794,5.2794,5.275,5.275,5.2794,5.275,5.271,5.2728,5.3221,5.364,4.2297,4.2297,4.2494,4.3294,4.3508,4.3625,4.4141,4.4858,4.528,4.4783,4.4797,4.4632,4.3759,4.3598,4.3598,4.3598,4.3598,4.406,4.5351,4.5068,4.5118,4.6245,0.0,0.0,0.0,0.0,0.0,0.0,0.0,0.0,4.3598,4.3598,4.3598,4.3598,4.3598,4.3598,4.3598,4.3598,4.3598,4.3598,4.3598,4.3719,4.3898,4.4041,4.4167,4.431,4.4514,4.4615,4.4615,4.4615,4.4685,4.4905,4.5483,4.6321,4.7464,4.9398,5.0736,5.1588,5.1588,5.1513,5.1252,5.0363,5.0279,5.0415,4.9858,4.9971,5.03,5.03,5.03,5.0466,5.1196,5.1393,5.1538,5.215,5.2287,5.2322,5.2475,5.2498,5.2498,5.2498,5.2503,5.2577,5.2779,5.2817,5.2934,5.3164,5.3196,5.3196,5.3196,5.3196,5.3196,5.3196,5.3196,5.3196,5.3196,5.3196,5.3196,5.3196,5.3103,5.306,5.306,5.2944,5.289,5.289,5.285,5.285,5.289,5.305,5.3131,5.3149,5.3996,5.4453,4.2297,4.2297,4.2494,4.3294,4.3508,4.3872,4.533,4.4904,4.4427,4.5095,4.4426,4.37,4.3628,4.3598,4.3598,4.3598,4.3598,4.3878,4.467,0.0,4.4736,4.4852,0.0,0.0,0.0,0.0,0.0,0.0,0.0,0.0,4.3598,4.3598,4.3598,4.3598,4.3598,4.3598,4.3598,4.3598,4.3598,4.3598,4.3598,4.3719,4.3898,4.4041,4.4167,4.431,4.4514,4.4615,4.4615,4.4615,4.5007,4.5635,4.5672,4.7203,4.9337,4.9021,5.0061,5.1588,5.1588,5.1235,5.0751,5.067,5.0317,4.9846,4.926,4.9092,4.9123,4.9123,4.9123,4.9376,5.048,5.0765,5.0929,5.1525,5.1669,5.1823,5.2387,5.2498,5.2498,5.2498,5.2536,5.2642,5.2772,5.2893,5.3031,5.3175,5.3196,5.3196,5.3196,5.3196,5.3196,5.3196,5.3196,5.3196,5.3196,5.3196,5.3196,5.3196,5.3185,5.3185,5.3185,5.3175,5.3175,5.3175,5.306,5.306,5.3164,5.38,5.4111,5.4111,5.5038,5.5819,4.2297,4.2672,4.3233,4.3989,4.456,4.5,4.5245,4.5354,4.5284,4.4899,4.4457,4.4049,4.3673,4.3598,4.3598,4.3598,4.3598,4.3861,4.4604,4.4307,4.4191,0.0,0.0,0.0,0.0,0.0,0.0,0.0,0.0,0.0,4.3598,4.3598,4.3598,4.3598,4.3598,4.3598,4.3598,4.3598,4.3598,4.3598,4.3734,4.3866,4.4027,4.4152,4.431,4.4483,4.457,4.4615,4.4649,4.5091,4.5449,4.5816,4.7119,4.8502,4.9806,4.9927,5.0429,5.0995,5.0669,5.0394,5.0138,4.9754,4.9526,4.9288,4.9078,4.9001,4.9001,4.9001,4.9001,4.9184,4.9985,5.0195,5.0432,5.1386,5.1588,5.1774,5.2375,5.2498,5.2498,5.2498,5.2526,5.2599,5.2761,5.2839,5.2944,5.3164,5.3196,5.3196,5.3196,5.3196,5.3196,5.3196,5.3196,5.3196,5.3196,5.3196,5.3196,5.3196,5.3196,5.3196,5.3196,5.3196,5.3196,5.3196,5.3153,5.3153,5.3196,5.396,5.4323,5.4371,5.5717,5.6487,4.2619,4.309,4.374,4.4738,4.5381,4.5721,4.5434,4.5647,4.57,4.491,4.4474,4.4093,4.3671,4.3598,0.0,0.0,4.3598,4.3779,4.4274,4.3911,4.3795,0.0,0.0,0.0,0.0,0.0,0.0,0.0,0.0,0.0,0.0,4.3598,4.3598,4.3598,4.3598,4.3598,4.3598,4.3598,4.3598,4.3598,4.3793,4.3969,4.4097,4.4239,4.4412,4.4615,4.4615,4.4719,4.499,4.55,4.5959,4.6561,4.8221,4.9283,4.9933,5.0096,5.029,5.0387,5.0031,4.9774,4.9585,4.9348,4.9153,4.9001,4.9001,4.9001,4.9001,4.9001,4.9001,4.9109,4.9511,4.9744,5.0145,5.1091,5.1457,5.1774,5.2375,5.2498,5.2498,5.2498,5.2515,5.2588,5.2779,5.2846,5.2944,5.3164,5.3196,5.3196,5.3196,5.3196,5.3196,5.3196,5.3196,5.3196,5.3196,5.3196,5.3196,5.3196,5.3196,5.3196,5.3196,5.3196,5.3196,5.3196,5.3196,5.3324,5.3581,5.4399,5.4913,5.5188,5.6547,5.7178,4.3276,4.3508,4.3882,4.5427,4.5791,4.5881,4.6132,4.5721,4.529,4.5276,4.4384,4.3598,4.3598,4.3598,0.0,4.3598,4.3598,4.3598,4.3598,4.3598,4.3598,4.3598,0.0,0.0,0.0,0.0,0.0,0.0,0.0,0.0,0.0,4.3598,4.3598,4.3598,4.3598,4.3598,4.3598,4.3598,4.3598,4.3598,4.3793,4.3969,4.4097,4.4239,4.4412,4.4615,4.4615,4.5024,4.5703,4.572,4.6585,4.7988,4.8714,4.9364,4.9817,4.9229,4.9379,4.989,4.989,4.9496,4.9092,4.9703,4.9498,4.9001,4.9001,4.9001,4.9001,4.9001,4.9001,4.9001,4.9001,4.9453,5.0045,5.0575,5.1157,5.1756,5.2375,5.2498,5.2498,5.2498,5.2547,5.2635,5.2772,5.2904,5.306,5.3175,5.3196,5.3196,5.3196,5.3196,5.3196,5.3196,5.3196,5.3196,5.3196,5.3196,5.3196,5.3196,5.3196,5.3196,5.3196,5.3196,5.3196,5.3196,5.3214,5.3599,5.4399,5.5218,5.6014,5.6811,5.7629,5.7997,4.3436,4.4293,4.5231,4.5695,4.5933,4.6099,4.6182,4.5721,4.5064,4.4274,4.3831,4.3598,4.3598,4.3598,0.0,4.3598,4.3598,4.3598,4.3598,4.3598,4.3598,4.3598,0.0,0.0,0.0,0.0,0.0,0.0,0.0,0.0,0.0,4.3598,4.3598,4.3598,4.3598,4.3598,4.3598,4.3598,4.3598,4.3598,4.3793,4.3969,4.4097,4.4239,4.4412,4.4615,4.4615,4.5024,4.5773,4.6822,4.7802,4.8714,4.8917,4.9107,4.926,4.9078,4.9107,4.9275,4.9275,4.9153,4.9032,4.9214,4.9138,4.9001,4.9001,4.9001,4.9001,4.9001,4.9001,4.9001,4.9001,4.9742,5.0493,5.067,5.0832,5.1247,5.2287,5.2498,5.2498,5.2498,5.2547,5.2635,5.2772,5.2904,5.306,5.3175,5.3196,5.3196,5.3196,5.3196,5.3196,5.3196,5.3196,5.3196,5.3196,5.3196,5.3196,5.3196,5.3196,5.3196,5.3196,5.3196,5.3196,5.3196,5.3765,5.4161,5.4399,5.5776,5.6565,5.6811,5.7629,5.7997,4.3864,4.4846,4.5873,4.6195,4.6236,4.607,4.5628,4.5245,4.4732,4.3789,4.3598,4.3598,4.3598,4.3598,0.0,4.3598,4.3598,4.3598,4.3598,4.3598,4.3598,4.3598,0.0,0.0,0.0,0.0,0.0,0.0,0.0,0.0,0.0,4.3357,4.331,4.3598,4.3598,4.3598,4.3598,4.3598,4.3598,4.3598,4.3719,4.3896,4.4097,4.4239,4.4412,4.4632,4.4905,4.5449,4.6227,4.7413,4.8326,4.9001,4.9001,4.9001,4.9001,4.9001,4.9001,4.9001,4.9001,4.9001,4.9001,4.9001,4.9001,4.9001,4.9001,4.9001,4.9001,4.9001,4.9001,4.9001,4.9001,4.9509,5.0135,5.0603,5.1074,5.1608,5.2334,5.2498,5.2521,5.2531,5.2615,5.2721,5.285,5.2988,5.3103,5.3185,5.3196,5.3196,5.3196,5.3196,5.3196,5.3196,5.3196,5.3196,5.3196,5.3196,5.3196,5.3196,5.3196,5.3196,5.3196,5.3196,5.3196,5.3196,5.3995,5.4564,5.4876,5.618,5.6957,5.7299,5.7776,5.7997,4.4507,4.5291,4.6076,4.6756,4.6477,4.5768,4.4666,4.4418,4.4248,4.37,4.3598,4.3598,4.3598,4.3598,4.3598,4.3598,4.3598,4.3598,4.3598,4.3598,4.3598,4.3598,0.0,0.0,0.0,0.0,0.0,0.0,0.0,0.0,0.0,4.2928,4.2912,4.3583,4.3598,4.3598,4.3598,4.3598,4.3598,4.3598,4.3613,4.3791,4.4097,4.4224,4.4398,4.4635,4.5382,4.6075,4.6752,4.7566,4.8293,4.8917,4.8984,4.9001,4.9001,4.9001,4.9001,4.9001,4.9001,4.9001,4.9001,4.9001,4.9001,4.9001,4.9001,4.9001,4.9001,4.9001,4.9001,4.9001,4.9001,4.9048,4.9346,5.0439,5.1533,5.2345,5.241,5.2457,5.2538,5.2597,5.271,5.2868,5.2988,5.3103,5.3196,5.3196,5.3196,5.3196,5.3196,5.3196,5.3196,5.3196,5.3196,5.3196,5.3196,5.3196,5.3196,5.3196,5.3196,5.3196,5.3196,5.3196,5.3232,5.3306,5.4106,5.4913,5.5713,5.6528,5.7299,5.7997,5.7997,5.7997,4.5327,4.6123,4.6686,4.643,4.561,4.468,4.3948,4.3789,4.3759,4.3628,4.3598,4.3598,4.3598,4.3598,4.3598,4.3598,4.3598,4.3598,4.3598,4.3598,4.3598,4.3598,0.0,0.0,0.0,0.0,0.0,0.0,0.0,0.0,4.2772,4.2679,4.2912,4.3583,4.3598,4.3598,4.3598,4.3598,4.3598,0.0,4.3763,4.3925,4.4097,4.4126,4.4298,4.4635,4.5382,4.5788,4.6041,4.7363,4.7988,4.8191,4.8766,4.9001,4.9001,4.9001,4.9001,4.9001,4.9001,4.9001,4.9001,4.9001,4.9001,4.9001,4.9001,4.9001,4.9001,4.9001,4.9001,4.9001,4.9001,4.9348,4.9873,5.0535,5.0898,5.1222,5.1694,5.2209,5.2586,5.259,5.2787,5.2977,5.2999,5.3103,5.3196,5.3196,5.3196,5.3196,5.3196,5.3196,5.3196,5.3196,5.3196,5.3196,5.3196,5.3196,5.3196,5.3196,5.3196,5.3196,5.3196,5.3196,5.3489,5.4124,5.4932,5.575,5.6547,5.7354,5.7831,5.7997,5.7997,5.7997,4.5577,4.6203,4.6417,4.5585,4.494,4.4333,4.373,4.3598,4.3598,4.3598,4.3598,4.3598,4.3598,4.3598,4.3598,4.3598,4.3598,4.3598,4.3598,4.3598,4.3477,4.3159,0.0,0.0,0.0,0.0,0.0,0.0,0.0,4.1327,4.2045,4.1771,4.19,4.2569,4.2585,4.2757,4.3128,4.3128,4.328,4.3598,4.3719,4.3881,4.4097,4.4272,4.4429,4.4632,4.5007,4.5365,4.5788,4.6921,4.7582,4.7971,4.8714,4.9001,4.9001,4.9001,4.9001,4.9001,4.9001,4.9001,4.9001,4.9001,4.9001,4.9001,4.9001,4.9001,4.9001,4.9001,4.9001,4.9001,4.9001,4.9228,4.9598,5.0181,5.0507,5.0938,5.1848,5.2138,5.232,5.2631,5.2861,5.302,5.3092,5.3146,5.3196,5.3196,5.3196,5.3196,5.3196,5.3196,5.3196,5.3196,5.3196,5.3196,5.3196,5.3196,5.3196,5.3196,5.3196,5.3379,5.3765,5.3765,5.3977,5.4399,5.5574,5.6381,5.6792,5.7611,5.7997,5.7997,5.7997,5.7997,4.5749,4.6035,4.5806,4.4763,4.4418,4.4205,4.37,4.3598,4.3598,4.3598,4.3598,4.3598,4.3598,4.3598,4.3598,4.3598,4.3598,4.3598,4.3598,4.3492,4.3219,4.2663,0.0,0.0,0.0,0.0,0.0,0.0,0.0,4.0615,4.1294,4.0805,4.0805,4.1476,4.1509,4.1852,4.2601,4.2601,4.2943,4.3598,4.3658,4.385,4.4155,4.4457,4.4615,4.4615,4.4615,4.4956,4.5568,4.6312,4.7039,4.7785,4.8528,4.89,4.9001,4.9001,4.9001,4.9001,4.9001,4.9001,4.9001,4.9001,4.9001,4.9001,4.9001,4.9001,4.9001,4.9001,4.9001,4.9001,4.9001,4.9001,4.9184,4.9873,5.0237,5.0751,5.206,5.2156,5.2144,5.2676,5.2934,5.3082,5.3175,5.3196,5.3196,5.3196,5.3196,5.3196,5.3196,5.3196,5.3196,5.3196,5.3196,5.3196,5.3196,5.3196,5.3196,5.3196,5.3324,5.371,5.4363,5.4675,5.4821,5.4821,5.6113,5.6866,5.7012,5.7685,5.7997,5.7997,5.7997,5.7997,4.6427,4.6136,4.528,4.4652,4.4107,4.37,4.3628,4.3598,4.3598,4.3598,4.3598,4.3598,4.3598,4.3598,4.3598,4.3598,4.3598,4.3598,4.3598,4.3113,4.2695,4.2617,4.2045,0.0,0.0,0.0,0.0,0.0,3.9607,3.9862,4.0598,4.0547,4.0805,4.1476,4.1509,4.1852,4.2601,4.2601,4.2943,4.3613,4.3894,4.4126,4.4281,4.4499,4.4615,4.4615,4.4615,4.4651,4.4804,4.5534,4.6278,4.7022,4.7752,4.8428,4.9001,4.9001,4.9001,4.9001,4.9001,4.9001,4.9001,4.9001,4.9001,4.9001,4.9001,4.9001,4.9001,4.9001,4.9001,4.9001,4.9001,4.9001,4.9273,5.0345,4.9881,4.9669,5.1373,5.2221,5.2676,5.2783,5.2988,5.3175,5.3196,5.3196,5.3196,5.3196,5.3196,5.3196,5.3196,5.3196,5.3196,5.3196,5.3196,5.3196,5.3196,5.3196,5.3196,5.3196,5.3838,5.4289,5.4399,5.5739,5.648,5.648,5.6682,5.7152,5.7831,5.7941,5.7997,5.7997,5.7997,5.7997,4.5468,4.5228,4.4704,4.415,4.3804,4.3598,4.3598,4.3598,4.3598,4.3598,4.3598,4.3598,4.3598,4.3598,4.3598,4.3598,4.3598,4.3462,4.3081,4.2789,4.2301,4.1525,4.1142,0.0,0.0,0.0,0.0,0.0,3.9406,3.9535,3.9862,3.9879,4.0021,4.0305,4.0322,4.0668,4.141,4.141,4.1981,4.3051,4.3759,4.4126,4.4212,4.4471,4.4615,4.4615,4.4615,4.4615,4.4651,4.5399,4.5889,4.6295,4.7447,4.8107,4.8428,4.8849,4.9001,4.9001,4.9001,4.9001,4.9001,4.9001,4.9001,4.9001,4.9001,4.9001,4.9001,4.9001,4.9001,4.9001,4.9001,4.926,4.9627,5.0124,5.0349,5.0682,5.1437,5.167,5.197,5.2754,5.3071,5.3196,5.3196,5.3196,5.3196,5.3196,5.3196,5.3196,5.3196,5.3196,5.3196,5.3196,5.3196,5.3196,5.3196,5.3196,5.3196,5.3196,5.3959,5.4601,5.5042,5.618,5.7012,5.7464,5.7464,5.7648,5.7997,5.7997,5.7997,5.7997,5.7997,5.7997,4.461,4.4502,4.4364,4.3745,4.3598,4.3598,4.3598,4.3598,4.3598,4.3598,4.3598,4.3598,4.3598,4.3598,4.3537,4.3372,4.3357,4.3113,4.2412,4.2174,4.1689,4.0633,4.0337,4.0003,0.0,0.0,0.0,0.0,3.9406,3.9406,3.9406,3.9406,3.9406,3.9406,3.9406,3.9753,4.0495,4.0856,4.1656,4.285,4.3699,4.4097,4.4112,4.4443,4.4615,4.4615,4.4615,4.4615,4.4635,4.5179,4.5534,4.5838,4.7109,4.7735,4.7988,4.8731,4.9001,4.9001,4.9001,4.9001,4.9001,4.9001,4.9001,4.9001,4.9001,4.9001,4.9001,4.9001,4.9001,4.9032,4.9184,4.9453,4.9788,5.023,5.0764,5.1291,5.175,5.1603,5.1709,5.2787,5.3103,5.3196,5.3196,5.3196,5.3196,5.3196,5.3196,5.3196,5.3196,5.3196,5.3196,5.3196,5.3196,5.3196,5.3196,5.3196,5.3287,5.3489,5.4252,5.506,5.5868,5.6675,5.7391,5.7997,5.7997,5.7997,5.7997,5.7997,5.7997,5.7997,5.7997,5.7997,4.4635,4.4502,4.4364,4.3745,4.3598,4.3598,4.3598,4.3598,4.3598,4.3598,4.3598,4.3598,4.3598,4.3598,4.3402,4.2757,4.2648,4.2412,4.1656,4.1008,4.0581,4.0512,3.9879,3.9427,0.0,0.0,0.0,0.0,3.9406,3.9406,3.9406,3.9406,3.9406,3.9406,3.9406,3.9753,4.0495,4.1819,4.2851,4.3553,4.3923,4.4097,4.4112,4.4443,4.4615,4.4615,4.4615,4.4615,4.4615,4.4635,4.5074,4.5788,4.6549,4.7293,4.7988,4.8731,4.9001,4.9001,4.9001,4.9001,4.9001,4.9001,4.9001,4.9001,4.9001,4.9001,4.9001,4.9001,4.9001,4.9123,4.9701,4.9453,4.9466,5.1122,5.0737,5.046,5.2185,5.2631,5.2761,5.2948,5.3103,5.3196,5.3196,5.3196,5.3196,5.3196,5.3196,5.3196,5.3196,5.3196,5.3196,5.3196,5.3196,5.3196,5.3196,5.3196,5.3526,5.4289,5.5089,5.5886,5.6701,5.7501,5.796,5.7997,5.7997,5.7997,5.7997,5.7997,5.7997,5.7997,5.7997,5.7997,4.4078,4.3919,4.3877,4.3641,4.3598,4.3598,4.3598,4.3598,4.3598,4.3598,4.3598,4.3598,4.3598,4.325,4.2881,4.2632,4.2206,4.1656,4.0957,4.065,4.0305,3.9859,3.9571,3.9406,3.9406,0.0,0.0,0.0,0.0,3.9406,3.9406,3.9406,3.9406,3.9406,3.9406,3.9753,4.0495,4.1426,4.2253,4.2974,4.3728,4.4097,4.4112,4.4443,4.4615,4.4615,4.4615,4.4615,4.4615,4.4615,4.4753,4.5074,4.5805,4.6549,4.7276,4.8022,4.858,4.9001,4.9001,4.9001,4.9001,4.9001,4.9001,4.9001,4.9001,4.9001,4.9001,4.9001,4.9001,4.9138,4.9744,4.9999,5.0442,5.1848,5.1569,5.1265,5.2298,5.266,5.2806,5.2861,5.3049,5.3196,5.3196,5.3196,5.3196,5.3196,5.3196,5.3196,5.3196,5.3196,5.3196,5.3196,5.3654,5.3977,5.3977,5.4436,5.4869,5.5144,5.5923,5.651,5.6792,5.7574,5.7997,5.7997,5.7997,5.7997,5.7997,5.7997,5.7997,5.7997,5.7997,5.7997,4.37,4.3598,4.3598,4.3598,4.3598,4.3598,4.3598,4.3598,4.3598,4.3598,4.3598,4.3539,4.3295,4.2695,4.2237,4.2237,4.1624,4.0924,4.0233,4.0128,3.995,3.9445,3.9406,3.9406,3.9406,3.9406,0.0,0.0,0.0,0.0,3.9406,3.9406,3.9406,3.9406,3.9628,4.0111,4.0822,4.1525,4.2237,4.2943,4.3671,4.4056,4.4112,4.4386,4.4542,4.4615,4.4615,4.4615,4.4615,4.4615,4.4615,4.4668,4.5415,4.616,4.6887,4.7633,4.836,4.9001,4.9001,4.9001,4.9001,4.9001,4.9001,4.9001,4.9001,4.9001,4.9001,4.9001,4.9001,4.9184,4.9956,5.0729,5.147,5.206,5.2048,5.2012,5.241,5.2663,5.2794,5.2794,5.3017,5.3196,5.3196,5.3196,5.3196,5.3196,5.3196,5.3196,5.3196,5.3434,5.3599,5.3599,5.4326,5.4803,5.4803,5.5291,5.5713,5.5989,5.651,5.6921,5.7189,5.7721,5.7997,5.7997,5.7997,5.7997,5.7997,5.7997,5.7997,5.7997,5.7997,5.7997,0.0,0.0,0.0,4.3598,4.3598,4.3598,4.3598,4.3598,4.3598,4.3598,4.3598,4.3402,4.271,4.1997,4.1492,4.1476,4.0907,4.0216,3.9499,3.9406,3.9406,3.9406,3.9406,3.9406,3.9406,3.9406,0.0,0.0,3.9406,3.9406,3.9406,3.9406,3.9406,3.9406,4.0093,4.0805,4.1492,4.2221,4.2912,4.3598,4.3793,4.3969,4.4097,4.4239,4.4412,4.4615,4.4615,4.4615,4.4615,4.4615,4.4615,4.4668,4.5382,4.6126,4.6887,4.7599,4.8343,4.9001,4.9001,4.9001,4.9001,4.9001,4.9001,4.9001,4.9001,4.9001,4.9001,4.9017,4.9032,4.9303,5.0425,5.1596,5.2364,5.1774,5.2072,5.2498,5.2498,5.2663,5.2794,5.2794,5.3017,5.3196,5.3196,5.3196,5.3196,5.3196,5.3214,5.3232,5.3232,5.393,5.4436,5.4436,5.5163,5.564,5.564,5.5658,5.5996,5.6792,5.6829,5.7189,5.796,5.7997,5.7997,5.7997,5.7997,5.7997,5.7997,5.7997,5.7997,5.7997,5.7997,5.7997,4.3598,0.0,0.0,0.0,0.0,0.0,4.3598,4.3598,4.3598,4.3598,4.3598,4.3402,4.271,4.1997,4.1343,4.0856,4.0181,3.9628,3.9442,3.9406,3.9406,3.9406,3.9406,3.9406,3.9406,3.9406,0.0,0.0,3.9406,3.9406,3.9406,3.9406,3.9406,3.9406,3.9607,4.027,4.1492,4.1705,4.2412,4.3598,4.3793,4.3969,4.4097,4.4239,4.4412,4.4615,4.4615,4.4615,4.4615,4.4615,4.4615,4.4632,4.4821,4.5684,4.6819,4.7022,4.7902,4.9001,4.9001,4.9001,4.9001,4.9001,4.9001,4.9001,4.9001,4.9001,4.9094,4.9526,4.9659,4.9916,5.1052,5.1921,5.2463,5.2287,5.2387,5.2498,5.2498,5.2663,5.2794,5.2794,5.3017,5.3196,5.3196,5.3196,5.3196,5.3196,5.3691,5.4069,5.4069,5.4766,5.5273,5.5273,5.5996,5.6473,5.6473,5.7005,5.7428,5.7648,5.7666,5.7776,5.7997,5.7997,5.7997,5.7997,5.7997,5.7997,5.7997,5.7997,5.7997,5.7997,5.7997,5.7997,0.0,0.0,0.0,4.3598,0.0,0.0,4.3598,4.3598,4.3598,4.3598,4.3598,4.3295,4.2317,4.1787,4.1177,4.0198,3.9681,3.9406,3.9406,3.9406,3.9406,3.9406,3.9406,3.9406,3.9406,3.9406,3.9406,3.9406,3.9406,3.9406,3.9406,3.9406,3.9406,3.9406,3.9699,4.0391,4.1492,4.1803,4.2506,4.3598,4.3719,4.3896,4.4097,4.4184,4.4355,4.4615,4.4615,4.4615,4.4615,4.4615,4.4615,4.4618,4.4939,4.5768,4.6851,4.7141,4.8003,4.9001,4.9001,4.9001,4.9001,4.9001,4.9001,4.9001,4.9001,4.9001,4.914,4.973,5.0226,5.0764,5.1424,5.2048,5.2498,5.2498,5.2498,5.2498,5.2498,5.2663,5.2794,5.2794,5.3017,5.3196,5.3196,5.3196,5.3196,5.3196,5.3875,5.4399,5.4399,5.539,5.6106,5.6106,5.6822,5.7299,5.7299,5.7721,5.7997,5.7997,5.7997,5.7997,5.7997,5.7997,5.7997,5.7997,5.7997,5.7997,5.7997,5.7997,5.7997,5.7997,5.7997,5.7997,0.0,0.0,0.0,0.0,4.3598,0.0,4.3598,4.3537,4.3477,4.3477,4.3432,4.2974,4.164,4.1393,4.0942,3.961,3.9406,3.9406,3.9406,3.9406,3.9406,3.9406,3.9406,3.9406,3.9406,3.9406,3.9406,3.9406,3.9406,3.9406,3.9406,3.9406,3.9406,3.9406,4.0111,4.0822,4.1492,4.2237,4.2943,4.3598,4.3598,4.3776,4.4097,4.4097,4.4286,4.4615,4.4615,4.4615,4.4615,4.4615,4.4615,4.4668,4.5415,4.616,4.6887,4.7633,4.836,4.9001,4.9001,4.9001,4.9001,4.9001,4.9001,4.9001,4.9001,4.9048,4.9245,4.9904,5.0871,5.1694,5.1694,5.2102,5.2498,5.2498,5.2498,5.2498,5.2498,5.2663,5.2794,5.2794,5.3017,5.3196,5.3196,5.3196,5.3232,5.3324,5.4014,5.4564,5.4656,5.5996,5.6921,5.6921,5.7574,5.7997,5.7997,5.7997,5.7997,5.7997,5.7997,5.7997,5.7997,5.7997,5.7997,5.7997,5.7997,5.7997,5.7997,5.7997,5.7997,5.7997,5.7997,5.7997,0.0,0.0,0.0,0.0,0.0,0.0,4.3598,4.3189,4.2804,4.2804,4.2317,4.1656,4.0839,4.0701,4.0409,3.9535,3.9406,3.9406,3.9406,3.9406,3.9406,3.9406,3.9406,3.9406,3.9406,3.9406,3.9406,3.9406,3.9406,3.9406,3.9406,3.9406,3.9406,3.9406,4.0111,4.0822,4.1492,4.2237,4.2943,4.3598,4.3598,4.3776,4.4097,4.4097,4.4286,4.4615,4.4615,4.4615,4.4615,4.4615,4.4615,4.4668,4.5415,4.616,4.6887,4.7633,4.836,4.9001,4.9001,4.9001,4.9001,4.9001,4.9001,4.9001,4.9001,4.9333,4.993,5.0977,5.1786,5.2322,5.2322,5.241,5.2498,5.2498,5.2498,5.2498,5.2498,5.2663,5.2794,5.2794,5.3017,5.3196,5.3196,5.3196,5.3416,5.4069,5.484,5.5592,5.6253,5.7171,5.7776,5.7776,5.7905,5.7997,5.7997,5.7997,5.7997,5.7997,5.7997,5.7997,5.7997,5.7997,5.7997,5.7997,5.7997,5.7997,5.7997,5.7997,5.7997,5.7997,5.7997,5.7997,0.0,0.0,0.0,4.3598,0.0,0.0,0.0,4.3066,4.2601,4.2601,4.2013,4.1294,4.0633,4.0495,4.0268,3.9517,3.9406,3.9406,3.9406,3.9406,3.9406,3.9406,3.9406,3.9406,3.9406,3.9406,3.9406,3.9406,3.9406,3.9406,3.9406,3.9406,3.9571,3.9932,4.032,4.1008,4.2045,4.2412,4.2943,4.3598,4.3598,4.3776,4.4097,4.4097,4.4286,4.4615,4.4615,4.4615,4.4615,4.4615,4.4615,4.4702,4.5821,4.6464,4.6921,4.8054,4.8682,4.9001,4.9001,4.9001,4.9001,4.9001,4.9199,4.9453,4.9453,5.0059,5.0871,5.1437,5.2036,5.2498,5.2498,5.2498,5.2498,5.2498,5.2498,5.2503,5.2542,5.2672,5.2817,5.2901,5.306,5.3196,5.3196,5.3526,5.393,5.4344,5.5427,5.6345,5.6756,5.7501,5.7997,5.7997,5.7997,5.7997,5.7997,5.7997,5.7997,5.7997,5.7997,5.7997,5.7997,5.7997,5.7997,5.7997,5.7997,5.7997,5.7997,5.7997,5.7997,5.7997,5.7997,5.7997,0.0,0.0,0.0,0.0,0.0,4.3598,0.0,0.0,0.0,4.238,4.1705,4.094,4.0391,4.0285,4.0063,3.9319,0.0,0.0,0.0,3.9316,0.0,3.9406,3.9406,3.9406,3.9406,3.9406,3.9406,3.9406,3.9406,3.9406,3.9406,3.9406,3.9735,4.0478,4.0633,4.131,4.2585,4.2726,4.3051,4.3598,4.3598,4.3776,4.4097,4.4097,4.4286,4.4615,4.4615,4.4615,4.4615,4.4615,4.4668,4.4939,4.6276,4.68,4.6972,4.846,4.9001,4.9001,4.9001,4.9001,4.9001,4.9001,4.9409,4.9919,5.0031,5.0791,5.1613,5.1731,5.2126,5.2498,5.2498,5.2498,5.2498,5.2498,5.2498,5.2515,5.2586,5.2698,5.2839,5.2977,5.3103,5.3196,5.3196,5.3867,5.4454,5.4601,5.5868,5.6866,5.7012,5.7593,5.7997,5.7997,5.7997,5.7997,5.7997,5.7997,5.7997,5.7997,5.7997,5.7997,5.7997,5.7997,5.7997,5.7997,5.7997,5.7997,5.7997,5.7997,5.7997,5.7997,5.7997,5.7997,0.0,0.0,0.0,0.0,4.3598,0.0,0.0,0.0,4.1624,4.1624,0.0,3.961,3.9535,0.0,0.0,0.0,0.0,0.0,3.8601,3.9035,3.9406,3.9406,3.9406,3.9406,3.9406,3.9406,3.9406,3.9406,3.9406,3.9406,3.9406,3.9406,3.9735,4.0478,4.1092,4.1771,4.2601,4.3189,4.3507,4.3598,4.3598,4.3776,4.4097,4.4097,4.4286,4.4615,4.4615,4.4615,4.4615,4.4615,4.499,4.5669,4.6481,4.68,4.6972,4.846,4.9001,4.9001,4.9001,4.9001,4.9001,4.9001,4.9409,4.9988,5.0452,5.1061,5.1706,5.2251,5.2452,5.2498,5.2498,5.2498,5.2498,5.2498,5.2498,5.2515,5.2586,5.2698,5.2839,5.2977,5.3103,5.3196,5.3196,5.3867,5.4638,5.5365,5.6235,5.7049,5.7776,5.7941,5.7997,5.7997,5.7997,5.7997,5.7997,5.7997,5.7997,5.7997,5.7997,5.7997,5.7997,5.7997,5.7997,5.7997,5.7997,5.7997,5.7997,5.7997,5.7997,5.7997,5.7997,5.7997,0.0,0.0,0.0,0.0,0.0,0.0,4.3113,0.0,4.1393,0.0,0.0,0.0,0.0,0.0,0.0,0.0,3.9212,3.9302,0.0,0.0,3.9406,3.9406,0.0,0.0,3.9406,3.9406,3.9406,3.9406,3.9406,3.9406,3.9406,3.9806,4.0357,4.1058,4.1771,4.2459,4.3174,4.3462,4.3598,4.3598,4.3598,4.3776,4.4097,4.4097,4.4286,4.4615,4.4615,4.4615,4.4615,4.4615,4.5041,4.5771,4.6498,4.7056,4.7581,4.8612,4.9001,4.9001,4.9001,4.9001,4.9063,4.9409,4.9899,5.047,5.1052,5.1638,5.2174,5.2422,5.2498,5.2498,5.2498,5.2498,5.2498,5.2498,5.2498,5.2538,5.2683,5.2761,5.285,5.3082,5.3541,5.3904,5.3904,5.4564,5.5372,5.618,5.6987,5.7611,5.796,5.7997,5.7997,5.7997,5.7997,5.7997,5.7997,5.7997,5.7997,5.7997,5.7997,5.7997,5.7997,5.7997,5.7997,5.7997,5.7997,5.7997,5.7997,5.7997,5.7997,5.7997,5.7997,5.7997,4.3598,0.0,0.0,0.0,0.0,0.0,0.0,0.0,0.0,0.0,0.0,0.0,0.0,0.0,0.0,0.0,0.0,3.9331,0.0,3.9287,0.0,0.0,0.0,0.0,0.0,3.9406,3.9481,3.9681,3.9699,3.9788,3.9968,4.0478,4.1092,4.1771,4.2317,4.2928,4.3598,4.3598,4.3598,4.3598,4.3598,4.3776,4.4097,4.4097,4.4286,4.4615,4.4615,4.4615,4.4615,4.4615,4.5159,4.6058,4.6583,4.7378,4.8276,4.8798,4.9001,4.9001,4.9001,4.9001,4.9092,4.9701,5.0265,5.0818,5.1406,5.2024,5.2498,5.2498,5.2498,5.2498,5.2498,5.2498,5.2498,5.2498,5.2498,5.2549,5.2768,5.2794,5.2934,5.3428,5.4014,5.4546,5.4987,5.5537,5.6124,5.6701,5.7483,5.7997,5.7997,5.7997,5.7997,5.7997,5.7997,5.7997,5.7997,5.7997,5.7997,5.7997,5.7997,5.7997,5.7997,5.7997,5.7997,5.7997,5.7997,5.7997,5.7997,5.7997,5.7997,5.7997,5.7997,5.7997,0.0,0.0,0.0,4.3598,0.0,0.0,0.0,0.0,4.131,0.0,0.0,0.0,0.0,0.0,0.0,0.0,0.0,0.0,0.0,3.899,3.9406,3.9406,0.0,0.0,0.0,3.9406,3.9699,4.0409,4.0461,4.0754,4.1393,4.1459,4.1803,4.2538,4.2585,4.2928,4.3598,4.3598,4.3598,4.3598,4.3598,4.3776,4.4097,4.4097,4.4286,4.4615,4.4615,4.4615,4.4615,4.4615,4.5464,4.6766,4.68,4.7682,4.8968,4.9001,4.9001,4.9001,4.9001,4.9001,4.9092,4.9701,5.0265,5.0818,5.1406,5.2024,5.2498,5.2498,5.2498,5.2498,5.2498,5.2498,5.2498,5.2498,5.2498,5.2549,5.2768,5.2794,5.3109,5.4154,5.4381,5.4895,5.6444,5.6737,5.6774,5.6792,5.7483,5.7997,5.7997,5.7997,5.7997,5.7997,5.7997,5.7997,5.7997,5.7997,5.7997,5.7997,5.7997,5.7997,5.7997,5.7997,5.7997,5.7997,5.7997,5.7997,5.7997,5.7997,5.7997,5.7997,5.7997,5.7997,0.0,0.0,4.3598,4.3598,0.0,0.0,0.0,0.0,0.0,0.0,0.0,0.0,0.0,0.0,0.0,0.0,0.0,0.0,0.0,3.9257,3.9406,3.9406,3.9406,0.0,0.0,0.0,4.0233,4.0478,4.0924,4.126,4.1492,4.1949,4.2333,4.2601,4.302,4.3372,4.3598,4.3598,4.3598,4.3598,4.3598,4.3776,4.4097,4.4097,4.4286,4.4615,4.4615,4.4615,4.4615,4.4615,4.5464,4.68,4.68,4.7699,4.9001,4.9001,4.9001,4.9001,4.9001,4.9001,4.9092,4.9701,5.0265,5.0818,5.1406,5.2024,5.2498,5.2498,5.2498,5.2498,5.2498,5.2498,5.2498,5.2498,5.2531,5.2615,5.2761,5.3299,5.3855,5.4312,5.5262,5.615,5.6701,5.7244,5.7593,5.7593,5.7831,5.7997,5.7997,5.7997,5.7997,5.7997,5.7997,5.7997,5.7997,5.7997,5.7997,5.7997,5.7997,5.7997,5.7997,5.7997,5.7997,5.7997,5.7997,5.7997,5.7997,5.7997,5.7997,5.7997,5.7997,5.7997,4.3598,4.3598,0.0,4.3598,4.328,0.0,4.1722,0.0,0.0,0.0,0.0,0.0,0.0,0.0,0.0,0.0,0.0,0.0,0.0,3.9406,3.9406,3.9406,3.9406,3.9499,0.0,3.9985,4.0426,4.1193,4.1393,4.1722,0.0,0.0,4.2959,4.2959,4.3372,4.3598,4.3598,4.3598,4.3598,4.3598,4.3598,4.3747,4.4027,4.4068,4.4241,4.4499,4.457,4.4615,4.4615,4.4615,4.5464,4.68,4.68,4.7699,4.9001,4.9001,4.9001,4.9001,4.9001,4.9138,4.9424,4.9999,5.0552,5.1126,5.1743,5.2186,5.2498,5.2498,5.2498,5.2498,5.2498,5.2498,5.2498,5.2498,5.2547,5.2726,5.3148,5.3752,5.4411,5.513,5.6088,5.6884,5.7178,5.7666,5.7997,5.7997,5.7997,5.7997,5.7997,5.7997,5.7997,5.7997,5.7997,5.7997,5.7997,5.7997,5.7997,5.7997,5.7997,5.7997,5.7997,5.7997,5.7997,5.7997,5.7997,5.7997,5.7997,5.7997,5.7997,5.7997,5.7997,5.7997]}]]